[[{"header":{"parameterUnit":"m.s-1","parameterCategory":1,"la1":30.6,"la2":29.2853,"lo1":-89.7004,"lo2":-87.6739,"dx":0.0162,"dy":0.0183,"nx":112,"ny":82,"refTime":"2023-02-02T18:00:00:Z","depth":0,"parameterNumber":2,"parameterNumberName":"U-component_of_WINDS"},"data":[0.0,0.0,0.0,0.0,0.0,0.0,0.0,0.0,0.0,0.0,0.0,0.0,0.0,0.0,0.0,0.0,0.0,0.0,0.0,0.0,0.0,0.0,0.0,0.0,0.0,0.0,0.0,0.0,0.0,0.0,0.0,0.0,0.0,0.0,0.0,0.0,0.0,0.0,0.0,0.0,0.0,0.0,0.0,0.0,0.0,0.0,0.0,0.0,0.0,0.0,0.0,0.0,0.0,0.0,0.0,0.0,0.0,0.0,0.0,0.0,0.0,0.0,0.0,0.0,0.0,0.0,0.0,0.0,0.0,0.0,0.0,0.0,0.0,0.0,0.0,0.0,0.0,0.0,0.0,0.0,0.0,0.0,0.0,0.0,0.0,0.0,0.0,0.0,0.0,0.0,6.0557,6.4765,7.1973,7.6167,7.5353,7.1929,6.7301,6.1376,0.0,0.0,0.0,0.0,0.0,0.0,0.0,0.0,0.0,0.0,0.0,0.0,0.0,0.0,0.0,0.0,0.0,0.0,0.0,0.0,0.0,0.0,0.0,0.0,0.0,0.0,0.0,0.0,0.0,0.0,0.0,0.0,0.0,0.0,0.0,0.0,0.0,0.0,0.0,0.0,0.0,0.0,0.0,0.0,0.0,0.0,0.0,0.0,0.0,0.0,0.0,0.0,0.0,0.0,0.0,0.0,0.0,0.0,0.0,0.0,0.0,0.0,0.0,0.0,0.0,0.0,0.0,0.0,0.0,0.0,0.0,0.0,0.0,0.0,0.0,0.0,0.0,0.0,0.0,0.0,0.0,0.0,0.0,0.0,0.0,0.0,0.0,0.0,0.0,0.0,0.0,0.0,0.0,0.0,0.0,0.0,0.0,0.0,0.0,0.0,0.0,0.0,0.0,0.0,6.4751,7.3386,7.6102,7.7008,7.6211,7.0734,6.5765,6.2057,0.0,0.0,0.0,0.0,0.0,0.0,0.0,0.0,0.0,0.0,0.0,0.0,0.0,0.0,0.0,0.0,0.0,0.0,0.0,0.0,0.0,0.0,0.0,0.0,0.0,0.0,0.0,0.0,0.0,0.0,0.0,0.0,0.0,0.0,0.0,0.0,0.0,0.0,0.0,0.0,0.0,0.0,0.0,0.0,0.0,0.0,0.0,0.0,0.0,0.0,0.0,0.0,0.0,0.0,0.0,0.0,0.0,0.0,0.0,0.0,0.0,0.0,0.0,0.0,0.0,0.0,0.0,0.0,0.0,0.0,0.0,0.0,0.0,0.0,0.0,0.0,0.0,0.0,0.0,0.0,0.0,0.0,0.0,0.0,0.0,0.0,0.0,0.0,0.0,0.0,0.0,0.0,0.0,0.0,0.0,0.0,0.0,0.0,0.0,0.0,0.0,0.0,0.0,6.3368,6.8408,7.671,7.8303,7.8122,7.6428,7.0842,6.591,6.2245,5.8796,0.0,0.0,0.0,0.0,0.0,0.0,0.0,0.0,0.0,0.0,0.0,0.0,0.0,0.0,0.0,0.0,0.0,0.0,0.0,0.0,0.0,0.0,0.0,0.0,0.0,0.0,0.0,0.0,0.0,0.0,0.0,0.0,0.0,0.0,0.0,0.0,0.0,0.0,0.0,0.0,0.0,0.0,0.0,0.0,0.0,0.0,0.0,0.0,0.0,0.0,0.0,0.0,0.0,0.0,0.0,0.0,0.0,0.0,0.0,0.0,0.0,0.0,0.0,0.0,0.0,0.0,0.0,0.0,0.0,0.0,0.0,0.0,0.0,0.0,0.0,0.0,0.0,0.0,0.0,0.0,0.0,0.0,0.0,0.0,0.0,0.0,0.0,0.0,0.0,0.0,0.0,0.0,0.0,0.0,0.0,0.0,0.0,0.0,0.0,0.0,0.0,0.0,6.8046,7.1994,7.881,7.9607,7.8738,7.6501,7.0842,6.5873,6.2245,5.7638,0.0,0.0,0.0,0.0,0.0,0.0,0.0,0.0,0.0,0.0,0.0,0.0,0.0,0.0,0.0,0.0,0.0,0.0,0.0,0.0,0.0,0.0,0.0,0.0,0.0,0.0,0.0,0.0,0.0,0.0,0.0,0.0,0.0,0.0,0.0,0.0,0.0,0.0,0.0,0.0,0.0,0.0,0.0,0.0,0.0,0.0,0.0,0.0,0.0,0.0,0.0,0.0,0.0,0.0,0.0,0.0,0.0,0.0,0.0,0.0,0.0,0.0,0.0,0.0,0.0,0.0,0.0,0.0,0.0,0.0,0.0,0.0,0.0,0.0,0.0,0.0,0.0,0.0,0.0,0.0,0.0,0.0,0.0,0.0,0.0,0.0,0.0,0.0,0.0,0.0,0.0,0.0,0.0,0.0,0.0,0.0,0.0,0.0,0.0,0.0,0.0,0.0,7.1153,7.5687,8.1436,8.0087,7.8122,7.6428,6.9836,6.4678,6.2173,5.6621,0.0,0.0,0.0,0.0,0.0,0.0,0.0,0.0,0.0,0.0,0.0,0.0,0.0,0.0,0.0,0.0,0.0,0.0,0.0,0.0,0.0,0.0,0.0,0.0,0.0,0.0,0.0,0.0,0.0,0.0,0.0,0.0,0.0,0.0,0.0,0.0,0.0,0.0,0.0,0.0,0.0,0.0,0.0,0.0,0.0,0.0,0.0,0.0,0.0,0.0,0.0,0.0,0.0,0.0,0.0,0.0,0.0,0.0,0.0,0.0,0.0,0.0,0.0,0.0,0.0,0.0,0.0,0.0,0.0,0.0,0.0,0.0,0.0,0.0,0.0,0.0,0.0,0.0,0.0,0.0,0.0,0.0,0.0,0.0,0.0,0.0,0.0,0.0,0.0,0.0,0.0,0.0,0.0,0.0,0.0,0.0,0.0,0.0,0.0,0.0,0.0,0.0,7.2038,7.687,0.0,8.0379,7.8666,7.5854,7.0149,6.5394,6.2305,0.0,0.0,0.0,0.0,0.0,0.0,0.0,0.0,0.0,0.0,0.0,0.0,0.0,0.0,0.0,0.0,0.0,0.0,0.0,0.0,0.0,0.0,0.0,0.0,0.0,0.0,0.0,0.0,0.0,0.0,0.0,0.0,0.0,0.0,0.0,0.0,0.0,0.0,0.0,0.0,0.0,0.0,0.0,0.0,0.0,0.0,0.0,0.0,0.0,0.0,0.0,0.0,0.0,0.0,0.0,0.0,0.0,0.0,0.0,0.0,0.0,0.0,0.0,0.0,0.0,0.0,0.0,0.0,0.0,0.0,0.0,0.0,0.0,0.0,0.0,0.0,0.0,0.0,0.0,0.0,0.0,0.0,0.0,0.0,0.0,0.0,0.0,0.0,0.0,0.0,0.0,0.0,0.0,0.0,0.0,0.0,0.0,0.0,0.0,0.0,0.0,0.0,6.6641,7.2621,7.7627,0.0,8.0082,7.8363,7.5421,6.9377,6.4729,6.235,0.0,0.0,0.0,0.0,0.0,0.0,0.0,0.0,0.0,0.0,0.0,0.0,0.0,0.0,0.0,0.0,0.0,0.0,0.0,0.0,0.0,0.0,0.0,0.0,0.0,0.0,0.0,0.0,0.0,0.0,0.0,0.0,0.0,0.0,0.0,0.0,0.0,0.0,0.0,0.0,0.0,0.0,0.0,0.0,0.0,0.0,0.0,0.0,0.0,0.0,0.0,0.0,0.0,0.0,0.0,0.0,0.0,0.0,0.0,0.0,0.0,0.0,0.0,0.0,0.0,0.0,0.0,0.0,0.0,0.0,0.0,0.0,0.0,0.0,0.0,0.0,0.0,0.0,0.0,0.0,0.0,0.0,0.0,0.0,0.0,0.0,0.0,0.0,0.0,0.0,0.0,0.0,0.0,0.0,0.0,0.0,0.0,0.0,0.0,0.0,0.0,0.0,6.7604,7.3214,7.8153,8.1344,7.9183,7.6857,7.5224,6.7179,6.2228,0.0,0.0,0.0,0.0,0.0,0.0,0.0,0.0,0.0,0.0,0.0,0.0,0.0,0.0,0.0,0.0,0.0,0.0,0.0,0.0,0.0,0.0,0.0,0.0,0.0,0.0,0.0,0.0,0.0,0.0,0.0,0.0,0.0,0.0,0.0,0.0,0.0,0.0,0.0,0.0,0.0,0.0,0.0,0.0,0.0,0.0,0.0,0.0,0.0,0.0,0.0,0.0,0.0,0.0,0.0,0.0,0.0,0.0,0.0,0.0,0.0,0.0,0.0,0.0,0.0,0.0,0.0,0.0,0.0,0.0,0.0,0.0,0.0,0.0,0.0,0.0,0.0,0.0,0.0,0.0,0.0,0.0,0.0,0.0,0.0,0.0,0.0,0.0,0.0,0.0,0.0,0.0,0.0,0.0,0.0,0.0,0.0,0.0,0.0,0.0,0.0,0.0,0.0,6.795,7.4107,7.8824,8.06,7.9059,7.6947,7.454,6.7655,6.3262,6.273,0.0,0.0,0.0,0.0,0.0,0.0,0.0,0.0,0.0,0.0,0.0,0.0,0.0,0.0,0.0,0.0,0.0,0.0,0.0,0.0,0.0,0.0,0.0,0.0,0.0,0.0,0.0,0.0,0.0,0.0,0.0,0.0,0.0,0.0,0.0,0.0,0.0,0.0,0.0,0.0,0.0,0.0,0.0,0.0,0.0,0.0,0.0,0.0,0.0,0.0,0.0,0.0,0.0,0.0,0.0,0.0,0.0,0.0,0.0,0.0,0.0,0.0,0.0,0.0,0.0,0.0,0.0,0.0,0.0,0.0,0.0,0.0,0.0,0.0,0.0,0.0,0.0,0.0,0.0,0.0,0.0,0.0,0.0,0.0,0.0,0.0,0.0,0.0,0.0,0.0,0.0,0.0,0.0,0.0,0.0,0.0,0.0,0.0,0.0,0.0,0.0,0.0,6.81,7.4038,7.8597,8.0243,7.8595,7.6453,7.4205,6.8036,6.3683,6.2351,0.0,0.0,0.0,0.0,0.0,0.0,0.0,0.0,0.0,0.0,0.0,0.0,0.0,0.0,0.0,0.0,0.0,0.0,0.0,0.0,0.0,0.0,0.0,0.0,0.0,0.0,0.0,0.0,0.0,0.0,0.0,0.0,0.0,0.0,0.0,0.0,0.0,0.0,0.0,0.0,0.0,0.0,0.0,0.0,0.0,0.0,0.0,0.0,0.0,0.0,0.0,0.0,0.0,0.0,0.0,0.0,0.0,0.0,0.0,0.0,0.0,0.0,0.0,0.0,0.0,0.0,0.0,0.0,0.0,0.0,0.0,0.0,0.0,0.0,0.0,0.0,0.0,0.0,0.0,0.0,0.0,0.0,0.0,0.0,0.0,0.0,0.0,0.0,0.0,0.0,0.0,0.0,0.0,0.0,0.0,0.0,0.0,0.0,0.0,0.0,0.0,0.0,6.8219,7.349,7.7822,8.0104,7.7972,7.571,7.4026,6.8312,6.3863,6.1587,0.0,0.0,0.0,0.0,0.0,0.0,0.0,0.0,0.0,0.0,0.0,0.0,0.0,0.0,0.0,0.0,0.0,0.0,0.0,0.0,0.0,0.0,0.0,0.0,0.0,0.0,0.0,0.0,0.0,0.0,0.0,0.0,0.0,0.0,0.0,0.0,0.0,0.0,0.0,0.0,0.0,0.0,0.0,0.0,0.0,0.0,0.0,0.0,0.0,0.0,0.0,0.0,0.0,0.0,0.0,0.0,0.0,0.0,0.0,0.0,5.219,0.0,0.0,0.0,0.0,0.0,0.0,0.0,0.0,0.0,0.0,0.0,0.0,0.0,0.0,0.0,0.0,0.0,0.0,0.0,0.0,0.0,0.0,0.0,0.0,0.0,0.0,0.0,0.0,0.0,0.0,0.0,0.0,0.0,0.0,0.0,0.0,0.0,0.0,0.0,0.0,0.0,6.9059,7.4062,7.7964,7.9757,7.8265,7.6067,7.335,6.8509,6.4747,6.2698,5.8213,0.0,0.0,0.0,0.0,0.0,0.0,0.0,0.0,0.0,0.0,0.0,0.0,0.0,0.0,0.0,0.0,0.0,0.0,0.0,0.0,0.0,0.0,0.0,0.0,0.0,0.0,0.0,0.0,0.0,0.0,0.0,0.0,0.0,0.0,0.0,0.0,0.0,0.0,0.0,0.0,0.0,0.0,0.0,0.0,0.0,0.0,0.0,0.0,0.0,0.0,0.0,0.0,0.0,0.0,0.0,0.0,0.0,0.0,0.0,0.0,5.3753,0.0,0.0,0.0,0.0,0.0,0.0,0.0,0.0,0.0,0.0,0.0,0.0,0.0,0.0,0.0,0.0,0.0,0.0,0.0,0.0,0.0,0.0,0.0,0.0,0.0,0.0,0.0,0.0,0.0,0.0,0.0,0.0,0.0,0.0,0.0,0.0,0.0,0.0,0.0,0.0,6.9813,7.3851,7.724,7.9541,7.7728,7.5291,7.265,6.9461,6.6033,6.2398,5.942,0.0,0.0,0.0,0.0,0.0,0.0,0.0,0.0,0.0,0.0,0.0,0.0,0.0,0.0,0.0,0.0,0.0,0.0,0.0,0.0,0.0,0.0,0.0,0.0,0.0,0.0,0.0,0.0,0.0,0.0,0.0,0.0,0.0,0.0,0.0,0.0,0.0,0.0,0.0,0.0,0.0,0.0,0.0,0.0,0.0,0.0,0.0,0.0,0.0,0.0,0.0,0.0,0.0,5.9047,5.999,6.0462,6.1307,6.1744,6.1715,5.9185,5.6737,5.4597,5.5605,0.0,0.0,0.0,0.0,0.0,0.0,0.0,0.0,0.0,0.0,0.0,0.0,0.0,0.0,0.0,0.0,0.0,0.0,0.0,0.0,0.0,0.0,0.0,0.0,6.1992,6.0405,0.0,0.0,0.0,0.0,0.0,0.0,0.0,0.0,0.0,0.0,0.0,0.0,6.9905,7.3235,7.623,7.8936,7.6805,7.4252,7.1914,7.0189,6.7111,6.2132,6.0613,5.8553,0.0,0.0,0.0,0.0,0.0,0.0,0.0,0.0,0.0,0.0,0.0,0.0,0.0,0.0,0.0,0.0,0.0,0.0,0.0,0.0,0.0,0.0,0.0,0.0,0.0,0.0,0.0,0.0,0.0,0.0,0.0,0.0,4.6936,4.6417,0.0,0.0,0.0,0.0,0.0,0.0,0.0,0.0,0.0,0.0,0.0,0.0,0.0,5.8903,6.1342,6.2309,6.2683,6.2468,6.4016,6.4447,6.3874,6.4696,6.5426,6.6123,6.6317,0.0,5.7782,5.6517,0.0,0.0,0.0,0.0,0.0,0.0,0.0,0.0,0.0,0.0,0.0,0.0,0.0,0.0,0.0,0.0,0.0,0.0,0.0,0.0,0.0,0.0,6.299,6.4722,6.4504,6.3932,0.0,6.1462,5.8884,5.8087,5.653,0.0,0.0,0.0,0.0,0.0,0.0,0.0,6.8175,7.2512,7.5686,7.6727,7.5908,7.4117,7.1176,6.9514,6.7147,6.3707,6.1449,5.9179,5.6843,5.5648,0.0,0.0,0.0,0.0,0.0,0.0,0.0,0.0,0.0,0.0,0.0,0.0,0.0,0.0,0.0,0.0,0.0,0.0,0.0,0.0,0.0,0.0,0.0,0.0,0.0,0.0,0.0,0.0,0.0,4.8715,4.8939,4.8438,4.916,4.9625,0.0,0.0,0.0,0.0,0.0,0.0,0.0,0.0,0.0,5.958,6.067,6.1871,6.3202,6.5216,6.5996,6.5545,6.7489,6.8428,6.8519,6.932,6.9869,7.0189,7.0386,6.8254,6.4434,6.1902,5.9183,5.6551,0.0,0.0,0.0,0.0,6.0136,6.1343,6.2148,6.273,0.0,6.2875,0.0,0.0,0.0,0.0,0.0,0.0,0.0,0.0,0.0,0.0,6.8032,6.8749,6.9033,6.9089,6.8963,6.6491,6.3808,0.0,6.1145,6.0408,5.973,0.0,0.0,0.0,0.0,6.6055,6.9759,7.28,7.5077,7.6273,7.4995,7.3189,7.1049,6.9805,6.7851,6.4768,6.2531,6.0309,5.8059,5.7175,5.5623,0.0,0.0,0.0,0.0,0.0,0.0,0.0,0.0,0.0,0.0,0.0,0.0,0.0,0.0,0.0,0.0,0.0,0.0,0.0,0.0,0.0,0.0,0.0,0.0,0.0,0.0,0.0,0.0,5.0205,5.0566,4.9767,5.0734,5.1236,0.0,0.0,0.0,0.0,0.0,0.0,5.727,5.9734,6.1822,6.3396,6.4789,6.5792,6.6382,6.8812,6.976,6.9304,7.1139,7.2374,7.3111,7.3691,7.3935,7.39,7.3749,7.2413,7.0075,6.6443,6.2659,5.9185,5.9615,5.9661,5.9718,6.1548,6.3251,6.4761,6.5825,6.649,6.6744,6.6342,0.0,6.5388,6.3385,0.0,0.0,0.0,0.0,6.6144,6.7875,7.0071,7.199,7.2601,7.3374,7.3749,7.2924,7.1204,6.8873,0.0,6.4802,6.4096,6.2306,0.0,0.0,0.0,0.0,6.7059,7.0771,7.2748,7.436,7.5695,7.4015,7.2316,7.1024,6.9836,6.8127,6.565,6.3693,6.1613,5.9371,5.8573,5.6534,5.298,0.0,0.0,0.0,0.0,0.0,0.0,0.0,0.0,0.0,0.0,0.0,0.0,0.0,0.0,0.0,0.0,0.0,0.0,0.0,0.0,0.0,0.0,0.0,0.0,0.0,0.0,0.0,0.0,0.0,4.8804,5.1536,0.0,0.0,0.0,0.0,5.4747,5.8131,6.047,6.127,6.4065,6.6698,6.8941,7.0415,7.2095,7.391,7.481,7.5117,7.4884,7.5667,7.6383,7.7112,7.7152,7.7152,7.7145,7.7139,7.5547,7.2531,6.7666,6.5623,6.5393,6.4069,6.4307,6.547,6.553,6.6555,6.786,6.7868,6.7464,6.7359,7.021,7.0413,6.893,6.5794,6.5915,0.0,0.0,6.6105,6.8035,6.8923,7.0927,7.3309,7.5536,7.6616,7.6966,7.6231,7.5365,7.3143,0.0,6.4916,6.3381,6.3395,0.0,6.1962,6.2876,6.5396,6.78,6.9491,7.1723,7.3471,7.4226,7.2949,7.1753,7.0958,6.8949,6.7322,6.6388,6.4885,6.3013,6.0882,5.9424,5.6685,5.2511,5.4434,0.0,0.0,0.0,0.0,0.0,0.0,0.0,0.0,0.0,0.0,0.0,0.0,0.0,0.0,0.0,0.0,0.0,0.0,0.0,0.0,0.0,0.0,0.0,0.0,0.0,0.0,0.0,0.0,5.6038,5.7548,0.0,5.7292,5.7196,5.7881,5.9648,6.1526,6.4088,6.742,6.9164,7.1439,7.4464,7.5062,7.5888,7.7071,7.7801,7.7894,7.7384,7.81,7.855,7.8815,7.8815,7.8815,7.8815,7.8815,7.7702,7.5682,7.3451,7.0339,6.6934,6.6071,6.5768,6.5902,6.7015,6.8045,6.9158,7.0645,7.0996,7.0696,7.0263,6.8864,6.6971,6.5321,6.5908,6.7266,6.7821,6.9292,7.1185,7.3246,7.4408,7.5261,7.6095,7.6177,7.5946,7.565,7.4991,7.3877,7.1884,6.9393,6.7295,6.6371,6.4825,6.4374,6.6288,6.7404,6.893,7.153,7.2994,7.3931,7.4163,7.331,7.2415,7.1686,7.003,6.85,6.7245,6.5369,6.3525,6.1824,5.9871,5.7676,5.5208,5.5404,5.4673,0.0,0.0,0.0,0.0,0.0,0.0,0.0,0.0,0.0,0.0,0.0,0.0,0.0,0.0,0.0,0.0,0.0,0.0,0.0,0.0,0.0,0.0,0.0,0.0,0.0,5.6087,5.8409,6.1185,6.2358,6.2828,6.2582,6.2421,6.3145,6.5105,6.6978,6.9493,7.2925,7.4152,7.5923,7.8444,7.8762,7.9126,7.9623,8.0087,7.9954,7.9259,7.9988,8.0484,8.0716,8.0981,8.0948,8.0716,8.0451,7.9524,7.81,7.7338,7.4622,7.078,6.9431,6.8626,6.8353,6.976,7.0906,7.1964,7.3561,7.4082,7.3727,7.1786,7.0088,6.8695,6.7896,6.8552,6.9759,7.0665,7.2041,7.3571,7.5146,7.5771,7.601,7.6268,7.5971,7.564,7.5576,7.5017,7.4402,7.4147,7.2423,7.0583,6.9325,6.8045,6.7771,6.9422,6.9863,7.0823,7.3161,7.3885,7.4196,7.4196,7.3541,7.2701,7.172,7.0494,6.897,6.6993,6.5072,6.3261,6.1537,5.9572,5.7707,5.5984,5.5014,5.4542,5.4561,0.0,0.0,0.0,0.0,0.0,0.0,0.0,0.0,0.0,0.0,0.0,0.0,0.0,0.0,0.0,0.0,0.0,0.0,0.0,0.0,0.0,0.0,0.0,5.5126,5.9468,6.2831,6.3685,6.5548,6.6242,6.4906,6.7325,6.9578,7.1024,7.4436,7.6775,7.7537,7.8947,8.0087,8.081,8.1539,8.1889,8.1889,8.1889,8.1525,8.0843,8.1558,8.2287,8.2983,8.3711,8.3645,8.2916,8.2221,8.1061,7.9643,7.8914,7.8199,7.7205,7.4324,7.3231,7.331,7.3985,7.5185,7.6399,7.6399,7.6308,7.6047,7.4939,7.4582,7.441,7.3632,7.3986,7.4356,7.3319,7.4087,7.5069,7.4409,7.4788,7.5542,7.6192,7.6311,7.6311,7.6311,7.5807,7.5095,7.4277,7.3501,7.2756,7.2052,7.1947,7.1959,7.2062,7.2668,0.0,7.4163,7.4262,7.4262,7.4262,7.362,7.2602,7.109,7.0262,6.8572,6.5547,6.4012,6.2266,6.0059,5.8545,5.6713,5.4574,5.3211,5.3267,5.4771,0.0,0.0,0.0,0.0,0.0,0.0,0.0,0.0,0.0,0.0,0.0,0.0,0.0,0.0,0.0,0.0,0.0,0.0,0.0,0.0,0.0,5.782,6.0517,6.0404,6.3255,6.6642,7.0068,7.1889,7.2925,7.3011,7.4225,7.5384,7.6344,7.8312,8.0034,8.1326,8.2273,8.3148,8.3877,8.4109,8.4208,8.4208,8.4208,8.4109,8.391,8.4109,8.4308,8.4492,8.4691,8.4691,8.4459,8.426,8.338,8.1989,8.179,8.0617,7.8815,7.694,7.5881,7.545,7.5662,7.5969,7.6328,7.6328,7.5635,7.4741,7.4409,7.394,7.3574,7.3864,7.4144,7.4454,7.5163,7.5676,7.6189,7.7087,7.7064,7.6874,7.704,7.6675,7.6311,7.6311,7.6159,7.5825,7.5113,7.4793,7.4238,7.2909,7.2687,7.2909,7.3501,7.3765,0.0,7.5562,7.5728,7.5728,7.5728,7.5549,7.4622,7.2668,7.1322,6.8871,6.4851,6.2775,6.0953,5.9264,5.7266,5.5932,5.5303,5.5454,5.5728,0.0,0.0,0.0,0.0,0.0,0.0,0.0,0.0,0.0,0.0,0.0,0.0,0.0,0.0,0.0,0.0,0.0,0.0,0.0,0.0,0.0,0.0,6.2481,6.5924,6.7585,6.9173,7.1488,7.4953,7.6125,7.702,7.8047,7.8809,7.9689,8.0716,8.1591,8.2453,8.3314,8.348,8.3877,8.4639,8.4625,8.4625,8.4625,8.4625,8.4459,8.4208,8.479,8.4923,8.4658,8.56,8.5699,8.5121,8.5434,8.4705,8.3347,8.3347,8.2405,0.0,0.0,0.0,0.0,0.0,7.7305,7.6808,7.7106,7.649,7.5542,7.5542,7.5264,7.492,7.5032,7.531,7.5641,7.6159,7.651,7.6874,7.7437,7.7272,7.7007,7.7338,7.6841,7.6377,7.6675,7.651,7.6278,7.6205,7.6159,0.0,7.5402,7.4775,7.4639,7.5407,7.5542,7.596,7.7073,7.6675,7.6192,7.5894,7.6125,7.5318,7.2833,7.215,0.0,0.0,0.0,6.0324,5.7631,5.6263,0.0,0.0,0.0,5.6249,0.0,0.0,0.0,0.0,5.6586,5.6716,0.0,0.0,0.0,0.0,0.0,0.0,0.0,0.0,0.0,0.0,0.0,0.0,0.0,0.0,0.0,0.0,6.7257,7.0695,7.5269,7.6118,7.6867,7.8431,7.8749,7.9425,8.081,8.1705,8.2718,8.4043,8.4128,8.4128,8.4128,0.0,0.0,0.0,0.0,8.4374,8.4374,8.4374,8.4043,8.3413,8.4805,8.5103,8.444,8.6476,8.6693,8.5486,8.6078,8.5581,8.4374,8.4275,8.3811,8.2916,8.0716,7.9808,7.9709,7.9808,7.8961,7.7868,7.853,0.0,0.0,7.757,7.7537,7.7404,7.6742,7.694,7.7272,7.6709,7.6974,7.7272,7.6709,7.6543,7.6709,7.7371,7.7007,7.6742,7.7371,7.7007,7.6709,7.7305,7.7404,7.7603,7.8252,7.7305,7.6675,7.7404,7.7437,7.7669,7.8431,7.7371,7.6324,7.5708,0.0,0.0,7.2701,7.28,7.0879,6.5977,6.3382,6.0235,5.6131,5.6055,5.6339,5.6822,5.6273,5.5956,5.5965,5.5336,5.543,5.6245,5.6833,5.7085,0.0,0.0,0.0,0.0,0.0,0.0,0.0,0.0,0.0,0.0,0.0,0.0,0.0,0.0,0.0,6.7402,7.2803,7.7212,7.9352,8.1194,8.1577,7.961,8.0451,8.1492,8.2386,8.3678,8.4558,8.4856,8.4904,8.4904,8.4904,8.5316,8.5629,8.578,8.6343,8.6641,8.6641,8.6641,8.6575,8.6443,0.0,0.0,8.6674,8.7654,8.7952,8.7672,8.7271,8.6921,8.6608,8.6026,8.5349,8.4459,8.2254,8.0995,8.0564,8.1161,8.0829,8.0067,8.0233,7.9789,7.908,7.8484,7.8298,7.8252,7.8119,7.7768,0.0,7.7967,7.7768,7.7504,7.7967,7.8053,7.81,7.8265,7.8186,7.81,7.8252,7.8199,7.7934,7.7504,7.7404,7.7437,7.7603,7.7371,7.7437,7.8199,7.7768,7.7669,7.8431,7.8265,7.8033,7.7901,7.747,7.6709,7.5549,7.3475,7.078,6.739,6.3493,6.039,5.8369,5.8823,5.8668,5.7617,5.8038,5.827,5.827,5.8138,5.8157,5.8316,5.7967,5.7609,0.0,0.0,0.0,0.0,0.0,0.0,0.0,0.0,0.0,0.0,0.0,5.7024,5.9831,0.0,6.8207,7.2496,7.6496,7.9689,8.1525,8.2751,8.3049,8.1942,8.2121,8.2916,8.4421,8.4871,8.5401,8.613,8.6196,8.6196,8.6196,8.6211,8.6358,8.6756,8.6756,8.6921,8.7319,8.7319,8.7319,8.7304,8.7985,8.7952,8.7352,8.8382,8.8482,8.7819,8.8184,8.7967,8.7286,8.6921,8.631,8.5548,8.4421,8.3096,8.187,8.2221,8.1426,8.0153,8.0153,7.9921,7.9477,7.8749,7.8994,7.9458,7.8729,7.8484,7.8484,7.8484,7.8219,7.8033,7.8384,7.8484,7.8484,7.8484,7.8484,7.8583,7.898,7.9047,7.9146,7.9537,7.9604,7.9723,8.0101,7.9537,7.9041,7.9047,7.8749,7.8616,7.9014,7.8716,7.8351,7.8,7.7967,7.7371,7.5927,7.3475,7.0891,6.8296,6.5414,6.2831,6.0632,6.0897,6.0599,5.9463,6.0169,6.0543,6.0543,6.0543,6.0742,6.1073,6.0796,5.9929,0.0,0.0,0.0,0.0,0.0,0.0,0.0,5.2898,5.4215,5.6209,5.885,6.2004,6.598,6.948,7.3106,7.7364,7.9623,8.1511,8.3281,8.3546,8.3811,8.454,8.3877,8.4156,8.6225,8.5997,8.6262,8.7602,8.7569,8.7503,8.7503,8.694,8.6873,8.747,8.7072,8.7105,8.7702,8.7702,8.7702,8.7735,8.8415,8.8382,8.7735,8.903,8.8912,8.7768,8.8912,8.8747,8.7702,8.7702,8.7271,8.6623,8.6623,8.5349,8.3513,8.338,8.2107,8.0438,8.0438,8.0352,8.012,7.9391,7.9935,8.0678,7.9325,7.9245,7.9477,7.8881,7.8616,7.8484,7.8484,7.8616,7.8716,7.8716,7.8815,7.9093,7.9689,7.9808,8.0153,8.1359,8.1605,8.1837,8.2552,8.1572,8.0498,7.9921,7.9577,7.9378,7.9378,7.8848,7.8252,7.7669,7.8033,7.7537,7.5641,7.3873,7.1951,6.9909,6.8241,6.6187,6.3559,6.3194,6.262,6.1748,6.2322,6.2575,6.2399,6.2399,6.2708,6.3294,6.3459,6.2488,5.0808,4.9153,4.8612,5.0397,5.0615,5.1548,0.0,5.6615,5.7444,6.1534,6.4155,6.6652,6.9756,7.4283,7.8159,8.0048,8.3229,8.5563,8.5795,8.5828,8.6093,8.684,8.5699,8.5467,8.7021,8.7654,8.8268,8.9096,8.8566,8.8184,8.8184,8.8117,8.8102,8.8184,8.8732,8.9063,8.9162,8.9162,8.9162,8.9162,8.9924,8.9858,8.9195,9.0023,8.9924,8.9162,8.9328,8.9295,8.9162,8.9162,8.8732,8.8084,8.8084,8.7171,8.5761,8.5103,8.426,8.3498,8.3498,8.3068,8.2419,8.1658,8.1525,8.1525,8.0711,8.0054,7.9577,7.951,7.9014,7.8484,7.8484,7.898,7.9477,7.9477,8.0001,8.0479,8.0578,8.0578,8.0644,8.0777,8.081,8.1075,8.179,8.1227,8.0678,8.0611,7.9458,7.8616,7.8616,7.855,7.8451,7.8384,7.7855,7.7172,7.6245,7.5947,7.5165,7.3666,7.1599,6.9666,6.8021,6.6706,6.5392,6.4056,6.4122,6.3824,6.3161,6.3161,6.3227,6.3327,6.3957,6.3791,5.0865,5.0106,5.0414,5.2093,5.3621,5.5691,5.9503,6.1096,6.2775,6.6331,6.9512,7.2647,7.5993,7.9041,8.1544,8.3016,8.4918,8.6192,8.6192,8.6192,8.6144,8.603,8.5832,8.6295,8.7753,8.815,8.8599,8.9328,8.9526,8.9593,8.9593,8.9593,8.9758,9.0204,9.009,9.0255,9.0668,9.1099,9.1099,9.0701,9.143,9.1397,9.0701,9.0999,9.1198,9.1264,9.0421,9.052,9.1264,9.0388,8.9858,8.9493,8.8632,8.7952,8.7289,8.6177,8.5003,8.3943,8.3513,8.3148,8.2784,8.2022,8.2088,8.2287,8.1558,8.1128,8.0782,8.0352,8.0332,8.0332,7.9902,8.0332,8.0749,8.0332,8.0465,8.081,8.1241,8.134,8.1473,8.1903,8.197,8.2088,8.2386,8.1823,8.134,8.134,8.0087,7.9146,7.9146,7.8749,7.8484,7.8484,7.7835,7.7437,7.757,7.6775,7.6059,7.5463,7.3376,7.1521,7.0042,6.8572,6.7314,6.6275,6.6696,6.674,6.6431,6.6431,6.6662,6.706,6.6961,6.6729,5.1395,5.1479,5.2482,5.4915,5.7442,6.0235,6.3791,6.5955,6.8163,7.1521,7.4482,7.7464,8.0711,8.2519,8.401,8.5467,8.631,8.684,8.7039,8.6741,8.6211,8.55,8.5714,8.6376,8.7587,8.8268,8.8997,8.9939,9.0487,9.0785,9.0785,9.0984,9.1364,9.1876,9.1596,9.1662,9.2208,9.2738,9.2738,9.2208,9.2738,9.2638,9.1876,9.1479,9.1711,9.2307,9.0851,9.1017,9.2307,9.1017,9.052,9.0388,8.9328,8.8665,8.8169,8.7171,8.5846,8.454,8.3991,8.3678,8.338,8.2651,8.2916,8.338,8.2618,8.2254,8.2022,8.1691,8.1691,8.1724,8.1406,8.1691,8.1956,8.1426,8.1307,8.1473,8.1989,8.2254,8.2552,8.3115,8.338,8.3446,8.3248,8.2751,8.232,8.2121,8.1014,8.012,7.9921,7.9259,7.8782,7.8782,7.8133,7.7934,7.8451,7.7537,7.6808,7.6609,7.4953,7.3343,7.1864,7.0406,6.9169,6.823,6.8539,6.8617,6.8407,6.8407,6.8572,6.8904,6.875,6.8584,5.2961,5.3316,5.4551,5.9618,6.2024,6.4454,6.95,7.1256,7.3032,7.7338,7.8881,8.0153,8.2419,8.4043,8.5533,8.6973,8.7786,8.85,8.9195,8.8132,8.6973,8.6258,8.5567,8.5434,8.6192,8.815,8.9957,9.1412,9.1545,9.1578,9.1578,9.2241,9.2638,9.2671,9.3318,9.3716,9.3716,9.3749,9.3749,9.3716,9.3749,9.34,9.2638,9.1183,9.0933,9.1545,9.0056,9.0271,9.1578,9.0818,9.052,9.052,9.0454,8.956,8.8301,8.8235,8.7322,8.6126,8.6093,8.5647,8.489,8.4175,8.4426,8.489,8.4175,8.3446,8.3016,8.3711,8.2883,8.1956,8.2651,8.285,8.285,8.285,8.2817,8.285,8.285,8.3446,8.3943,8.3962,8.4525,8.4805,8.4109,8.3943,8.3678,8.2983,8.2221,8.1459,8.0777,8.0021,7.9577,7.9577,7.8914,7.8497,7.8484,7.8464,7.8133,7.7404,7.6642,7.5562,7.4163,7.2693,7.1223,6.9765,6.9048,6.8341,6.7622,6.7622,6.7291,6.6628,6.8042,6.8307,5.5918,5.8114,6.1096,6.5724,6.7612,6.9533,7.4158,7.5384,7.6411,7.9339,7.9391,7.9557,8.1757,8.2188,8.2983,8.5434,8.7208,8.8566,8.9295,8.8997,8.772,8.507,8.5382,8.5349,8.4123,8.6443,8.9027,9.1412,9.1611,9.2042,9.3003,9.3301,9.3434,9.3434,9.3649,9.3782,9.3782,9.4279,9.4279,9.3782,9.3782,9.3434,9.2671,9.2192,9.2093,9.2274,9.1297,9.1147,9.1578,9.1346,9.0933,9.052,9.052,8.9891,8.903,8.903,8.815,8.6855,8.6358,8.606,8.5714,8.497,8.489,8.5055,8.4805,8.4573,8.4407,8.4658,8.4705,8.4653,8.4407,8.4705,8.4985,8.4473,8.436,8.436,8.436,8.4558,8.4738,8.4738,8.4923,8.5022,8.4757,8.4738,8.4672,8.4407,8.3314,8.2254,8.1539,8.1227,8.0863,8.0366,7.9656,7.9014,7.855,7.8067,7.7868,7.81,7.6556,7.5409,7.4958,7.3508,7.2283,7.1289,7.1024,7.0759,7.0515,7.0515,7.0382,7.0151,7.0659,7.0759,6.0082,6.3217,6.6662,7.1024,7.2879,7.4502,7.7815,7.8776,7.9239,8.0134,7.9557,7.916,8.0067,7.9418,7.9982,8.3711,8.5037,8.6395,8.8665,8.8581,8.7389,8.507,8.5382,8.525,8.3811,8.5879,8.8265,9.065,9.1313,9.2141,9.3318,9.3914,9.4312,9.4577,9.4577,9.471,9.4975,9.5173,9.5074,9.4577,9.4312,9.3948,9.3451,9.2937,9.2705,9.2638,9.1629,9.1379,9.1578,9.1313,9.1099,9.09,9.09,9.0421,8.9758,8.9493,8.8647,8.7602,8.7105,8.6774,8.649,8.5747,8.5666,8.5832,8.5567,8.55,8.5533,8.5798,8.6045,8.6159,8.5931,8.6045,8.6093,8.56,8.5302,8.5088,8.5088,8.5302,8.55,8.55,8.5699,8.5798,8.5533,8.5254,8.5088,8.5088,8.4506,8.3825,8.3082,8.2519,8.1989,8.1539,8.0352,7.9411,7.8914,7.8232,7.8,7.8451,7.7219,7.6205,7.5675,7.4515,7.3409,7.2415,7.2138,7.2018,7.2018,7.227,7.2105,7.162,7.2415,7.2349,6.5216,6.8461,7.1256,7.545,7.757,7.8994,8.0479,8.1241,8.1227,7.9775,7.9279,7.8649,7.7239,7.5973,7.6781,8.1856,8.1757,8.2784,8.7819,8.737,8.649,8.6424,8.5798,8.5353,8.5254,8.6608,8.8033,8.9394,9.0834,9.2009,9.2837,9.4179,9.5273,9.6001,9.6001,9.6333,9.7045,9.6366,9.6001,9.6001,9.5306,9.4941,9.4842,9.3434,9.2738,9.2638,9.1183,9.0918,9.1479,9.0818,9.0966,9.1545,9.1578,9.1132,9.0421,8.9725,8.8963,8.8301,8.8301,8.7852,8.7171,8.649,8.6722,8.7153,8.6424,8.6192,8.6358,8.7054,8.6756,8.6358,8.712,8.6789,8.6258,8.6258,8.5714,8.5221,8.5221,8.578,8.6258,8.6258,8.6822,8.7087,8.6391,8.568,8.5221,8.5221,8.5813,8.5979,8.5268,8.3943,8.3049,8.295,8.1014,7.9676,7.961,7.8914,7.8484,7.8484,7.8484,7.7868,7.6411,7.5741,7.4714,7.3231,7.2548,7.215,7.2117,7.2813,7.2448,7.1123,7.3235,7.3069,6.9455,7.3363,7.6808,7.9007,7.9869,8.0531,8.1989,8.0796,7.9093,7.8166,7.4953,7.2018,7.109,7.1951,7.4337,7.8895,8.2983,8.7006,9.0999,9.128,9.065,8.9542,8.9228,8.8698,8.7572,8.8798,9.0072,9.0966,9.1909,9.3235,9.5074,9.5505,9.5803,9.5985,9.6001,9.6101,9.63,9.6101,9.6001,9.6001,9.5803,9.5438,9.4875,9.3948,9.3235,9.2638,9.1728,9.1099,9.0818,9.1165,9.1099,9.0834,9.1379,9.1132,9.0472,9.0288,8.9394,8.8301,8.8301,8.7852,8.7286,8.7087,8.7153,8.7153,8.6424,8.6192,8.6225,8.6424,8.6358,8.6358,8.712,8.7153,8.7021,8.7021,8.6873,8.6741,8.6741,8.6873,8.7021,8.7021,8.7186,8.7253,8.7054,8.6873,8.6741,8.6741,8.6906,8.6741,8.6012,8.5581,8.4952,8.3844,8.2221,8.0782,7.9676,7.8914,7.8484,7.8484,7.8484,7.8086,7.7172,7.694,7.6192,7.478,7.4548,7.4184,7.3633,7.3832,7.3732,7.3368,7.3931,7.3898,7.4158,7.7603,8.0233,8.1359,8.1889,8.1856,8.073,7.8961,7.6609,7.3297,7.0349,6.7844,6.6177,6.8175,7.1509,7.5894,8.1009,8.6012,9.0602,9.1529,9.1662,9.1496,9.1463,9.1132,9.0304,9.1249,9.2258,9.2987,9.3135,9.3848,9.5438,9.5836,9.63,9.6946,9.6333,9.6001,9.6001,9.6001,9.6001,9.6001,9.6001,9.577,9.5372,9.461,9.3881,9.3135,0.0,9.1662,9.0999,9.1446,9.1379,9.1032,9.1446,9.1132,9.052,9.052,8.9791,8.8765,8.8765,8.8548,8.815,8.7834,8.7304,8.6789,8.6722,8.6457,8.6192,8.6192,8.6424,8.6789,8.7186,8.7319,8.7319,8.7319,8.7319,8.7319,8.7319,8.7536,8.7819,8.8165,8.7952,8.772,8.772,8.7503,8.7319,8.7319,8.7319,8.7153,8.6756,8.6391,8.5614,8.4175,8.2684,8.1194,7.9709,7.8914,7.8484,7.8484,7.8484,7.8166,7.7437,7.7404,7.6874,7.5774,7.5741,7.5542,7.5111,7.5111,7.4979,7.4693,7.4979,7.4793,7.8729,8.1114,8.2353,8.2916,8.3446,8.2684,7.8133,7.6245,7.3628,6.7236,6.5613,6.4586,6.2068,6.4664,6.8726,7.3434,7.8027,8.3049,8.8997,9.0388,9.1381,9.2954,9.3069,9.3036,9.3135,9.3831,9.4511,9.514,9.4676,9.4577,9.5008,9.567,9.6598,9.789,9.6664,9.6001,9.6001,9.6001,9.6001,9.6001,9.6001,9.6001,9.5968,9.524,9.4544,9.3881,9.3069,0.0,9.1744,9.1644,9.1611,9.1611,9.1611,9.1132,9.0487,9.0388,8.9891,8.9262,8.9262,8.9262,8.9162,8.8599,8.762,8.6722,8.7271,8.6906,8.6358,8.6358,8.6756,8.7186,8.7286,8.737,8.7437,8.7437,8.7437,8.7437,8.7437,8.7885,8.85,8.9129,8.8831,8.84,8.8301,8.7885,8.7569,8.7569,8.7503,8.7437,8.7437,8.6789,8.5813,8.444,8.2983,8.1525,8.0153,7.9179,7.8663,7.8663,7.855,7.8219,7.757,7.7537,7.7205,7.6444,7.6444,7.6411,7.6311,7.6311,7.5993,7.5443,7.5927,7.5496,8.1412,8.3399,8.4407,8.3943,8.3446,8.179,7.6801,7.3223,6.9401,6.4056,6.0997,5.9175,5.8644,6.2057,6.6961,7.3202,7.8888,8.4771,9.1231,9.2241,9.3086,9.5173,9.4875,9.4743,9.5372,9.6101,9.6581,9.6714,9.7177,9.6946,9.5869,9.5935,9.6134,9.6366,9.6134,9.6001,9.6001,9.6001,9.6001,9.6001,9.6001,9.6001,9.5968,9.524,9.4842,9.4643,9.3301,0.0,9.2473,9.1843,9.1611,9.1611,9.1611,9.1132,9.0421,8.9825,8.9129,8.85,8.85,8.85,8.8566,8.9063,8.903,8.878,8.8283,8.7668,8.712,8.712,8.6756,8.6524,8.7153,8.7702,8.815,8.815,8.815,8.815,8.815,8.8217,8.8334,8.8467,8.8864,8.903,8.84,8.8698,8.903,8.903,8.8515,8.815,8.815,8.7536,8.6789,8.5927,8.4521,8.3281,8.2419,8.0518,7.9411,7.9411,7.8848,7.8418,7.8318,7.8318,7.7954,7.7239,7.7205,7.6907,7.6311,7.6311,7.6245,7.6125,7.5675,7.5356,8.2983,8.454,8.5401,8.4275,8.3148,8.0512,7.3455,6.9313,6.516,5.8899,5.6481,5.562,5.6008,6.0003,6.4918,6.9931,7.4734,8.0631,8.8762,8.9557,9.0982,9.5471,9.6035,9.6333,9.7078,9.7128,9.7426,9.8188,9.8205,9.7708,9.6614,9.6565,9.6399,9.6001,9.6349,9.6383,9.6001,9.6001,9.6001,9.6001,9.6001,9.6001,9.6001,9.5637,9.5273,9.4842,9.4146,0.0,9.2671,9.2307,9.1943,9.1611,9.1611,9.1132,9.0454,9.0123,8.9526,8.893,8.9295,8.9195,8.8997,8.9725,8.9228,8.825,8.79,8.7304,8.6722,8.6722,8.6756,8.6855,8.7219,8.7536,8.7786,8.7786,8.7786,8.7985,8.8698,8.8864,8.9096,8.9873,8.999,8.9858,8.9526,8.9427,8.9394,8.9394,8.9096,8.8732,8.8334,8.8018,8.7256,8.5765,8.5003,8.4128,8.2983,8.1227,8.0167,8.0167,7.9126,7.8484,7.8484,7.8484,7.8332,7.8,7.7967,7.7802,7.7437,7.7073,7.6874,7.6841,7.6159,7.5641,8.4043,8.5316,8.6078,8.4606,8.2784,7.9041,7.0241,6.5823,6.1572,5.4418,5.306,5.3491,5.4541,5.8303,6.2697,6.7137,7.0813,7.6357,8.5761,8.694,8.9159,9.5273,9.6664,9.7393,9.8122,9.7823,9.8055,9.9199,9.8602,9.794,9.736,9.7062,9.6598,9.6035,9.6548,9.6598,9.6001,9.6001,9.6001,9.6001,9.6001,9.6001,9.6001,9.6001,9.567,9.5107,9.4809,0.0,0.0,9.2605,9.2108,9.1611,9.1611,9.1132,9.0472,9.0306,8.9791,8.9262,8.9825,8.9659,8.9262,8.9858,8.9012,8.7735,8.7735,8.7238,8.6641,8.6641,8.694,8.7319,8.7319,8.7418,8.7503,8.7503,8.7635,8.8066,8.9162,8.9394,8.9725,9.09,9.0653,9.0255,9.0255,8.9924,8.9692,8.9858,8.9593,8.9195,8.8599,8.8135,8.7256,8.5732,8.5434,8.4871,8.3726,8.2102,8.1108,8.0943,7.9557,7.8649,7.853,7.8484,7.8484,7.8484,7.8484,7.8484,7.8484,7.7934,7.7636,7.7636,7.6874,7.6258,8.479,8.6078,8.684,8.5368,8.2372,7.749,6.8682,6.3957,5.9496,5.2855,5.2027,5.3111,5.5137,5.6968,6.05,6.7458,7.1123,7.6192,8.5065,8.7919,9.0818,9.5471,9.6664,9.7393,9.8122,9.8735,9.9132,9.9298,9.8602,9.8188,9.8105,9.683,9.6068,9.6001,9.6068,9.6068,9.6001,9.6001,9.6001,9.6001,9.6001,9.6001,9.6001,9.6001,9.5968,9.5836,9.4478,9.3815,0.0,9.2241,9.1644,9.1611,9.1611,9.1132,9.0421,8.9758,8.903,8.84,8.8467,8.8467,8.84,8.8467,8.8831,8.9195,8.9195,8.8698,8.8117,8.8117,8.772,8.7319,8.7319,8.7753,8.8202,8.8202,8.8698,8.9228,8.9361,8.9394,8.9427,8.956,8.956,8.9493,8.9493,8.999,9.0619,9.1313,9.0271,8.9394,8.9295,8.7602,8.659,8.7039,8.649,8.606,8.5927,8.3924,8.2419,8.1738,8.0319,7.9179,7.8517,7.8484,7.8484,7.8484,7.8484,7.8484,7.8484,7.8418,7.8384,7.8398,7.7636,7.7272,8.5084,8.7123,8.8117,8.6244,8.1989,7.6099,6.7721,6.2698,5.8038,5.191,5.1223,5.2382,5.4541,5.5412,5.7939,6.4387,6.5337,6.8738,7.8809,8.0247,8.3347,9.1712,9.3749,9.5604,9.8569,9.9132,9.9464,9.9877,9.9265,9.8867,9.8867,9.7028,9.62,9.6664,9.6217,9.6001,9.6001,9.6001,9.6001,9.6001,9.6001,9.6001,9.6001,9.6001,9.6001,9.5968,9.5372,9.461,0.0,9.3168,9.2406,9.1611,9.1611,9.1132,9.0421,8.9659,8.893,8.8367,8.8798,8.8415,8.7834,8.8698,8.8581,8.8117,8.8117,8.7919,8.7702,8.7702,8.7503,8.7319,8.7319,8.7503,8.7786,8.8217,8.8533,8.8864,8.9295,8.9758,9.0056,9.0056,9.0056,9.0189,9.0635,9.0586,9.0586,9.09,9.0834,9.0403,8.9526,8.8647,8.8084,8.7919,8.6873,8.6391,8.6822,8.4852,8.3645,8.3778,8.1989,8.0598,7.9836,7.9836,7.9391,7.8517,7.8484,7.8484,7.8484,7.8484,7.8484,7.8484,7.8186,7.7835,8.3891,8.6641,8.8051,8.631,8.1426,7.5086,6.7468,6.2179,5.7309,5.1678,5.109,5.2226,5.4144,5.4508,5.6372,6.2068,6.219,6.4962,7.4668,7.5873,7.9041,8.787,9.0204,9.2738,9.6946,9.8536,9.9596,10.0192,9.9679,9.9397,9.9596,9.7525,9.6465,9.6747,9.6266,9.6001,9.6001,9.6001,9.6001,9.6001,9.6001,9.6001,9.6001,9.6001,9.6001,9.5968,9.5538,9.4743,0.0,9.3334,9.2539,9.1578,9.1379,9.0966,9.0372,8.9427,8.8864,8.8665,8.8963,8.8415,8.7801,8.8997,8.8449,8.7337,8.7536,8.747,8.7319,8.7319,8.7602,8.7934,8.7934,8.8099,8.8265,8.8268,8.8467,8.8765,8.9295,8.9825,9.0255,9.0454,9.0306,9.0421,9.1132,9.0653,9.0255,9.0487,9.0569,9.0337,8.9493,8.903,8.8732,8.8632,8.737,8.6656,8.6954,8.5335,8.436,8.4426,8.2784,8.1473,8.0744,8.0711,8.0101,7.8848,7.8815,7.8716,7.8484,7.8484,7.8484,7.8484,7.8484,7.8232,8.0829,8.3991,8.606,8.5302,8.0683,7.4589,6.7986,6.2566,5.7442,5.2325,5.1861,5.2813,5.4243,5.4508,5.6173,6.1382,6.3979,6.7678,7.4349,7.7735,8.0934,8.4724,8.6476,8.8762,9.2406,9.6714,9.9596,10.0192,9.9679,9.9596,10.0308,9.8237,9.6763,9.6035,9.6001,9.6001,9.6001,9.6001,9.6001,9.6001,9.6001,9.6001,9.6001,9.6001,9.6001,9.5935,9.4445,9.3815,0.0,9.2208,9.1611,9.1545,9.0785,9.052,9.0306,8.8864,8.8765,8.9295,8.8566,8.8301,8.84,8.9162,8.8449,8.7403,8.8084,8.7819,8.7319,8.7319,8.8283,8.9394,8.9394,8.9924,9.0123,8.8632,8.8864,8.9394,8.9394,8.9394,8.9626,9.0355,8.9924,8.9659,9.0372,8.9891,8.9659,9.0388,8.9262,8.8599,8.9295,8.8184,8.7867,8.9228,8.8132,8.7021,8.6258,8.55,8.4459,8.3016,8.2235,8.1473,8.0744,8.0711,8.0366,7.961,7.9577,7.9212,7.8484,7.8484,7.8484,7.8484,7.8484,7.8484,7.5476,7.8358,7.9769,7.8093,7.4349,6.9633,6.4089,6.039,5.6855,5.2259,5.1903,5.2681,5.359,5.4574,5.7101,6.2797,6.5094,6.7931,7.3078,7.6709,8.0584,8.5283,9.1976,9.6631,9.779,9.9149,10.0109,10.0308,10.0109,9.9645,9.89,9.8205,9.7741,9.7509,9.6532,9.6001,9.6001,9.6001,9.6001,9.6001,9.6001,9.6001,9.6001,9.6001,9.5736,9.524,9.4743,0.0,0.0,9.2539,9.2042,9.1545,9.0785,9.052,9.0372,8.9427,8.9195,8.9427,8.9725,8.946,8.9162,8.9924,8.9493,8.868,8.8367,8.7819,8.7403,8.7852,8.903,9.0156,9.0156,9.0321,9.052,9.0536,9.037,9.0156,9.0156,9.0569,9.0834,9.0553,9.0321,9.0388,9.1132,9.0619,9.0056,8.9791,8.9791,8.9526,8.8765,8.825,8.8349,8.9295,8.8117,8.7403,8.762,8.6097,8.5136,8.515,8.3976,8.2983,8.2221,8.2188,8.1624,8.0366,7.9855,7.9477,7.9245,7.8749,7.8484,7.8484,7.8484,7.8484,7.0063,7.3276,7.4688,7.362,7.0804,6.7016,6.2202,5.9164,5.6292,5.2491,5.2093,5.2581,5.3292,5.4376,5.6661,6.1162,6.3802,6.6751,7.0858,7.5284,8.0219,8.596,9.3036,9.7658,9.8221,9.9281,9.991,9.991,9.991,9.943,9.8254,9.794,9.7774,9.7774,9.6631,9.6001,9.6001,9.6001,9.6001,9.6001,9.6001,9.6001,9.6001,9.5703,9.5339,9.4875,9.4312,0.0,0.0,9.2093,9.1596,9.1099,9.0355,9.0074,9.0023,8.956,8.9593,8.9891,9.0355,9.0189,8.9957,9.0701,9.0421,8.9692,8.893,8.825,8.7934,8.9177,9.0204,9.105,9.158,9.1746,9.1794,9.1976,9.1463,9.0933,9.0933,9.1066,9.1132,9.0951,9.0933,9.1066,9.1512,9.0999,9.0355,8.9891,8.9725,8.9427,8.8798,8.8467,8.8566,8.9328,8.8382,8.7852,8.8268,8.6593,8.5482,8.5382,8.4506,8.3678,8.2916,8.2883,8.232,8.1141,8.065,8.0286,8.0021,7.9279,7.8749,7.853,7.8782,7.8914,0.0,6.8163,7.0196,7.0759,6.8859,6.5734,6.1572,5.8502,0.0,5.2955,5.2391,5.2647,5.3491,5.4144,5.5412,5.8005,6.1295,6.4818,6.8485,7.427,8.0531,8.6973,9.1015,9.3716,9.4941,9.7674,9.9364,9.9298,9.9298,9.8983,9.8155,9.7459,9.7095,9.7012,9.6366,9.6001,9.6001,9.6001,9.6001,9.6001,9.6001,9.6001,9.5968,9.524,9.4875,0.0,0.0,0.0,0.0,9.105,9.052,9.0421,8.9692,8.946,8.956,8.9493,8.9957,9.0586,9.0586,9.0586,9.0686,9.1297,9.1032,9.0306,8.9659,8.8963,8.8798,9.0949,9.1611,9.2009,9.3434,9.3782,9.3616,9.2937,9.2208,9.1644,9.1611,9.1099,9.0851,9.1479,9.1611,9.1578,9.1545,9.0951,9.0472,9.0438,8.9195,8.8533,8.9228,8.8665,8.85,8.9228,8.8665,8.825,8.8301,8.7006,8.5581,8.4175,8.4043,8.3678,8.2916,8.2883,8.2585,8.1889,8.1823,8.1406,8.0611,7.9988,7.9279,7.8583,7.9345,7.9676,0.0,0.0,6.1483,6.0533,5.9761,5.8701,0.0,5.5502,5.4517,5.2747,5.2391,5.312,5.5497,5.561,5.7356,6.346,6.5182,6.7236,7.1488,7.9518,8.6774,9.1711,9.5968,9.8022,9.6714,9.8685,9.9844,9.9331,9.9298,9.8735,9.7426,9.7177,9.6846,9.63,9.6101,9.6001,9.6001,9.6001,9.6001,9.6001,9.6001,9.6001,9.5968,9.524,9.4577,0.0,0.0,0.0,9.0984,9.0653,9.052,9.0421,8.9692,9.0105,9.0999,9.0454,9.0719,9.1331,9.1331,9.1331,9.128,9.09,9.0255,8.9725,9.0123,8.9725,8.9361,9.0454,9.1562,9.2638,9.355,9.3782,9.3749,9.3583,9.3003,9.2307,9.1711,9.1909,9.2059,9.1677,9.1611,9.1412,9.0867,9.0619,9.0321,8.9758,8.8864,8.8367,8.8533,8.7952,8.7801,8.8482,8.7919,8.772,8.8268,8.7006,8.5813,8.489,8.4293,8.3678,8.2916,8.2883,8.2817,8.2651,8.2088,8.1161,7.9855,8.0266,8.0067,7.9345,8.0101,8.0432,0.0,5.2961,5.6703,5.5885,5.5942,5.5918,5.4773,5.3987,5.3301,5.2557,5.2391,5.2979,5.4825,5.5677,5.7631,6.2268,6.4973,6.8991,7.6092,8.2997,8.9159,9.4213,9.7177,9.8767,9.8569,9.9347,9.9563,9.8851,9.847,9.779,9.6648,9.6598,9.6432,9.6001,9.6001,9.6001,9.6001,9.6001,9.6001,9.6001,9.6001,9.5836,9.5471,9.4743,9.3981,0.0,0.0,0.0,9.0454,8.9791,8.9692,8.9957,8.956,8.9891,9.0635,9.09,9.1032,9.1099,9.1099,9.1099,9.1099,9.1032,9.0966,9.1066,9.1779,9.1496,9.0999,9.1397,9.2093,9.297,9.4014,9.4312,9.4378,9.4743,9.4246,9.3599,9.3202,9.2903,9.2572,9.2174,9.1562,9.1066,9.1032,9.0719,9.0487,9.0436,8.9758,8.9295,8.9295,8.8415,8.7885,8.8268,8.7702,8.7437,8.7819,8.7138,8.6376,8.5647,8.525,8.4521,8.3446,8.3413,8.3248,8.2916,8.2519,8.1757,8.0617,8.0995,8.0829,8.012,8.0498,8.0876,4.8398,5.1503,5.4574,5.4111,5.4641,5.5071,5.4352,5.3277,5.2391,5.2391,5.2491,5.2979,5.4319,5.6017,5.8015,6.049,6.5083,7.1707,8.1426,8.578,8.9955,9.5372,9.6946,9.8171,9.9662,9.948,9.9,9.8254,9.7525,9.678,9.6035,9.6001,9.6001,9.6001,9.5902,9.5836,9.5836,9.5836,9.5836,9.5836,9.5736,9.5339,9.471,9.3981,9.3219,9.2473,0.0,0.0,9.0056,8.8831,8.8665,8.9228,8.9361,8.9394,8.956,9.0933,9.0966,9.0321,9.0321,9.0421,9.0619,9.1231,9.2009,9.2837,9.3434,9.3252,9.287,9.287,9.287,9.3186,9.4544,9.4908,9.5074,9.567,9.5339,9.4842,9.461,9.3649,9.2804,9.2572,9.1529,9.0818,9.1331,9.0918,9.0719,9.1331,9.0785,9.0388,9.0487,8.9295,8.8467,8.8467,8.7952,8.7602,8.7602,8.7503,8.7171,8.6542,8.6225,8.5382,8.391,8.3844,8.3546,8.2916,8.2883,8.2552,8.179,8.1889,8.1638,8.1042,8.1141,8.1539,5.027,5.3069,5.4839,5.2382,5.2771,5.3557,5.2879,5.2557,5.2391,5.2391,5.2837,5.4617,5.9088,5.9684,6.1815,6.8837,7.3728,7.916,8.6281,8.9409,9.2208,9.5604,9.8237,9.9231,9.7741,9.8635,9.9,9.8254,9.7525,9.678,9.6035,9.6001,9.6001,9.6001,9.5405,9.5074,9.5074,9.5074,9.5074,9.5074,9.4445,9.408,9.3948,9.3202,9.2473,9.1711,0.0,8.9791,8.8599,8.84,8.8367,8.8533,8.9162,8.9394,8.9493,9.0355,9.0189,8.956,8.956,8.999,9.052,9.0619,9.1596,9.2738,9.2821,9.3235,9.3616,9.3616,9.3616,9.3815,9.4676,9.4908,9.4941,9.5041,9.4975,9.4544,9.3318,9.3367,9.3252,9.2009,9.1578,9.1264,9.0752,9.0586,9.0553,9.0653,9.0056,8.9791,9.0421,8.9758,8.9228,8.9228,8.9129,8.9063,8.9063,8.8515,8.8117,8.7985,8.6262,8.4606,8.3148,8.3082,8.3016,8.2883,8.2883,8.2552,8.179,8.2419,8.2684,8.2585,8.3215,8.3546,4.8738,5.1057,5.3235,0.0,0.0,5.5388,5.3897,5.3235,5.3277,5.4479,5.4967,5.6415,6.038,6.2765,6.6872,7.533,8.0034,8.4109,8.8301,9.0801,9.3301,9.625,9.7409,9.8221,9.8767,9.8387,9.8138,9.8221,9.7128,9.6366,9.6035,9.5637,9.5604,9.6001,9.4908,9.4511,9.4908,9.4113,9.3914,9.4312,9.3948,9.3583,9.3202,9.287,9.2093,9.0966,0.0,8.9295,8.8268,8.7919,8.7985,8.8367,8.9096,8.9162,8.8897,8.9626,8.9692,8.9526,9.0304,9.0553,9.0719,9.1878,9.2755,9.3434,9.4246,9.471,9.5008,9.5008,9.471,9.4478,9.4809,9.4908,9.4908,9.4908,9.461,9.4113,9.3434,9.3268,9.3003,9.234,9.1562,9.1032,9.1099,9.0752,9.0653,9.1032,9.0801,9.0701,9.1066,9.0454,8.999,8.999,8.9626,8.9394,8.9394,8.9096,8.8581,8.7801,8.6461,8.5202,8.4142,8.4109,8.391,8.3513,8.391,8.391,8.3579,8.391,8.4109,8.4109,8.4043,8.4194,4.8564,5.0187,5.2283,0.0,0.0,5.6746,5.6604,0.0,0.0,0.0,5.8744,5.9605,6.2378,6.7137,7.3032,8.0313,8.4985,8.853,9.0851,9.2821,9.4891,9.7327,9.7128,9.7558,9.9612,9.8188,9.7327,9.7906,9.673,9.5935,9.577,9.5206,9.5074,9.5471,9.4213,9.3815,9.4378,9.3102,9.2804,9.3533,9.3367,9.3003,9.244,9.244,9.1629,9.0222,8.9659,8.8897,8.8018,8.7503,8.7602,8.815,8.8864,8.8798,8.8334,8.878,8.9129,8.9526,9.0502,9.09,9.1282,9.2987,9.3798,9.4312,9.5604,9.6001,9.6001,9.6001,9.5471,9.4941,9.5107,9.5041,9.4908,9.4908,9.4345,9.3749,9.3583,9.3219,9.287,9.2506,9.1662,9.1149,9.1545,9.1132,9.0951,9.1512,9.1611,9.1611,9.1611,9.1099,9.0752,9.0752,9.0255,8.9858,8.9659,8.9659,8.9045,8.7635,8.6689,8.5879,8.5121,8.5088,8.4757,8.401,8.4724,8.5022,8.4823,8.5022,8.5188,8.5335,8.4771,8.4805,5.2852,5.3614,5.3614,5.5128,5.4607,0.0,6.1295,6.05,0.0,6.3924,0.0,6.5481,6.7756,7.4515,8.0644,8.3314,8.8515,9.3219,9.6151,9.7277,9.8138,9.9033,9.9099,9.8867,9.842,9.7592,9.7111,9.7194,9.6465,9.5703,9.5008,9.4941,9.461,9.3981,9.3202,9.2804,9.287,9.2075,9.2042,9.2771,9.2075,9.1744,9.1677,9.1677,9.0867,8.9493,8.9427,8.8647,8.737,8.7319,8.7352,8.7437,8.8117,8.8334,8.8235,8.7668,8.8283,8.9328,8.8732,9.0304,9.2572,9.2738,9.3716,9.4975,9.577,9.6001,9.6001,9.6001,9.5471,9.5074,9.5736,9.5405,9.4908,9.4908,9.4345,9.3616,9.2937,9.3301,9.3334,9.1943,9.2141,9.234,9.1711,9.1545,9.1545,9.1578,9.1611,9.1611,9.1611,9.1545,9.1512,9.1512,9.1479,9.1165,9.0487,9.0421,8.9791,8.8301,8.694,8.5879,8.5121,8.5088,8.4757,8.401,8.4724,8.4757,8.4076,8.4757,8.5434,8.6126,8.606,8.606,5.0145,5.2223,5.4442,5.5918,5.7233,0.0,0.0,6.2444,6.4056,6.8009,6.9554,7.1144,7.4225,7.8014,8.1989,8.6016,9.0436,9.4411,9.7376,9.8403,9.8967,9.9265,9.8503,9.7989,9.8188,9.7128,9.6614,9.7078,9.6001,9.5206,9.4908,9.4014,9.3616,9.3782,9.2638,9.2241,9.2705,9.1976,9.1512,9.1315,9.1496,9.1611,9.1578,9.1132,9.0619,9.0023,8.9096,8.8415,8.7885,8.747,8.7319,8.7352,8.7569,8.7919,8.8301,8.8548,8.893,8.956,9.0668,9.1463,9.2241,9.3616,9.3815,9.3848,9.5505,9.5372,9.4809,9.5736,9.5471,9.4975,9.524,9.4411,9.3517,9.3517,9.297,9.2373,9.2075,9.2241,9.2406,9.2307,9.2141,9.2075,9.2241,9.1909,9.1611,9.1611,9.1611,9.1611,9.1611,9.1611,9.1611,9.1611,9.1611,9.1479,9.1198,9.0752,9.0255,8.9692,8.8316,8.7006,8.5846,8.6211,8.5898,8.4691,8.5401,8.5415,8.4691,8.4956,8.5467,8.6192,8.5747,8.5747,4.8754,5.07,5.3325,0.0,0.0,0.0,6.3957,6.6077,6.8859,7.3707,7.4933,7.598,7.8696,8.0598,8.3181,8.7572,9.1794,9.5339,9.784,9.8635,9.8867,9.8635,9.7724,9.7227,9.7476,9.6598,9.6101,9.6399,9.5471,9.471,9.4213,9.3036,9.2572,9.3102,9.1662,9.1264,9.1993,9.1496,9.09,9.0156,9.09,9.1231,9.1231,9.0966,9.0586,9.009,8.9096,8.8415,8.7952,8.7503,8.7319,8.7319,8.7319,8.7702,8.8334,8.8647,8.9162,8.9891,9.0933,9.1297,9.1496,9.302,9.2987,9.2738,9.471,9.461,9.4047,9.5306,9.5107,9.4544,9.4544,9.3782,9.3069,9.3069,9.2307,9.1644,9.1909,9.2141,9.2373,9.2638,9.2473,9.2307,9.234,9.1943,9.1611,9.1611,9.1611,9.1611,9.1611,9.1611,9.1611,9.1611,9.1611,9.1611,9.1611,9.1132,9.0752,9.0505,8.956,8.8349,8.6906,8.7138,8.6708,8.5467,8.6177,8.6177,8.5434,8.5666,8.6045,8.6524,8.6045,8.6063,5.0004,4.9673,5.0013,5.3614,0.0,0.0,7.0229,7.2051,7.4105,8.1426,8.118,7.9875,8.0611,8.2552,8.497,8.7837,9.2607,9.6498,9.7973,9.8188,9.7906,9.7177,9.7078,9.678,9.6051,9.5985,9.5703,9.4941,9.4875,9.4246,9.2771,9.1976,9.1578,9.1578,9.0171,8.9758,9.0472,9.0487,9.0123,8.9394,9.0156,9.0487,9.0505,9.1231,9.0767,8.9394,8.9394,8.8581,8.7304,8.7319,8.7319,8.7319,8.7319,8.7702,8.8217,8.7536,8.8647,9.0288,8.8831,8.9262,9.0487,9.052,9.0999,9.1876,9.3367,9.3782,9.3948,9.471,9.4378,9.3782,9.3815,9.3815,9.3782,9.3782,9.2671,9.181,9.2539,9.3252,9.3566,9.2837,9.3301,9.3334,9.1876,9.1611,9.1611,9.1611,9.1611,9.1611,9.1611,9.1611,9.1611,9.1611,9.1611,9.1611,9.1611,9.1611,9.1297,9.0553,9.052,8.9858,8.8367,8.7668,8.6954,8.6225,8.6921,8.6921,8.6192,8.6921,8.7271,8.7286,8.7271,8.7271,5.0534,5.1892,5.4177,5.6282,6.1516,6.7557,7.3057,7.4316,0.0,0.0,8.4275,8.3711,8.4421,8.5515,8.694,8.8765,9.2093,9.514,9.7161,9.7426,9.736,9.7128,9.6648,9.6233,9.6035,9.5538,9.514,9.4908,9.3948,9.2937,9.1976,9.1231,9.0586,9.0056,8.9626,8.9526,8.9725,8.9725,8.9361,8.8632,8.9361,8.9725,8.9725,8.9442,8.9343,8.9328,8.8349,8.7967,8.7985,8.7503,8.7319,8.7319,8.7319,8.7702,8.8283,8.8084,8.8732,8.9659,8.9228,8.9361,8.9891,9.0933,9.1412,9.1976,9.3981,9.3848,9.34,9.5173,9.4776,9.4047,9.5074,9.4577,9.3649,9.3153,9.2307,9.1644,9.1876,9.2108,9.234,9.2638,9.2473,9.2274,9.2373,9.1943,9.1611,9.1611,9.1611,9.1611,9.1611,9.1611,9.1611,9.1611,9.1611,9.1611,9.1611,9.1611,9.1512,9.1297,9.0785,8.9858,8.8367,8.8117,8.7422,8.6225,8.6424,8.6144,8.5434,8.5666,8.6012,8.6524,8.5997,8.6045,5.1181,5.3093,5.5998,5.9496,6.4796,7.0738,7.6934,7.9233,8.1487,8.6443,8.6892,8.6693,8.772,8.8033,8.8714,9.0436,9.2689,9.4809,9.6416,9.6648,9.6648,9.6648,9.6266,9.5902,9.5604,9.5173,9.4643,9.408,9.2937,9.1943,9.1198,9.0189,8.9427,8.8963,8.8415,8.8283,8.8548,8.8581,8.8349,8.7919,8.8599,8.8798,8.8581,8.8665,8.8831,8.8897,8.7801,8.7536,8.7852,8.747,8.7319,8.7319,8.7319,8.7702,8.8268,8.7985,8.8349,8.893,8.8647,8.8581,8.8747,8.9906,9.0469,9.1066,9.3003,9.297,9.2605,9.4213,9.4047,9.3566,9.4445,9.4014,9.3318,9.3168,9.234,9.1677,9.1976,9.2042,9.2174,9.2605,9.234,9.2075,9.2241,9.1876,9.1611,9.1611,9.1611,9.1611,9.1611,9.1611,9.1611,9.1611,9.1611,9.1611,9.1611,9.1611,9.1611,9.1611,9.1165,9.0403,8.9228,8.8599,8.7786,8.6656,8.6656,8.6409,8.5964,8.6229,8.6461,8.6623,8.6461,8.6461,5.2226,5.3864,5.6561,6.3096,6.7777,7.2991,8.1293,8.5382,8.7768,8.9129,8.903,8.9096,9.0454,9.0255,9.0553,9.2556,9.4014,9.514,9.5803,9.5902,9.5869,9.5803,9.5869,9.5604,9.4875,9.4676,9.4047,9.2705,9.1843,9.1066,9.0355,8.8963,8.8202,8.8202,8.6906,8.6557,8.7271,8.7319,8.7319,8.7304,8.7919,8.7885,8.7337,8.8614,8.8831,8.8184,8.7569,8.7319,8.7319,8.7319,8.7319,8.7319,8.7319,8.7702,8.8217,8.7536,8.772,8.8217,8.7536,8.7319,8.7403,8.815,8.8897,8.9791,9.1247,9.1711,9.1843,9.2605,9.2738,9.2738,9.287,9.2804,9.2903,9.3616,9.2671,9.1777,9.2473,9.2605,9.2605,9.2605,9.2605,9.2406,9.1711,9.1611,9.1611,9.1611,9.1611,9.1611,9.1611,9.1611,9.1611,9.1611,9.1611,9.1611,9.1611,9.1611,9.1611,9.1611,9.1611,9.1264,9.0553,8.9195,8.8184,8.7503,8.7437,8.7403,8.7503,8.8051,8.7985,8.7418,8.8018,8.7952,5.5331,5.7243,6.0258,6.6265,7.309,7.9617,8.4403,8.684,8.8349,8.9228,9.0668,9.1828,9.2159,9.3053,9.3881,9.4345,9.4676,9.4975,9.5107,9.514,9.4908,9.4345,9.4776,9.4842,9.4113,9.3003,9.2174,9.1876,9.0602,8.956,8.8798,8.7952,8.7503,8.7503,8.6656,8.6557,8.7271,8.7319,8.7319,0.0,8.7437,8.7437,8.7304,8.7602,8.7668,8.7503,8.7337,8.7319,8.7319,8.7319,8.7319,8.7319,8.7319,8.7702,8.8217,8.7536,8.772,8.8217,8.7536,8.7319,8.7503,8.878,8.9659,9.0553,9.2026,9.2473,9.2638,9.3367,9.3168,9.297,9.4113,9.3566,9.2903,9.3616,9.2671,9.1644,9.181,9.1843,9.1843,9.1843,9.1843,9.1777,9.1644,9.1611,9.1611,9.1611,9.1611,9.1611,9.1611,9.1611,9.1611,9.1611,9.1611,9.1611,9.1611,9.1611,9.1611,9.1611,9.1611,9.1264,9.0553,9.0189,8.9692,8.8963,8.8382,8.8382,8.893,8.85,8.8235,8.8084,8.8235,8.7952,5.6458,5.9605,6.4078,7.2394,7.8378,8.3063,8.606,8.7521,8.8599,8.9692,9.1397,9.2804,9.3168,9.3848,9.4378,9.4378,9.4378,9.4378,9.4378,9.4378,9.4213,9.3848,9.4146,9.3948,9.287,9.2042,9.1147,9.0105,8.9012,8.8051,8.7337,8.6627,8.6229,8.6229,8.5548,8.568,8.6756,8.6078,8.6244,8.7319,8.6954,8.6954,8.7319,8.7319,8.7319,8.7319,8.7319,8.7319,8.7319,8.7319,8.7319,8.7319,8.7319,8.7503,8.7786,8.7437,8.7503,8.7753,8.7403,8.7319,8.7536,8.8945,8.9659,9.0255,9.1744,9.2174,9.2241,9.2638,9.2473,9.234,9.3135,9.2738,9.2274,9.2671,9.2174,9.1611,9.1611,9.1611,9.1611,9.1611,9.1611,9.1611,9.1611,9.1611,9.1611,9.1611,9.1611,9.1611,9.1611,9.1611,9.1611,9.1611,9.1611,9.1611,9.1611,9.1611,9.1611,9.1611,9.1611,9.1446,9.1032,9.1032,9.052,8.9427,8.903,8.903,8.9394,8.8997,8.8632,8.8301,8.8301,8.7952,5.6491,6.1593,6.8187,7.8524,8.2651,8.4738,8.6807,8.7819,8.8732,9.0189,9.1662,9.2903,9.3484,9.3716,9.3782,9.3782,9.3683,9.3616,9.3616,9.3616,9.3533,9.3252,9.3451,9.3003,9.1379,9.1114,9.0204,8.8283,8.737,8.6641,8.6045,8.5302,8.4956,8.5088,8.4374,8.4639,8.5979,8.4805,8.5103,8.6906,8.631,8.6443,8.7319,8.7186,8.7186,8.7319,8.7319,8.7319,8.7319,8.7319,8.7319,8.7319,8.7319,8.7319,8.7319,8.7319,8.7319,8.7319,8.7319,8.7385,8.7702,8.8963,8.9493,8.9825,9.118,9.1611,9.1611,9.1611,9.1611,9.1644,9.1744,9.1711,9.1644,9.1744,9.1677,9.1611,9.1611,9.1611,9.1611,9.1611,9.1611,9.1611,9.1611,9.1611,9.1611,9.1611,9.1611,9.1611,9.1611,9.1611,9.1611,9.1611,9.1611,9.1611,9.1611,9.1611,9.1611,9.1611,9.1611,9.1611,9.1611,9.1611,9.1048,8.9791,8.9659,8.9659,8.9758,8.9659,8.9195,8.85,8.85,8.8117,5.5994,6.378,7.2846,8.0664,8.3811,8.5368,8.694,8.7819,8.8732,9.0189,9.1662,9.2738,9.2837,9.3351,9.3782,9.3782,9.3252,9.2837,9.2837,9.2837,9.2358,9.1083,9.2059,9.2026,8.9891,8.9129,8.8382,8.7503,8.6163,8.5353,8.5268,8.454,8.4426,8.5088,8.4374,8.4407,8.5235,8.507,8.5088,8.5401,8.5302,8.5964,8.7271,8.6656,8.6689,8.7319,8.7319,8.7319,8.7319,8.7319,8.7319,8.7319,8.7319,8.7319,8.7319,8.7319,8.7319,8.7319,8.7319,8.7702,8.8316,8.9129,8.9825,9.052,9.1346,9.1611,9.1611,9.1611,9.1611,9.1744,9.2406,9.2075,9.1744,9.2406,9.2075,9.1611,9.1611,9.1611,9.1611,9.1611,9.1611,9.1611,9.1611,9.1611,9.1611,9.1611,9.1611,9.1611,9.1611,9.1611,9.1611,9.1611,9.1611,9.1611,9.1611,9.1611,9.1611,9.1611,9.1611,9.1611,9.1611,9.1611,9.1512,9.1313,9.0701,9.0653,9.1313,9.0653,8.999,8.9262,8.9262,8.8864,6.0523,6.6684,7.3144,8.0465,8.3082,8.4374,8.6244,8.7536,8.8467,8.9129,9.009,9.1231,9.2473,9.2638,9.2572,9.2572,9.2307,9.1943,9.1529,9.1463,9.105,9.0023,9.0454,9.0171,8.8382,8.8283,8.7687,8.6163,8.5832,8.5382,8.454,8.4175,8.4142,8.4459,8.3778,8.3943,8.5088,8.426,8.4061,8.4506,8.489,8.5235,8.5434,8.5533,8.6211,8.7319,8.7319,8.7319,8.7319,8.7319,8.7319,8.7319,8.7319,8.7319,8.7319,8.7319,8.7319,8.7319,8.7319,8.7503,8.7919,8.903,8.9626,9.009,9.1247,9.1611,9.1611,9.1611,9.1611,9.1677,9.2009,9.1843,9.1677,9.2009,9.1843,9.1611,9.1611,9.1611,9.1611,9.1611,9.1611,9.1611,9.1611,9.1611,9.1611,9.1611,9.1611,9.1611,9.1611,9.1611,9.1611,9.1611,9.1611,9.1611,9.1611,9.1611,9.1611,9.1611,9.1611,9.1611,9.1611,9.1611,9.1611,9.1611,9.1264,9.128,9.1611,9.0436,8.9924,8.999,8.878,8.825,6.25,6.6971,7.1123,7.7881,8.1128,8.3148,8.5184,8.6741,8.7885,8.8235,8.8732,8.9626,9.1264,9.1446,9.1379,9.1578,9.1611,9.1331,9.0619,9.052,9.0156,8.9228,8.9129,8.8647,8.7403,8.7587,8.709,8.55,8.5548,8.515,8.4076,8.3811,8.3711,8.3711,8.3181,8.3446,8.4525,8.3446,8.3281,8.401,8.4374,8.4459,8.4293,8.4658,8.5533,8.6741,8.694,8.712,8.7319,8.7319,8.7319,8.7319,8.7319,8.7319,8.7319,8.7319,8.7319,8.7319,8.7319,8.7403,8.7735,8.878,8.9361,8.9891,9.0999,9.1446,9.1611,9.1611,9.1611,9.1611,9.1611,9.1611,9.1611,9.1611,9.1611,9.1611,9.1611,9.1611,9.1611,9.1611,9.1611,9.1611,9.1611,9.1611,9.1611,9.1611,9.1611,9.1611,9.1611,9.1611,9.1611,9.1611,9.1611,9.1611,9.1611,9.1611,9.1611,9.1611,9.1611,9.1611,9.1611,9.1611,9.1611,9.1611,9.1611,9.1611,9.1611,9.0502,9.0156,9.0454,8.8846,8.8382,5.8048,6.24,6.6938,7.2237,7.7749,8.2254,8.3778,8.525,8.6674,8.8003,8.8334,8.84,8.85,8.9626,9.0785,9.1479,9.1611,9.1331,9.0619,9.052,8.9957,8.8533,8.8367,8.8084,8.737,8.6689,8.6258,8.6159,8.4885,8.4076,8.401,8.3347,8.295,8.295,8.2916,8.295,8.3016,8.295,8.3281,8.401,8.3314,8.3745,8.5022,8.436,8.4473,8.5254,8.5946,8.6656,8.7319,8.7319,8.7319,8.7319,8.7319,8.7319,8.7319,8.7319,8.7319,8.7319,8.7319,8.7735,8.8268,8.8334,8.9295,9.0454,9.0553,9.1066,9.1611,9.1611,9.1611,9.1611,9.1611,9.1611,9.1611,9.1611,9.1611,9.1611,9.1611,9.1611,9.1611,9.1611,9.1611,9.1611,9.1611,9.1611,9.1611,9.1611,9.1611,9.1611,9.1611,9.1611,9.1611,9.1611,9.1611,9.1611,9.1611,9.1611,9.1611,9.1611,9.1611,9.1611,9.1611,9.1611,9.1611,9.1611,9.1611,9.1611,9.1611,9.1512,9.1132,9.052,9.0388,9.0355,5.7243,6.0357,6.4089,7.0163,7.4681,7.8391,8.1241,8.3394,8.507,8.6063,8.6627,8.7238,8.8135,8.9129,8.9725,8.9509,8.9873,8.9939,8.9195,8.8714,8.8051,8.7072,8.6527,8.5964,8.5235,8.5368,8.5302,8.4805,8.4308,8.3811,8.3314,8.2585,8.2188,8.2188,8.2188,8.2188,8.2188,8.2651,8.2784,8.2585,8.2784,8.2916,8.2983,8.3215,8.3446,8.3745,8.497,8.5912,8.6623,8.7105,8.7319,8.7319,8.7319,8.7319,8.7319,8.7319,8.7319,8.7319,8.7319,8.747,8.7735,8.815,8.8665,8.9262,9.0222,9.0686,9.0999,9.1479,9.1611,9.1611,9.1611,9.1611,9.1611,9.1611,9.1611,9.1611,9.1611,9.1611,9.1611,9.1611,9.1611,9.1611,9.1611,9.1611,9.1611,9.1611,9.1611,9.1611,9.1611,9.1611,9.1611,9.1611,9.1611,9.1611,9.1611,9.1611,9.1611,9.1611,9.1611,9.1611,9.1611,9.1611,9.181,9.2307,9.1843,9.1611,9.1611,9.1132,9.0999,9.1165,9.0222,8.9791,5.5719,5.8138,6.1516,6.7832,7.109,7.4038,7.9173,8.1081,8.2273,8.401,8.4937,8.5747,8.6693,8.7473,8.8102,8.8599,8.9096,8.9129,8.84,8.772,8.7021,8.6292,8.5335,8.4639,8.4393,8.4606,8.4525,8.4043,8.401,0.0,8.2585,8.2287,8.2069,8.1804,8.1558,8.1426,8.1426,8.2154,8.2287,8.179,8.2552,8.2651,8.2188,8.2684,8.2883,8.2983,8.4194,8.5268,8.6258,8.7021,8.7319,8.7319,8.7319,8.7319,8.7319,8.7319,8.7319,8.7319,8.7319,8.7319,8.737,8.7819,8.8117,8.8533,8.9758,9.0306,9.0653,9.1397,9.1611,9.1611,9.1611,9.1611,9.1611,9.1611,9.1611,9.1611,9.1611,9.1611,9.1611,9.1611,9.1611,9.1611,9.1611,9.1611,9.1611,9.1611,9.1611,9.1611,9.1611,9.1611,9.1611,9.1611,9.1611,9.1611,9.1611,9.1611,9.1611,9.1611,9.1611,9.1611,9.1611,9.1611,9.1943,9.2705,9.1976,9.1711,9.1976,9.1231,9.1132,9.1578,9.0602,9.0006,0.0,0.0,0.0,6.4818,6.686,6.9509,7.7424,7.8119,7.8166,8.1956,8.3314,8.3844,8.3976,8.4591,8.6016,8.8831,8.9262,8.903,8.8301,8.7635,8.6954,8.6225,8.4852,8.4241,8.497,8.4393,8.3976,8.3943,8.3896,8.3281,8.179,8.2419,8.2453,8.1757,8.1075,8.0678,8.0678,8.1393,8.1771,8.1771,8.2519,8.2883,8.2883,8.2883,8.2883,8.295,8.3678,8.4805,8.6192,8.6954,8.7271,8.7319,8.7319,8.7319,8.7319,8.7319,8.7319,8.7319,8.7319,8.7319,8.7319,8.7319,8.772,8.84,8.9129,8.9891,9.0619,9.1379,9.1578,9.1611,9.1611,9.1611,9.1611,9.1611,9.1611,9.1611,9.1611,9.1611,9.1611,9.1611,9.1611,9.1611,9.1611,9.1611,9.1611,9.1611,9.1611,9.1611,9.1611,9.1611,9.1611,9.1611,9.1611,9.1611,9.1611,9.1611,9.1611,9.1644,9.1611,9.1611,9.1644,9.1644,9.1976,9.2738,9.2009,9.2009,9.2738,9.1976,9.1611,9.1611,9.1578,9.1198,5.3358,0.0,0.0,0.0,0.0,0.0,6.9157,7.0205,7.196,7.7735,7.9093,8.0186,8.3413,8.4591,8.5353,8.6148,8.6281,8.6214,8.6016,8.5368,8.4838,8.4639,8.3778,8.3281,8.348,8.3314,8.2983,0.0,8.1889,8.1194,8.0253,8.0418,8.0418,8.0219,8.0531,8.0432,7.9921,8.0631,8.1009,8.1009,8.1757,8.2386,8.2883,8.2883,8.2883,8.295,8.3678,8.4241,8.4705,8.5979,8.6822,8.7319,8.7319,8.7319,8.7319,8.7319,8.7319,8.7319,8.7319,8.7319,8.7319,8.7319,8.7437,8.7702,8.8415,8.9129,8.9858,9.0586,9.1198,9.1611,9.1611,9.1611,9.1611,9.1611,9.1611,9.1611,9.1611,9.1611,9.1611,9.1611,9.1611,9.1611,9.1611,9.1611,9.1611,9.1611,9.1611,9.1611,9.1611,9.1611,9.1611,9.1611,9.1611,9.1611,9.1611,9.1611,9.1843,9.2373,9.1909,9.2075,9.3168,9.2671,9.2987,9.4279,9.3036,9.2771,9.35,9.2208,9.1611,9.1578,9.1066,9.0999,0.0,0.0,0.0,0.0,0.0,0.0,6.6254,6.6805,6.792,7.3893,7.5628,7.7119,8.0617,8.2107,8.2902,8.3215,8.3513,8.4043,8.4956,8.4459,8.401,8.401,8.3347,8.2784,8.2453,8.2453,8.2022,8.0948,8.0763,8.0498,8.0087,7.9477,7.9279,7.9577,7.9723,7.959,7.9146,7.9855,8.0399,8.0711,8.1473,8.2188,8.2883,8.2883,8.2883,8.2916,8.3347,8.3711,8.4076,8.4952,8.5879,8.6855,8.6855,8.7021,8.7319,8.7319,8.7319,8.7319,8.7319,8.7319,8.7319,8.7319,8.7319,8.747,8.8482,8.9063,8.9626,9.0653,9.1264,9.1611,9.1611,9.1611,9.1611,9.1611,9.1611,9.1611,9.1611,9.1611,9.1611,9.1611,9.1611,9.1611,9.1611,9.1611,9.1711,9.2009,9.181,9.1711,9.2009,9.1777,9.1611,9.1611,9.1611,9.1611,9.1611,9.1594,9.1793,9.2225,9.2138,9.2436,9.3318,9.3235,9.355,9.4411,9.3285,9.2771,9.287,9.2009,9.1611,9.1578,9.1165,9.1198,0.0,0.0,0.0,0.0,0.0,0.0,6.5934,6.5657,6.5348,7.0349,7.2428,7.4084,7.6589,7.8232,7.9458,8.0101,8.0976,8.2287,8.4426,8.4175,8.3745,8.3645,8.3049,8.2386,8.1738,8.1671,8.1094,7.9709,8.0134,8.0479,8.0479,7.9193,7.8782,7.9444,7.8848,7.8484,7.8484,7.9146,7.9888,8.0711,8.1373,8.2121,8.2883,8.2883,8.2883,8.2883,8.2883,8.3281,8.3877,8.3877,8.4753,8.6093,8.6159,8.659,8.7186,8.7286,8.7319,8.7319,8.7319,8.7319,8.7319,8.7319,8.7319,8.7536,8.8879,8.9328,8.9692,9.118,9.1611,9.1611,9.1611,9.1611,9.1611,9.1611,9.1611,9.1611,9.1611,9.1611,9.1611,9.1611,9.1611,9.1611,9.1611,9.1611,9.181,9.2473,9.2009,9.1843,9.2506,9.2075,9.1677,9.1611,9.1681,9.1667,9.1502,9.1561,9.1646,9.1719,9.2332,9.2793,9.307,9.3632,9.3948,9.4047,9.3235,9.2473,9.1711,9.1644,9.1611,9.1611,9.1611,9.1611,0.0,0.0,0.0,0.0,0.0,0.0,6.0235,6.0854,6.2831,6.6761,6.7799,6.9389,7.3985,7.5993,7.7007,7.7152,7.8762,8.0584,8.2221,8.232,8.1989,8.1406,8.1208,8.1075,8.0943,8.0909,8.0564,7.9676,7.9193,7.8928,7.8928,7.8663,7.8563,7.8716,7.8583,7.8484,7.8484,7.8649,7.9391,8.0711,8.0843,8.1605,8.2883,8.2883,8.2883,8.2883,8.2883,8.2983,8.3115,8.3115,8.3976,8.5368,8.596,8.6292,8.649,8.7087,8.7319,8.7319,8.7319,8.7319,8.7319,8.7319,8.7319,8.7437,8.8283,8.893,8.9692,9.118,9.1611,9.1611,9.1611,9.1611,9.1611,9.1611,9.1611,9.1611,9.1611,9.1611,9.1611,9.1611,9.1611,9.1611,9.1611,9.1611,9.1644,9.1777,9.1677,9.1644,9.181,9.2208,9.2274,9.1644,9.213,9.2038,9.0905,9.1288,9.1856,9.2449,9.263,9.3483,9.5273,9.4908,9.4975,9.5571,9.4246,9.3235,9.2473,9.1876,9.1611,9.1611,9.1611,9.1611,0.0,0.0,0.0,6.0997,0.0,0.0,0.0,6.0268,6.1109,6.5149,6.5094,6.5702,7.0096,7.1786,7.2879,7.3972,7.6026,7.808,7.9902,8.0796,8.1108,8.0744,8.0711,8.0578,8.02,8.0153,7.9855,7.9113,7.8716,7.8484,7.8484,7.8484,7.8484,7.8484,7.8484,7.8484,7.8484,7.8484,7.9226,8.0711,8.0711,8.1473,8.2883,8.2883,8.2883,8.2883,8.2883,8.2883,8.2916,8.3314,8.3863,8.4639,8.5368,8.5879,8.6292,8.7021,8.7319,8.7319,8.7319,8.7319,8.7319,8.7319,8.7319,8.7503,8.8533,8.9626,9.0635,9.1379,9.1611,9.1611,9.1611,9.1611,9.1611,9.1611,9.1611,9.1611,9.1611,9.1611,9.1611,9.1611,9.1611,9.1611,9.1611,9.1611,9.1711,9.2075,9.1843,9.1744,9.2108,9.2141,9.2,9.1636,9.194,9.1861,9.1141,9.1414,9.1902,9.2646,9.2684,9.337,9.4848,9.455,9.4534,9.4914,9.4168,9.3434,9.2705,9.234,9.1976,9.1611,9.1611,9.181,0.0,0.0,0.0,0.0,0.0,6.2146,0.0,0.0,0.0,6.3924,6.3316,6.3194,6.6375,6.7446,6.8473,7.0428,7.2693,7.4846,7.6576,7.808,7.9286,7.9982,7.9717,7.9372,7.9179,7.9047,7.8848,7.8517,7.8232,7.8186,7.8484,7.8484,7.8484,7.8484,7.8484,7.8484,7.8484,7.8484,7.916,8.0498,8.0644,8.1406,8.2684,8.285,8.2883,8.2883,8.2883,8.2883,8.295,8.3546,8.3811,8.391,8.4904,8.568,8.6292,8.7021,8.7319,8.7319,8.7319,8.7319,8.7319,8.7319,8.747,8.7934,8.9063,9.0436,9.1611,9.1611,9.1611,9.1611,9.1611,9.1611,9.1611,9.1611,9.1611,9.1611,9.1611,9.1611,9.1611,9.1611,9.1611,9.1611,9.1611,9.1611,9.181,9.2406,9.1976,9.1876,9.2605,9.2181,9.1748,9.1631,9.173,9.1626,9.1218,9.1432,9.1845,9.2445,9.2625,9.3024,9.3772,9.3939,9.4074,9.4222,9.4088,9.3716,9.3135,9.2837,9.2307,9.1611,9.1611,9.1909,0.0,0.0,0.0,0.0,6.6563,0.0,0.0,0.0,6.3349,6.187,0.0,6.273,6.4443,0.0,0.0,6.601,6.8539,7.0506,7.0759,7.2051,7.4171,7.7404,7.6105,7.5641,7.747,7.7073,7.7172,7.8431,7.7305,7.7106,7.8418,7.8484,7.8484,7.8484,7.8484,7.8484,7.8484,7.8484,7.8914,7.9709,8.0399,8.1141,8.197,8.2585,8.2883,8.2883,8.2883,8.2883,8.2916,8.2983,8.3016,8.3215,8.5283,8.6126,8.6292,8.7021,8.7319,8.7319,8.7319,8.7319,8.7319,8.7319,8.8117,8.9195,8.9361,9.0436,9.1611,9.1611,9.1611,9.1611,9.1611,9.1611,9.1611,9.1611,9.1611,9.1611,9.1611,9.1611,9.1611,9.1611,9.1611,9.1611,9.1611,9.1611,9.1644,9.1711,9.1644,9.1876,9.2605,9.2625,9.2351,9.1746,9.221,9.182,8.9906,9.0888,9.1644,9.1724,9.2356,9.3022,9.3776,9.4436,9.5059,9.5738,9.5108,9.4743,9.4643,9.3318,9.2307,9.1611,9.1611,9.1644,0.0,0.0,0.0,0.0,0.0,0.0,6.3526,0.0,6.1958,0.0,0.0,0.0,0.0,0.0,0.0,0.0,6.5989,6.8031,6.8461,6.8693,7.0184,7.3827,7.2726,7.2328,7.4092,7.4767,7.5178,7.5351,7.5198,7.5542,7.6589,7.7404,7.8067,7.8497,7.8484,7.8484,7.8484,7.8484,7.8881,7.961,8.0366,8.1108,8.1823,8.2552,8.2883,8.2883,8.2883,8.2883,8.2916,8.3347,8.3546,8.3711,8.5482,8.5946,8.5647,8.6376,8.6921,8.7319,8.7319,8.7319,8.7319,8.7319,8.7952,8.8831,8.9262,9.0123,9.1066,9.1479,9.1611,9.1611,9.1611,9.1611,9.1611,9.1611,9.1611,9.1611,9.1611,9.1611,9.1611,9.1611,9.1611,9.1611,9.1611,9.1611,9.1611,9.1611,9.1976,9.234,9.2671,9.2715,9.2415,9.1744,9.1514,9.1055,9.0153,9.0624,9.1338,9.2183,9.2928,9.3281,9.3159,9.4282,9.5058,9.5358,9.5458,9.5339,9.4908,9.4279,9.34,9.2241,9.181,9.2075,6.7667,0.0,0.0,0.0,0.0,0.0,0.0,0.0,0.0,0.0,0.0,0.0,0.0,0.0,0.0,0.0,0.0,6.6297,6.6662,6.5911,6.6673,7.0349,7.0394,7.0693,7.215,7.3256,7.3687,7.3132,7.3024,7.36,7.4925,7.5794,7.6841,7.8166,7.8186,7.8298,7.8484,7.8484,7.8749,7.9312,8.0266,8.0976,8.1539,8.2453,8.2883,8.2883,8.2883,8.2883,8.295,8.348,8.3711,8.3811,8.5117,8.5382,8.5202,8.6144,8.6855,8.7319,8.7319,8.7319,8.7286,8.7054,8.7602,8.8433,8.9195,8.9924,9.0653,9.1397,9.1611,9.1611,9.1611,9.1611,9.1611,9.1611,9.1611,9.1611,9.1611,9.1611,9.1611,9.1611,9.1611,9.1611,9.1611,9.1611,9.1611,9.1611,9.2075,9.241,9.2418,9.2211,9.1844,9.1107,9.0544,9.0237,9.0232,9.0238,9.0862,9.2311,9.2922,9.3212,9.3299,9.4333,9.4891,9.4891,9.5425,9.5458,9.4897,9.45,9.3969,9.3301,9.234,9.2373,0.0,0.0,0.0,6.7832,0.0,0.0,0.0,0.0,6.6099,0.0,0.0,0.0,0.0,0.0,0.0,0.0,0.0,0.0,0.0,6.3217,6.3681,6.7324,6.9588,7.1455,7.2933,7.3098,7.3144,7.3098,7.1123,7.1202,7.4064,7.3608,7.4523,7.7338,7.7437,7.7768,7.8484,7.8484,7.8517,7.855,8.0001,8.0711,8.0777,8.2221,8.2883,8.2883,8.2883,8.2883,8.2883,8.2916,8.295,8.3016,8.3778,8.4506,8.5268,8.6741,8.7271,8.7319,8.7319,8.7319,8.7171,8.6457,8.7171,8.8433,8.9195,8.9924,9.0653,9.1397,9.1611,9.1611,9.1611,9.1611,9.1611,9.1611,9.1611,9.1611,9.1611,9.1611,9.1611,9.1611,9.1611,9.1611,9.1611,9.1611,9.1611,9.1611,9.1611,9.1674,9.1711,9.1059,9.0312,8.9635,8.9549,8.9519,8.9547,8.9529,9.0118,9.1543,9.1645,9.2627,9.4724,9.4858,9.4891,9.4891,9.4908,9.4925,9.4892,9.3466,9.3483,9.4776,9.3318,9.2307,0.0,0.0,7.4701,7.1045,0.0,0.0,0.0,0.0,0.0,0.0,0.0,0.0,0.0,0.0,0.0,0.0,0.0,0.0,0.0,6.049,6.0632,6.431,6.6254,6.7269,6.7269,6.8163,6.8362,6.7413,6.7512,6.8705,7.1168,7.2891,7.4714,7.6609,7.7139,7.7755,7.8484,7.8484,7.8484,7.8517,8.0001,8.0711,8.0744,8.2221,8.2883,8.2883,8.2883,8.2883,8.2883,8.2883,8.3181,8.3711,8.4426,8.5169,8.5879,8.6391,8.6888,8.7238,8.6756,8.6888,8.7186,8.6424,8.6855,8.7867,8.903,8.956,9.0023,9.128,9.1611,9.1611,9.1611,9.1611,9.1611,9.1611,9.1611,9.1611,9.1611,9.1611,9.1611,9.1611,9.1611,9.1611,9.1611,9.1611,9.1611,9.1611,9.2009,9.2187,9.1745,9.1469,9.0844,8.962,8.9101,8.8804,8.8788,8.9638,9.0582,9.1546,9.2513,9.3618,9.4842,9.5375,9.5392,9.4891,9.4432,9.4154,9.4154,9.3171,9.3203,9.4146,9.3168,9.2572,7.3032,7.4502,0.0,7.2978,7.237,0.0,6.8726,0.0,0.0,0.0,0.0,0.0,0.0,0.0,0.0,0.0,0.0,0.0,0.0,5.9529,5.987,6.2223,6.3769,6.4763,6.505,6.5944,6.5712,6.3758,6.4697,6.632,6.8506,7.0937,7.3388,7.586,7.6642,7.7504,7.8497,7.8484,7.8484,7.8517,7.9723,8.0432,8.0744,8.1956,8.2651,8.2883,8.2883,8.2883,8.2883,8.2883,8.3347,8.4061,8.479,8.5533,8.6225,8.649,8.6888,8.7186,8.6457,8.6689,8.7186,8.6424,8.6689,8.7503,8.8665,8.8997,8.9361,9.1114,9.1412,9.1331,9.1876,9.181,9.1611,9.1611,9.1611,9.1611,9.1611,9.1611,9.1611,9.1611,9.1611,9.1611,9.1611,9.181,9.1909,9.1644,9.1805,9.1705,9.1011,9.0701,9.0106,8.8876,8.8373,8.8207,8.8411,8.9735,9.0843,9.1599,9.2999,9.4139,9.4848,9.5359,9.5739,9.6038,9.4317,9.4023,9.5333,9.3564,9.3203,9.4179,9.3168,9.2705]},{"header":{"parameterUnit":"m.s-1","parameterCategory":1,"la1":30.6,"la2":29.2853,"lo1":-89.7004,"lo2":-87.6739,"dx":0.0162,"dy":0.0183,"nx":112,"ny":82,"refTime":"2023-02-02T18:00:00:Z","depth":0,"parameterNumber":3,"parameterNumberName":"V-component_of_WINDS"},"data":[0.0,0.0,0.0,0.0,0.0,0.0,0.0,0.0,0.0,0.0,0.0,0.0,0.0,0.0,0.0,0.0,0.0,0.0,0.0,0.0,0.0,0.0,0.0,0.0,0.0,0.0,0.0,0.0,0.0,0.0,0.0,0.0,0.0,0.0,0.0,0.0,0.0,0.0,0.0,0.0,0.0,0.0,0.0,0.0,0.0,0.0,0.0,0.0,0.0,0.0,0.0,0.0,0.0,0.0,0.0,0.0,0.0,0.0,0.0,0.0,0.0,0.0,0.0,0.0,0.0,0.0,0.0,0.0,0.0,0.0,0.0,0.0,0.0,0.0,0.0,0.0,0.0,0.0,0.0,0.0,0.0,0.0,0.0,0.0,0.0,0.0,0.0,0.0,0.0,0.0,2.4466,2.6146,2.9056,3.0773,3.0492,2.9061,2.717,2.4836,0.0,0.0,0.0,0.0,0.0,0.0,0.0,0.0,0.0,0.0,0.0,0.0,0.0,0.0,0.0,0.0,0.0,0.0,0.0,0.0,0.0,0.0,0.0,0.0,0.0,0.0,0.0,0.0,0.0,0.0,0.0,0.0,0.0,0.0,0.0,0.0,0.0,0.0,0.0,0.0,0.0,0.0,0.0,0.0,0.0,0.0,0.0,0.0,0.0,0.0,0.0,0.0,0.0,0.0,0.0,0.0,0.0,0.0,0.0,0.0,0.0,0.0,0.0,0.0,0.0,0.0,0.0,0.0,0.0,0.0,0.0,0.0,0.0,0.0,0.0,0.0,0.0,0.0,0.0,0.0,0.0,0.0,0.0,0.0,0.0,0.0,0.0,0.0,0.0,0.0,0.0,0.0,0.0,0.0,0.0,0.0,0.0,0.0,0.0,0.0,0.0,0.0,0.0,0.0,2.6182,2.9627,3.0723,3.1089,3.0767,2.8578,2.6592,2.5132,0.0,0.0,0.0,0.0,0.0,0.0,0.0,0.0,0.0,0.0,0.0,0.0,0.0,0.0,0.0,0.0,0.0,0.0,0.0,0.0,0.0,0.0,0.0,0.0,0.0,0.0,0.0,0.0,0.0,0.0,0.0,0.0,0.0,0.0,0.0,0.0,0.0,0.0,0.0,0.0,0.0,0.0,0.0,0.0,0.0,0.0,0.0,0.0,0.0,0.0,0.0,0.0,0.0,0.0,0.0,0.0,0.0,0.0,0.0,0.0,0.0,0.0,0.0,0.0,0.0,0.0,0.0,0.0,0.0,0.0,0.0,0.0,0.0,0.0,0.0,0.0,0.0,0.0,0.0,0.0,0.0,0.0,0.0,0.0,0.0,0.0,0.0,0.0,0.0,0.0,0.0,0.0,0.0,0.0,0.0,0.0,0.0,0.0,0.0,0.0,0.0,0.0,0.0,2.5642,2.766,3.0993,3.1637,3.1563,3.0855,2.8622,2.665,2.5188,2.4129,0.0,0.0,0.0,0.0,0.0,0.0,0.0,0.0,0.0,0.0,0.0,0.0,0.0,0.0,0.0,0.0,0.0,0.0,0.0,0.0,0.0,0.0,0.0,0.0,0.0,0.0,0.0,0.0,0.0,0.0,0.0,0.0,0.0,0.0,0.0,0.0,0.0,0.0,0.0,0.0,0.0,0.0,0.0,0.0,0.0,0.0,0.0,0.0,0.0,0.0,0.0,0.0,0.0,0.0,0.0,0.0,0.0,0.0,0.0,0.0,0.0,0.0,0.0,0.0,0.0,0.0,0.0,0.0,0.0,0.0,0.0,0.0,0.0,0.0,0.0,0.0,0.0,0.0,0.0,0.0,0.0,0.0,0.0,0.0,0.0,0.0,0.0,0.0,0.0,0.0,0.0,0.0,0.0,0.0,0.0,0.0,0.0,0.0,0.0,0.0,0.0,0.0,2.7514,2.911,3.1841,3.2163,3.1812,3.0884,2.8622,2.6635,2.5188,2.3966,0.0,0.0,0.0,0.0,0.0,0.0,0.0,0.0,0.0,0.0,0.0,0.0,0.0,0.0,0.0,0.0,0.0,0.0,0.0,0.0,0.0,0.0,0.0,0.0,0.0,0.0,0.0,0.0,0.0,0.0,0.0,0.0,0.0,0.0,0.0,0.0,0.0,0.0,0.0,0.0,0.0,0.0,0.0,0.0,0.0,0.0,0.0,0.0,0.0,0.0,0.0,0.0,0.0,0.0,0.0,0.0,0.0,0.0,0.0,0.0,0.0,0.0,0.0,0.0,0.0,0.0,0.0,0.0,0.0,0.0,0.0,0.0,0.0,0.0,0.0,0.0,0.0,0.0,0.0,0.0,0.0,0.0,0.0,0.0,0.0,0.0,0.0,0.0,0.0,0.0,0.0,0.0,0.0,0.0,0.0,0.0,0.0,0.0,0.0,0.0,0.0,0.0,2.8793,3.0604,3.2851,3.2332,3.1563,3.0855,2.8193,2.6152,2.5159,2.3562,0.0,0.0,0.0,0.0,0.0,0.0,0.0,0.0,0.0,0.0,0.0,0.0,0.0,0.0,0.0,0.0,0.0,0.0,0.0,0.0,0.0,0.0,0.0,0.0,0.0,0.0,0.0,0.0,0.0,0.0,0.0,0.0,0.0,0.0,0.0,0.0,0.0,0.0,0.0,0.0,0.0,0.0,0.0,0.0,0.0,0.0,0.0,0.0,0.0,0.0,0.0,0.0,0.0,0.0,0.0,0.0,0.0,0.0,0.0,0.0,0.0,0.0,0.0,0.0,0.0,0.0,0.0,0.0,0.0,0.0,0.0,0.0,0.0,0.0,0.0,0.0,0.0,0.0,0.0,0.0,0.0,0.0,0.0,0.0,0.0,0.0,0.0,0.0,0.0,0.0,0.0,0.0,0.0,0.0,0.0,0.0,0.0,0.0,0.0,0.0,0.0,0.0,2.9105,3.1326,0.0,3.3474,3.3013,3.254,2.9686,2.759,2.6769,0.0,0.0,0.0,0.0,0.0,0.0,0.0,0.0,0.0,0.0,0.0,0.0,0.0,0.0,0.0,0.0,0.0,0.0,0.0,0.0,0.0,0.0,0.0,0.0,0.0,0.0,0.0,0.0,0.0,0.0,0.0,0.0,0.0,0.0,0.0,0.0,0.0,0.0,0.0,0.0,0.0,0.0,0.0,0.0,0.0,0.0,0.0,0.0,0.0,0.0,0.0,0.0,0.0,0.0,0.0,0.0,0.0,0.0,0.0,0.0,0.0,0.0,0.0,0.0,0.0,0.0,0.0,0.0,0.0,0.0,0.0,0.0,0.0,0.0,0.0,0.0,0.0,0.0,0.0,0.0,0.0,0.0,0.0,0.0,0.0,0.0,0.0,0.0,0.0,0.0,0.0,0.0,0.0,0.0,0.0,0.0,0.0,0.0,0.0,0.0,0.0,0.0,2.6925,2.9641,3.2154,0.0,3.4277,3.4022,3.353,3.0391,2.825,2.774,0.0,0.0,0.0,0.0,0.0,0.0,0.0,0.0,0.0,0.0,0.0,0.0,0.0,0.0,0.0,0.0,0.0,0.0,0.0,0.0,0.0,0.0,0.0,0.0,0.0,0.0,0.0,0.0,0.0,0.0,0.0,0.0,0.0,0.0,0.0,0.0,0.0,0.0,0.0,0.0,0.0,0.0,0.0,0.0,0.0,0.0,0.0,0.0,0.0,0.0,0.0,0.0,0.0,0.0,0.0,0.0,0.0,0.0,0.0,0.0,0.0,0.0,0.0,0.0,0.0,0.0,0.0,0.0,0.0,0.0,0.0,0.0,0.0,0.0,0.0,0.0,0.0,0.0,0.0,0.0,0.0,0.0,0.0,0.0,0.0,0.0,0.0,0.0,0.0,0.0,0.0,0.0,0.0,0.0,0.0,0.0,0.0,0.0,0.0,0.0,0.0,0.0,2.7357,3.056,3.3224,3.4502,3.4584,3.4244,3.359,2.9954,2.7726,0.0,0.0,0.0,0.0,0.0,0.0,0.0,0.0,0.0,0.0,0.0,0.0,0.0,0.0,0.0,0.0,0.0,0.0,0.0,0.0,0.0,0.0,0.0,0.0,0.0,0.0,0.0,0.0,0.0,0.0,0.0,0.0,0.0,0.0,0.0,0.0,0.0,0.0,0.0,0.0,0.0,0.0,0.0,0.0,0.0,0.0,0.0,0.0,0.0,0.0,0.0,0.0,0.0,0.0,0.0,0.0,0.0,0.0,0.0,0.0,0.0,0.0,0.0,0.0,0.0,0.0,0.0,0.0,0.0,0.0,0.0,0.0,0.0,0.0,0.0,0.0,0.0,0.0,0.0,0.0,0.0,0.0,0.0,0.0,0.0,0.0,0.0,0.0,0.0,0.0,0.0,0.0,0.0,0.0,0.0,0.0,0.0,0.0,0.0,0.0,0.0,0.0,0.0,2.8668,3.2054,3.4915,3.6493,3.6107,3.5651,3.5355,3.1638,2.9227,2.8981,0.0,0.0,0.0,0.0,0.0,0.0,0.0,0.0,0.0,0.0,0.0,0.0,0.0,0.0,0.0,0.0,0.0,0.0,0.0,0.0,0.0,0.0,0.0,0.0,0.0,0.0,0.0,0.0,0.0,0.0,0.0,0.0,0.0,0.0,0.0,0.0,0.0,0.0,0.0,0.0,0.0,0.0,0.0,0.0,0.0,0.0,0.0,0.0,0.0,0.0,0.0,0.0,0.0,0.0,0.0,0.0,0.0,0.0,0.0,0.0,0.0,0.0,0.0,0.0,0.0,0.0,0.0,0.0,0.0,0.0,0.0,0.0,0.0,0.0,0.0,0.0,0.0,0.0,0.0,0.0,0.0,0.0,0.0,0.0,0.0,0.0,0.0,0.0,0.0,0.0,0.0,0.0,0.0,0.0,0.0,0.0,0.0,0.0,0.0,0.0,0.0,0.0,2.9214,3.2891,3.5896,3.7364,3.7015,3.6517,3.6142,3.2748,3.0354,2.9698,0.0,0.0,0.0,0.0,0.0,0.0,0.0,0.0,0.0,0.0,0.0,0.0,0.0,0.0,0.0,0.0,0.0,0.0,0.0,0.0,0.0,0.0,0.0,0.0,0.0,0.0,0.0,0.0,0.0,0.0,0.0,0.0,0.0,0.0,0.0,0.0,0.0,0.0,0.0,0.0,0.0,0.0,0.0,0.0,0.0,0.0,0.0,0.0,0.0,0.0,0.0,0.0,0.0,0.0,0.0,0.0,0.0,0.0,0.0,0.0,0.0,0.0,0.0,0.0,0.0,0.0,0.0,0.0,0.0,0.0,0.0,0.0,0.0,0.0,0.0,0.0,0.0,0.0,0.0,0.0,0.0,0.0,0.0,0.0,0.0,0.0,0.0,0.0,0.0,0.0,0.0,0.0,0.0,0.0,0.0,0.0,0.0,0.0,0.0,0.0,0.0,0.0,2.953,3.3443,3.6548,3.7753,3.7505,3.6977,3.633,3.3433,3.1148,2.9934,0.0,0.0,0.0,0.0,0.0,0.0,0.0,0.0,0.0,0.0,0.0,0.0,0.0,0.0,0.0,0.0,0.0,0.0,0.0,0.0,0.0,0.0,0.0,0.0,0.0,0.0,0.0,0.0,0.0,0.0,0.0,0.0,0.0,0.0,0.0,0.0,0.0,0.0,0.0,0.0,0.0,0.0,0.0,0.0,0.0,0.0,0.0,0.0,0.0,0.0,0.0,0.0,0.0,0.0,0.0,0.0,0.0,0.0,0.0,0.0,2.1086,0.0,0.0,0.0,0.0,0.0,0.0,0.0,0.0,0.0,0.0,0.0,0.0,0.0,0.0,0.0,0.0,0.0,0.0,0.0,0.0,0.0,0.0,0.0,0.0,0.0,0.0,0.0,0.0,0.0,0.0,0.0,0.0,0.0,0.0,0.0,0.0,0.0,0.0,0.0,0.0,0.0,3.1768,3.5177,3.8236,4.0419,3.8862,3.7667,3.7677,3.4181,3.1296,2.9696,2.73,0.0,0.0,0.0,0.0,0.0,0.0,0.0,0.0,0.0,0.0,0.0,0.0,0.0,0.0,0.0,0.0,0.0,0.0,0.0,0.0,0.0,0.0,0.0,0.0,0.0,0.0,0.0,0.0,0.0,0.0,0.0,0.0,0.0,0.0,0.0,0.0,0.0,0.0,0.0,0.0,0.0,0.0,0.0,0.0,0.0,0.0,0.0,0.0,0.0,0.0,0.0,0.0,0.0,0.0,0.0,0.0,0.0,0.0,0.0,0.0,2.1701,0.0,0.0,0.0,0.0,0.0,0.0,0.0,0.0,0.0,0.0,0.0,0.0,0.0,0.0,0.0,0.0,0.0,0.0,0.0,0.0,0.0,0.0,0.0,0.0,0.0,0.0,0.0,0.0,0.0,0.0,0.0,0.0,0.0,0.0,0.0,0.0,0.0,0.0,0.0,0.0,3.274,3.6244,3.925,4.1268,4.0436,3.9534,3.901,3.6015,3.3193,3.0941,2.8941,0.0,0.0,0.0,0.0,0.0,0.0,0.0,0.0,0.0,0.0,0.0,0.0,0.0,0.0,0.0,0.0,0.0,0.0,0.0,0.0,0.0,0.0,0.0,0.0,0.0,0.0,0.0,0.0,0.0,0.0,0.0,0.0,0.0,0.0,0.0,0.0,0.0,0.0,0.0,0.0,0.0,0.0,0.0,0.0,0.0,0.0,0.0,0.0,0.0,0.0,0.0,0.0,0.0,2.9782,3.034,3.062,2.9345,2.9699,3.1086,2.6777,2.4193,2.3035,2.346,0.0,0.0,0.0,0.0,0.0,0.0,0.0,0.0,0.0,0.0,0.0,0.0,0.0,0.0,0.0,0.0,0.0,0.0,0.0,0.0,0.0,0.0,0.0,0.0,2.5086,2.4424,0.0,0.0,0.0,0.0,0.0,0.0,0.0,0.0,0.0,0.0,0.0,0.0,3.346,3.7215,4.0266,4.1916,4.1919,4.1371,4.0351,3.806,3.5449,3.2581,3.0926,2.9373,0.0,0.0,0.0,0.0,0.0,0.0,0.0,0.0,0.0,0.0,0.0,0.0,0.0,0.0,0.0,0.0,0.0,0.0,0.0,0.0,0.0,0.0,0.0,0.0,0.0,0.0,0.0,0.0,0.0,0.0,0.0,0.0,2.3434,2.4697,0.0,0.0,0.0,0.0,0.0,0.0,0.0,0.0,0.0,0.0,0.0,0.0,0.0,2.9108,3.1129,3.1727,3.2284,3.2866,3.3614,3.3885,3.3717,3.3746,3.4036,3.4559,3.427,0.0,2.8202,2.7852,0.0,0.0,0.0,0.0,0.0,0.0,0.0,0.0,0.0,0.0,0.0,0.0,0.0,0.0,0.0,0.0,0.0,0.0,0.0,0.0,0.0,0.0,2.543,2.6149,2.6061,2.581,0.0,2.4832,2.3809,2.3487,2.2858,0.0,0.0,0.0,0.0,0.0,0.0,0.0,3.5183,3.8937,4.2169,4.4214,4.281,4.1693,4.1639,3.9279,3.6458,3.3363,3.2031,3.0725,2.9374,2.7935,0.0,0.0,0.0,0.0,0.0,0.0,0.0,0.0,0.0,0.0,0.0,0.0,0.0,0.0,0.0,0.0,0.0,0.0,0.0,0.0,0.0,0.0,0.0,0.0,0.0,0.0,0.0,0.0,0.0,2.4156,2.6193,2.7109,2.8133,2.8184,0.0,0.0,0.0,0.0,0.0,0.0,0.0,0.0,0.0,3.2055,3.1836,3.2573,3.4472,3.5594,3.6606,3.7486,3.8573,3.9134,3.9211,3.8425,3.8804,3.9989,3.9242,3.7931,3.6039,3.2849,3.0033,2.7696,0.0,0.0,0.0,0.0,2.5681,2.6039,2.5426,2.5344,0.0,2.5403,0.0,0.0,0.0,0.0,0.0,0.0,0.0,0.0,0.0,0.0,2.9273,2.9582,3.0398,3.0851,2.9874,2.9387,2.8305,0.0,2.5093,2.5138,2.4836,0.0,0.0,0.0,0.0,3.418,3.7704,4.0927,4.34,4.4761,4.4314,4.3759,4.3299,4.1118,3.8805,3.6481,3.5041,3.3732,3.2473,3.1165,3.0339,0.0,0.0,0.0,0.0,0.0,0.0,0.0,0.0,0.0,0.0,0.0,0.0,0.0,0.0,0.0,0.0,0.0,0.0,0.0,0.0,0.0,0.0,0.0,0.0,0.0,0.0,0.0,0.0,2.6642,2.8264,2.8878,3.024,3.0312,0.0,0.0,0.0,0.0,0.0,0.0,3.2836,3.2835,3.3983,3.6601,3.6284,3.6892,3.8616,3.9954,4.1118,4.2184,4.3301,4.4052,4.4419,4.3218,4.3497,4.4926,4.3659,4.3001,4.2418,3.7568,3.3999,3.1552,3.124,3.0728,3.01,2.9295,2.9159,2.9236,2.8472,2.8309,2.831,2.7756,0.0,2.6792,2.6012,0.0,0.0,0.0,0.0,2.9493,3.0977,3.2465,3.3618,3.3879,3.517,3.592,3.4296,3.4273,3.3082,0.0,2.7486,2.7745,2.7355,0.0,0.0,0.0,0.0,3.6292,3.9913,4.2665,4.4542,4.5201,4.5412,4.5188,4.4381,4.2586,4.0733,3.8936,3.7565,3.6247,3.4972,3.386,3.2784,3.1735,0.0,0.0,0.0,0.0,0.0,0.0,0.0,0.0,0.0,0.0,0.0,0.0,0.0,0.0,0.0,0.0,0.0,0.0,0.0,0.0,0.0,0.0,0.0,0.0,0.0,0.0,0.0,0.0,0.0,2.9053,3.1331,0.0,0.0,0.0,0.0,3.2814,3.4842,3.6334,3.6974,3.8542,4.0076,4.1501,4.2309,4.3533,4.5209,4.5759,4.6229,4.6679,4.7196,4.7672,4.8127,4.8064,4.8064,4.8147,4.8085,4.7093,4.5212,4.1567,3.8751,3.6645,3.5812,3.4893,3.4036,3.409,3.3546,3.2755,3.2827,3.2586,3.2174,3.1881,3.0753,2.9259,2.7949,2.8064,0.0,0.0,3.0803,3.2931,3.3337,3.5459,3.7757,3.8721,3.9354,3.9614,3.9078,3.8712,3.6792,0.0,2.9178,2.8968,3.0323,0.0,3.1806,3.3762,3.7353,4.0212,4.1189,4.3844,4.5771,4.6185,4.5501,4.4836,4.4339,4.3058,4.1381,3.9301,3.8387,3.7256,3.5795,3.496,3.3912,3.2653,3.2425,0.0,0.0,0.0,0.0,0.0,0.0,0.0,0.0,0.0,0.0,0.0,0.0,0.0,0.0,0.0,0.0,0.0,0.0,0.0,0.0,0.0,0.0,0.0,0.0,0.0,0.0,0.0,0.0,3.3775,3.5352,0.0,3.4872,3.5028,3.5556,3.6485,3.7381,3.9033,4.167,4.2488,4.3858,4.6024,4.6393,4.6989,4.7897,4.8351,4.8497,4.8355,4.8832,4.9143,4.9309,4.9309,4.9309,4.9309,4.9309,4.8583,4.732,4.573,4.3262,4.0367,3.9528,3.8813,3.812,3.7266,3.685,3.6675,3.619,3.5931,3.5658,3.4864,3.3727,3.2528,3.1903,3.2212,3.3081,3.4417,3.5831,3.7353,3.8971,4.0112,4.0916,4.1262,4.209,4.2423,4.1181,4.1488,4.1082,3.787,3.4858,3.2845,3.2866,3.2985,3.4273,3.7839,3.9654,4.1443,4.386,4.5281,4.6141,4.6286,4.5809,4.525,4.4795,4.376,4.2596,4.1283,4.0083,3.8905,3.7793,3.6644,3.5517,3.4456,3.4139,3.3688,0.0,0.0,0.0,0.0,0.0,0.0,0.0,0.0,0.0,0.0,0.0,0.0,0.0,0.0,0.0,0.0,0.0,0.0,0.0,0.0,0.0,0.0,0.0,0.0,0.0,3.3389,3.5815,3.7265,3.8565,3.9069,3.835,3.8463,3.9075,4.0288,4.1195,4.2847,4.5541,4.6082,4.7155,4.9017,4.9246,4.9474,4.9784,5.0074,4.9991,4.9557,5.0012,5.0323,5.0468,5.0633,5.0613,5.0468,5.0302,4.9722,4.8832,4.8355,4.6657,4.4255,4.3096,4.2467,4.2092,4.1272,4.0937,4.0819,4.0279,3.9728,3.915,3.8471,3.734,3.6214,3.5887,3.6234,3.7043,3.8493,3.9882,4.1228,4.2651,4.3526,4.405,4.4228,4.489,4.5141,4.4019,4.4354,4.4319,4.2432,3.9348,3.6988,3.6861,3.685,3.8075,4.161,4.2316,4.3294,4.5605,4.6141,4.6307,4.6307,4.5954,4.5456,4.4815,4.4049,4.3097,4.1912,4.0637,3.9482,3.8406,3.7202,3.6059,3.4983,3.4398,3.3752,3.3047,0.0,0.0,0.0,0.0,0.0,0.0,0.0,0.0,0.0,0.0,0.0,0.0,0.0,0.0,0.0,0.0,0.0,0.0,0.0,0.0,0.0,0.0,0.0,3.3246,3.633,3.8692,3.9242,4.076,4.1418,4.0533,4.2044,4.3451,4.4381,4.6513,4.8003,4.848,4.9392,5.0074,5.0465,5.092,5.117,5.117,5.117,5.0943,5.0486,5.0963,5.1419,5.1853,5.2309,5.2267,5.1812,5.1377,5.0653,4.9827,4.9371,4.8894,4.8273,4.6471,4.5788,4.5809,4.6203,4.582,4.5087,4.5087,4.4001,4.2643,4.2777,4.1661,4.0191,3.9823,3.9989,4.0372,4.0798,4.2693,4.4495,4.4077,4.5494,4.7175,4.761,4.7713,4.7713,4.7713,4.7341,4.6414,4.43,4.2222,4.1163,4.223,4.2486,4.3077,4.4784,4.5435,0.0,4.6286,4.6348,4.6348,4.6348,4.5975,4.5394,4.4422,4.3905,4.2849,4.0983,3.9975,3.8861,3.7529,3.6561,3.5438,3.4143,3.323,3.2244,3.1146,0.0,0.0,0.0,0.0,0.0,0.0,0.0,0.0,0.0,0.0,0.0,0.0,0.0,0.0,0.0,0.0,0.0,0.0,0.0,0.0,0.0,3.4143,3.7085,3.697,3.912,4.1516,4.3624,4.4839,4.5541,4.5623,4.6409,4.7134,4.7734,4.8935,5.0011,5.0818,5.1441,5.1957,5.2412,5.2557,5.2619,5.2619,5.2619,5.2557,5.2433,5.2557,5.2681,5.2829,5.2953,5.2953,5.2808,5.2684,5.2102,5.1232,5.1108,5.0406,4.9309,4.8107,4.7444,4.7175,4.7279,4.7154,4.6946,4.6946,4.6207,4.5271,4.5291,4.4785,4.4181,4.4382,4.4522,4.4764,4.5554,4.6289,4.6947,4.75,4.7834,4.8065,4.8169,4.7941,4.7713,4.7713,4.7589,4.7237,4.6311,4.5637,4.4745,4.3161,4.2923,4.3619,4.565,4.6038,0.0,4.7217,4.732,4.732,4.732,4.7237,4.6657,4.5435,4.4567,4.3035,4.0548,3.9226,3.8088,3.7032,3.5806,3.4993,3.4599,3.4652,3.4507,0.0,0.0,0.0,0.0,0.0,0.0,0.0,0.0,0.0,0.0,0.0,0.0,0.0,0.0,0.0,0.0,0.0,0.0,0.0,0.0,0.0,0.0,3.7311,4.0671,4.1848,4.3067,4.467,4.6864,4.7568,4.8127,4.8769,4.9245,4.9826,5.0468,5.0984,5.1522,5.206,5.2164,5.2412,5.2888,5.2911,5.2911,5.2911,5.2911,5.2808,5.2619,5.3015,5.3098,5.2932,5.3489,5.3551,5.3222,5.3385,5.293,5.2081,5.2081,5.1524,0.0,0.0,0.0,0.0,0.0,4.8335,4.8024,4.821,4.7796,4.7175,4.7175,4.703,4.6844,4.6885,4.703,4.7237,4.7589,4.7838,4.8065,4.8418,4.8314,4.8148,4.8355,4.8045,4.7755,4.7941,4.7838,4.7693,4.7589,4.7589,0.0,4.5839,4.5291,4.5515,4.6948,4.7175,4.7465,4.819,4.7941,4.761,4.7424,4.7568,4.7092,4.5539,4.5084,0.0,0.0,0.0,3.7695,3.6034,3.52,0.0,0.0,0.0,3.5148,0.0,0.0,0.0,0.0,2.8329,2.7624,0.0,0.0,0.0,0.0,0.0,0.0,0.0,0.0,0.0,0.0,0.0,0.0,0.0,0.0,0.0,0.0,4.0587,4.3801,4.6948,4.7506,4.8003,4.9039,4.9267,4.966,5.0465,5.1024,5.1688,5.2516,5.2601,5.2601,5.2601,0.0,0.0,0.0,0.0,5.2723,5.2723,5.2723,5.2516,5.2122,5.2992,5.3178,5.2764,5.4003,5.4172,5.345,5.3755,5.3445,5.2723,5.2661,5.2371,5.1812,5.0468,4.993,4.9868,4.993,4.937,4.8687,4.9101,0.0,0.0,4.85,4.848,4.8397,4.7983,4.8107,4.8314,4.7962,4.8128,4.8314,4.7962,4.7858,4.7962,4.8376,4.8148,4.7983,4.8376,4.8148,4.7962,4.8335,4.8397,4.8521,4.8957,4.8335,4.7941,4.8397,4.8418,4.8563,4.9039,4.8376,4.7693,4.7279,0.0,0.0,4.5456,4.5518,4.4317,4.1252,3.9582,3.7616,3.5117,3.5091,3.5226,3.5485,3.5185,3.5029,3.5013,3.462,3.4469,3.4488,3.122,2.9756,0.0,0.0,0.0,0.0,0.0,0.0,0.0,0.0,0.0,0.0,0.0,0.0,0.0,0.0,0.0,4.1026,4.4997,4.8189,4.9555,5.0736,5.1006,4.9806,5.0302,5.0922,5.1481,5.2288,5.287,5.3056,5.3054,5.3054,5.3054,5.3279,5.3442,5.3569,5.392,5.4107,5.4107,5.4107,5.4065,5.3983,0.0,0.0,5.4127,5.4772,5.4958,5.4817,5.45,5.4249,5.4086,5.369,5.33,5.2808,5.1398,5.0611,5.0342,5.0715,5.0508,5.0032,5.0135,4.9888,4.9475,4.9102,4.8956,4.8957,4.8874,4.8625,0.0,4.8749,4.8625,4.8459,4.8749,4.8832,4.8832,4.8935,4.8915,4.8832,4.8957,4.8894,4.8728,4.8459,4.8397,4.8418,4.8521,4.8376,4.8418,4.8894,4.8625,4.8563,4.9039,4.8935,4.879,4.8707,4.8438,4.7962,4.7237,4.5912,4.4255,4.2161,3.9699,3.7736,3.6473,3.6779,3.666,3.5981,3.6266,3.6411,3.6411,3.6328,3.6297,3.6263,3.3425,3.2635,0.0,0.0,0.0,0.0,0.0,0.0,0.0,0.0,0.0,0.0,0.0,3.456,3.6485,0.0,4.2105,4.4972,4.7713,4.9826,5.0943,5.1708,5.1895,5.1234,5.1315,5.1812,5.272,5.3033,5.3364,5.382,5.3861,5.3861,5.3861,5.3838,5.3897,5.4145,5.4145,5.4249,5.4497,5.4497,5.4497,5.452,5.4979,5.4958,5.4517,5.5227,5.5289,5.4875,5.5103,5.4934,5.4476,5.4249,5.39,5.3424,5.272,5.1893,5.1127,5.1377,5.088,5.0116,5.0116,4.9971,4.9723,4.9267,4.9391,4.9681,4.9225,4.9102,4.9102,4.9102,4.8936,4.879,4.9039,4.9102,4.9102,4.9102,4.9102,4.9164,4.9412,4.9454,4.9516,4.9701,4.9742,4.9846,5.0052,4.9701,4.939,4.9454,4.9267,4.9185,4.9433,4.9247,4.9019,4.877,4.8749,4.8376,4.7444,4.5912,4.4298,4.2702,4.09,3.9285,3.7864,3.803,3.7844,3.7156,3.7575,3.7786,3.7786,3.7786,3.791,3.8117,3.6778,3.6098,0.0,0.0,0.0,0.0,0.0,0.0,0.0,3.2099,3.2939,3.4171,3.5843,3.7949,4.073,4.2943,4.5322,4.8313,4.9784,5.0965,5.204,5.2205,5.2371,5.2826,5.2412,5.2555,5.3814,5.3737,5.3903,5.4707,5.4686,5.4645,5.4645,5.4293,5.4252,5.4624,5.4376,5.4396,5.4769,5.4769,5.4769,5.4789,5.5248,5.5227,5.4789,5.5666,5.5559,5.481,5.5559,5.5455,5.4769,5.4769,5.45,5.4062,5.4062,5.33,5.2185,5.2102,5.1338,5.0324,5.0324,5.024,5.0095,4.9639,4.9949,5.0382,4.9598,4.9578,4.9723,4.935,4.9185,4.9102,4.9102,4.9185,4.9247,4.9247,4.9309,4.9453,4.9826,4.993,5.0116,5.0839,5.0962,5.1106,5.1584,5.0941,5.0301,4.9971,4.9785,4.9661,4.9661,4.933,4.8957,4.8563,4.879,4.848,4.7237,4.6161,4.496,4.3658,4.2642,4.1358,3.9668,3.944,3.9106,3.8585,3.892,3.903,3.8944,3.8944,3.9113,3.9502,3.9606,3.9023,3.1768,3.0509,2.9972,3.132,3.1264,3.1685,0.0,3.5227,3.5743,3.8264,3.9967,4.1573,4.3535,4.6389,4.881,4.9989,5.1976,5.3401,5.3545,5.3566,5.3731,5.4231,5.3551,5.3406,5.4311,5.4772,5.5189,5.5707,5.5376,5.5103,5.5103,5.5062,5.5086,5.5103,5.5479,5.5686,5.5749,5.5749,5.5749,5.5749,5.6225,5.6183,5.5769,5.6287,5.6225,5.5749,5.5852,5.5831,5.5749,5.5749,5.5479,5.5041,5.5041,5.4438,5.3525,5.3178,5.2684,5.2207,5.2207,5.1938,5.1501,5.1025,5.0943,5.0943,5.0403,5.0054,4.9785,4.9744,4.9433,4.9102,4.9102,4.9412,4.9723,4.9723,4.999,5.0258,5.032,5.032,5.0362,5.0444,5.0465,5.0631,5.1108,5.0756,5.0382,5.0341,4.9681,4.9185,4.9185,4.9143,4.9081,4.9039,4.8708,4.8252,4.7672,4.7486,4.6968,4.5976,4.4713,4.3532,4.2478,4.1708,4.0862,3.9978,4.0019,3.9833,3.942,3.942,3.9461,3.9523,3.9916,3.9813,3.1823,3.1196,3.1292,3.2512,3.3384,3.4568,3.7091,3.8154,3.9226,4.1423,4.3409,4.5395,4.7486,4.939,5.0985,5.1874,5.3031,5.3794,5.3794,5.3794,5.3796,5.3758,5.3633,5.3923,5.4834,5.5082,5.5396,5.5852,5.5976,5.6018,5.6018,5.6018,5.6121,5.6366,5.6328,5.6432,5.6656,5.6925,5.6925,5.6676,5.7132,5.7111,5.6676,5.6863,5.6987,5.7028,5.6535,5.6598,5.7028,5.6515,5.6183,5.5956,5.5417,5.4958,5.4544,5.3817,5.3116,5.2454,5.2185,5.1957,5.1729,5.1253,5.1294,5.1419,5.0963,5.0694,5.0509,5.024,5.0197,5.0197,4.9928,5.0197,5.0488,5.0197,5.028,5.0465,5.0734,5.0796,5.0879,5.1148,5.1189,5.1294,5.1481,5.1129,5.0796,5.0796,5.0074,4.9516,4.9516,4.9267,4.9102,4.9102,4.8666,4.8418,4.85,4.8003,4.7527,4.7154,4.585,4.4691,4.3741,4.2849,4.2062,4.1439,4.1651,4.1653,4.1485,4.1485,4.163,4.1878,4.1816,4.1671,3.2154,3.2168,3.2774,3.4335,3.5894,3.7616,3.9813,4.1214,4.2619,4.4691,4.6513,4.8375,5.0403,5.1564,5.2495,5.3406,5.39,5.4231,5.4355,5.4169,5.3838,5.3427,5.3527,5.3941,5.4731,5.5189,5.5645,5.62,5.6577,5.6763,5.6763,5.6888,5.709,5.7376,5.7235,5.7277,5.7583,5.7914,5.7914,5.7583,5.7914,5.7852,5.7376,5.7128,5.7272,5.7645,5.6805,5.6908,5.7645,5.6908,5.6598,5.6515,5.5852,5.5438,5.5127,5.4438,5.361,5.2826,5.2451,5.2288,5.2102,5.1646,5.1812,5.2102,5.1626,5.1398,5.1253,5.1046,5.1046,5.1067,5.0838,5.1046,5.1212,5.088,5.0775,5.0879,5.1232,5.1398,5.1584,5.1936,5.2102,5.2143,5.2019,5.1708,5.1439,5.1315,5.0654,5.0095,4.9971,4.9557,4.9288,4.9288,4.8852,4.8728,4.9081,4.848,4.8024,4.79,4.6864,4.583,4.4879,4.3968,4.3221,4.266,4.2828,4.2851,4.2745,4.2745,4.2849,4.3056,4.2934,4.283,3.3114,3.3356,3.4108,3.7276,3.8733,4.0226,4.3428,4.4526,4.5663,4.8355,4.935,5.0116,5.1501,5.2516,5.3447,5.4314,5.4855,5.5334,5.5769,5.5038,5.4314,5.3835,5.3468,5.3385,5.3794,5.5082,5.6246,5.7086,5.7169,5.719,5.719,5.7603,5.7852,5.7872,5.8312,5.856,5.856,5.8581,5.8581,5.856,5.8581,5.8328,5.7852,5.7012,5.6821,5.7169,5.6308,5.6407,5.719,5.6784,5.6598,5.6598,5.6556,5.5997,5.521,5.5169,5.4565,5.3752,5.3731,5.3486,5.3077,5.2599,5.2787,5.3077,5.2599,5.2143,5.1874,5.2309,5.1791,5.1212,5.1646,5.1771,5.1771,5.1771,5.175,5.1771,5.1771,5.2143,5.2454,5.2497,5.2849,5.2992,5.2557,5.2454,5.2288,5.1853,5.1377,5.0901,5.0444,5.0033,4.9785,4.9785,4.9371,4.908,4.9102,4.906,4.8852,4.8397,4.7921,4.7217,4.6286,4.5396,4.4505,4.3594,4.312,4.2704,4.2306,4.2306,4.2099,4.1685,4.2518,4.2683,3.4941,3.6292,3.8154,4.1069,4.2249,4.3449,4.6367,4.7134,4.7776,4.9576,4.9639,4.9743,5.1087,5.1357,5.1853,5.3385,5.4527,5.5376,5.5831,5.5645,5.4813,5.3157,5.332,5.33,5.2534,5.3983,5.5596,5.7086,5.721,5.7479,5.8079,5.8266,5.8348,5.8348,5.8519,5.8601,5.8601,5.8912,5.8912,5.8601,5.8601,5.8348,5.7872,5.7608,5.7546,5.7624,5.7049,5.6921,5.719,5.7045,5.6821,5.6598,5.6598,5.6204,5.5666,5.5666,5.5082,5.4207,5.3897,5.3711,5.3527,5.3095,5.3077,5.3181,5.2992,5.2847,5.2743,5.2932,5.293,5.2865,5.2743,5.293,5.3072,5.2785,5.2746,5.2746,5.2746,5.287,5.295,5.295,5.3098,5.316,5.2994,5.295,5.2909,5.2743,5.206,5.1398,5.092,5.0756,5.0529,5.0218,4.9805,4.9433,4.9143,4.8811,4.8687,4.8832,4.7838,4.7092,4.6782,4.5933,4.5167,4.4546,4.4381,4.4215,4.4089,4.4089,4.4007,4.3862,4.4153,4.4215,3.7566,3.9478,4.163,4.4381,4.554,4.6554,4.8624,4.9224,4.9514,5.0073,4.9743,4.9494,5.0032,4.9596,4.9948,5.2309,5.3137,5.3985,5.5438,5.5352,5.4606,5.3157,5.332,5.3238,5.2371,5.3631,5.5121,5.661,5.7024,5.7541,5.8312,5.8684,5.8933,5.9098,5.9098,5.9181,5.9347,5.9471,5.9409,5.9098,5.8933,5.8705,5.8394,5.8038,5.7893,5.7852,5.7256,5.7065,5.719,5.7024,5.6925,5.6801,5.6801,5.6535,5.6121,5.5956,5.5393,5.4707,5.4396,5.4189,5.398,5.3548,5.353,5.3633,5.3468,5.3427,5.3447,5.3613,5.3734,5.3773,5.3696,5.3734,5.3731,5.3489,5.3302,5.3201,5.3201,5.3302,5.3427,5.3427,5.3551,5.3613,5.3447,5.3305,5.3201,5.3201,5.2806,5.2348,5.1915,5.1564,5.1232,5.092,5.024,4.9682,4.9371,4.8915,4.877,4.9081,4.8252,4.7589,4.7258,4.6534,4.5871,4.525,4.5104,4.5002,4.5002,4.5187,4.5083,4.4753,4.525,4.5209,4.0776,4.2805,4.4526,4.7175,4.85,4.9391,5.0258,5.0734,5.0756,4.991,4.9599,4.9205,4.8293,4.7444,4.792,5.115,5.1087,5.1729,5.4875,5.4562,5.398,5.3938,5.3613,5.3367,5.3305,5.4086,5.4976,5.5893,5.6759,5.7459,5.7976,5.885,5.9533,5.9988,5.9988,6.0195,6.0677,6.0216,5.9988,5.9988,5.9554,5.9326,5.9264,5.8348,5.7914,5.7852,5.7012,5.6846,5.7128,5.6784,5.6842,5.7169,5.719,5.6945,5.6535,5.6101,5.5624,5.521,5.521,5.4896,5.4438,5.398,5.4124,5.4393,5.3938,5.3794,5.3897,5.4331,5.4145,5.3897,5.4373,5.4166,5.3835,5.3835,5.3527,5.3284,5.3284,5.3569,5.3835,5.3835,5.4186,5.4352,5.3918,5.3507,5.3284,5.3284,5.3589,5.3693,5.3282,5.2454,5.1895,5.1833,5.0654,4.9847,4.9806,4.9371,4.9102,4.9102,4.9102,4.8687,4.7776,4.7299,4.6658,4.5788,4.5333,4.5084,4.5064,4.5498,4.5271,4.4443,4.5707,4.5603,4.3427,4.587,4.8024,4.9369,4.9908,5.0322,5.1232,5.0487,4.9453,4.8873,4.6864,4.5002,4.4422,4.496,4.6451,4.9329,5.1853,5.4334,5.6863,5.7003,5.661,5.5952,5.579,5.5459,5.4754,5.5521,5.6283,5.6842,5.7397,5.8224,5.9409,5.9678,5.9864,6.0015,5.9988,6.005,6.0175,6.005,5.9988,5.9988,5.9864,5.9636,5.9285,5.8705,5.8224,5.7852,5.7318,5.6925,5.6784,5.6966,5.6925,5.6759,5.7065,5.6945,5.6602,5.6453,5.5893,5.521,5.521,5.4896,5.4476,5.4352,5.4393,5.4393,5.3938,5.3794,5.3814,5.3938,5.3897,5.3897,5.4373,5.4393,5.4311,5.4311,5.4252,5.4169,5.4169,5.4252,5.4311,5.4311,5.4414,5.4455,5.4331,5.4252,5.4169,5.4169,5.4272,5.4169,5.3714,5.3445,5.3051,5.2392,5.1377,5.0509,4.9847,4.9371,4.9102,4.9102,4.9102,4.8853,4.8252,4.8107,4.761,4.6699,4.6555,4.6327,4.5955,4.6079,4.6017,4.579,4.6141,4.6121,4.6367,4.8521,5.0135,5.0839,5.117,5.115,5.0446,4.937,4.79,4.5829,4.3986,4.2393,4.1302,4.26,4.4711,4.7424,5.0589,5.3714,5.6614,5.7194,5.7277,5.7173,5.7152,5.6945,5.6428,5.7053,5.7649,5.8105,5.8162,5.8643,5.9636,5.9885,6.0175,6.0542,6.0195,5.9988,5.9988,5.9988,5.9988,5.9988,5.9988,5.9843,5.9595,5.9119,5.8664,5.8162,0.0,5.7277,5.6863,5.7107,5.7065,5.6883,5.7107,5.6945,5.6598,5.6598,5.6142,5.55,5.55,5.5331,5.5082,5.4852,5.452,5.4166,5.4124,5.3959,5.3794,5.3794,5.3938,5.4166,5.4414,5.4497,5.4497,5.4497,5.4497,5.4497,5.4497,5.4665,5.4875,5.5058,5.4958,5.4813,5.4813,5.4645,5.4497,5.4497,5.4497,5.4393,5.4145,5.3918,5.3465,5.2599,5.1667,5.0736,4.9868,4.9371,4.9102,4.9102,4.9102,4.8873,4.8418,4.8397,4.8065,4.732,4.7299,4.7175,4.6906,4.6906,4.6823,4.6617,4.6823,4.6679,4.9225,5.0716,5.146,5.1812,5.2143,5.1667,4.8852,4.7672,4.6036,4.2039,4.1024,4.0382,3.8737,4.0406,4.2971,4.5831,4.8727,5.1895,5.5645,5.6515,5.7136,5.8084,5.8121,5.81,5.8162,5.8597,5.9057,5.945,5.916,5.9098,5.9367,5.9781,6.0361,6.1094,6.0402,5.9988,5.9988,5.9988,5.9988,5.9988,5.9988,5.9988,5.9968,5.9512,5.9078,5.8664,5.8121,0.0,5.7293,5.7231,5.721,5.721,5.721,5.6945,5.6577,5.6515,5.6204,5.5811,5.5811,5.5811,5.5749,5.5396,5.4751,5.4124,5.45,5.4272,5.3897,5.3897,5.4145,5.4414,5.4476,5.4562,5.4603,5.4603,5.4603,5.4603,5.4603,5.4917,5.5334,5.5728,5.5541,5.5272,5.521,5.4917,5.4686,5.4686,5.4645,5.4603,5.4603,5.4166,5.3589,5.2764,5.1853,5.0943,5.0116,4.9537,4.9184,4.9184,4.9143,4.8936,4.85,4.848,4.8273,4.7796,4.7796,4.7776,4.7713,4.7713,4.7486,4.7113,4.7444,4.7175,5.0903,5.2145,5.2743,5.2454,5.2143,5.1108,4.7961,4.5727,4.3366,3.9978,3.8092,3.6954,3.6623,3.8754,4.1816,4.5686,4.9265,5.2971,5.7008,5.7603,5.8167,5.9471,5.9285,5.9202,5.9595,6.005,6.0387,6.047,6.0686,6.0542,5.9906,5.9947,6.0071,6.0216,6.0071,5.9988,5.9988,5.9988,5.9988,5.9988,5.9988,5.9988,5.9968,5.9512,5.9264,5.914,5.8266,0.0,5.7748,5.7355,5.721,5.721,5.721,5.6945,5.6535,5.6163,5.5728,5.5334,5.5334,5.5334,5.5376,5.5686,5.5666,5.5476,5.5165,5.4748,5.4373,5.4373,5.4145,5.4,5.4393,5.4769,5.5082,5.5082,5.5082,5.5082,5.5082,5.5124,5.5231,5.5314,5.5562,5.5666,5.5272,5.5459,5.5666,5.5666,5.531,5.5082,5.5082,5.4665,5.4166,5.3628,5.2782,5.204,5.1501,5.0343,4.9682,4.9682,4.933,4.906,4.8998,4.8998,4.877,4.8293,4.8273,4.8086,4.7713,4.7713,4.7672,4.7568,4.7258,4.7031,5.1853,5.2826,5.3364,5.2661,5.1957,5.0279,4.5872,4.3285,4.0717,3.6804,3.5293,3.4755,3.5019,3.7471,4.0516,4.3698,4.6699,5.0384,5.5431,5.5927,5.6817,5.9657,6.0009,6.0195,6.0624,6.0692,6.0878,6.1355,6.1328,6.1017,6.0408,6.034,6.0237,5.9988,6.0242,6.0263,5.9988,5.9988,5.9988,5.9988,5.9988,5.9988,5.9988,5.9761,5.9533,5.9264,5.8829,0.0,5.7872,5.7645,5.7417,5.721,5.721,5.6945,5.6556,5.6349,5.5976,5.5604,5.5831,5.5769,5.5645,5.6101,5.579,5.5145,5.4893,5.452,5.4124,5.4124,5.4145,5.4207,5.4435,5.4665,5.4855,5.4855,5.4855,5.4979,5.5459,5.5562,5.5707,5.6159,5.6266,5.6183,5.5976,5.5914,5.5893,5.5893,5.5707,5.5479,5.5231,5.5,5.4524,5.3592,5.3116,5.2601,5.1853,5.0756,5.0094,5.0094,4.9474,4.9102,4.9102,4.9102,4.8977,4.877,4.8749,4.8645,4.8418,4.819,4.8065,4.8045,4.7589,4.7237,5.2516,5.3279,5.3755,5.2868,5.1729,4.939,4.3865,4.1131,3.8498,3.4025,3.3176,3.3445,3.4123,3.6432,3.913,4.1977,4.4276,4.7713,5.3525,5.4293,5.5679,5.9533,6.0402,6.0858,6.1239,6.1127,6.1272,6.1949,6.1576,6.1162,6.0837,6.0651,6.0361,6.0009,6.0367,6.0361,5.9988,5.9988,5.9988,5.9988,5.9988,5.9988,5.9988,5.9988,5.9781,5.9429,5.9243,0.0,0.0,5.7831,5.7521,5.721,5.721,5.6945,5.6602,5.6498,5.6142,5.5811,5.6163,5.6059,5.5811,5.6183,5.5621,5.4789,5.4789,5.4479,5.4107,5.4107,5.4293,5.4497,5.4497,5.4559,5.4645,5.4645,5.4727,5.4996,5.5749,5.5893,5.6101,5.6801,5.668,5.6432,5.6432,5.6225,5.608,5.6183,5.6018,5.5769,5.5396,5.5107,5.4524,5.3571,5.3385,5.3033,5.2286,5.1272,5.0651,5.0548,4.9743,4.9205,4.9101,4.9102,4.9102,4.9102,4.9102,4.9102,4.9102,4.8728,4.8542,4.8542,4.8065,4.7651,5.3015,5.3755,5.4231,5.3344,5.1503,4.848,4.2969,3.9989,3.7177,3.2988,3.2471,3.3167,3.4495,3.5619,3.7782,4.2127,4.4443,4.761,5.309,5.4938,5.6784,5.9657,6.0402,6.0858,6.1239,6.1659,6.1907,6.2011,6.1576,6.128,6.1266,6.0506,6.003,5.9988,6.003,6.003,5.9988,5.9988,5.9988,5.9988,5.9988,5.9988,5.9988,5.9988,5.9968,5.9885,5.9036,5.8622,0.0,5.7603,5.7231,5.721,5.721,5.6945,5.6535,5.6121,5.5666,5.5272,5.5314,5.5314,5.5272,5.5314,5.5541,5.5769,5.5769,5.5459,5.5062,5.5062,5.4813,5.4497,5.4497,5.4834,5.5148,5.5148,5.5459,5.579,5.5873,5.5893,5.5914,5.5997,5.5997,5.5956,5.5956,5.6266,5.666,5.7024,5.6407,5.5893,5.5831,5.4707,5.4042,5.4355,5.398,5.3711,5.3628,5.241,5.1501,5.1044,5.0219,4.9537,4.9122,4.9102,4.9102,4.9102,4.9102,4.9102,4.9102,4.906,4.9039,4.9018,4.8542,4.8314,5.3134,5.4441,5.5062,5.3858,5.1232,4.761,4.2368,3.9202,3.6266,3.2437,3.1988,3.2712,3.4123,3.4646,3.6204,4.0185,4.0802,4.2952,4.9245,5.0113,5.2081,5.7343,5.8581,5.974,6.1555,6.1907,6.2114,6.241,6.199,6.1742,6.1742,6.063,6.0113,6.0402,6.016,5.9988,5.9988,5.9988,5.9988,5.9988,5.9988,5.9988,5.9988,5.9988,5.9988,5.9968,5.9595,5.9119,0.0,5.8183,5.7707,5.721,5.721,5.6945,5.6535,5.6059,5.5604,5.5251,5.5521,5.5248,5.4852,5.5459,5.5352,5.5062,5.5062,5.4938,5.4769,5.4769,5.4645,5.4497,5.4497,5.4645,5.4855,5.5124,5.5355,5.5562,5.5831,5.6121,5.6308,5.6308,5.6308,5.639,5.6635,5.6639,5.6639,5.6801,5.6759,5.649,5.5976,5.5393,5.5041,5.4938,5.4252,5.3918,5.4186,5.2989,5.2267,5.235,5.1232,5.0363,4.9887,4.9887,4.9639,4.9122,4.9102,4.9102,4.9102,4.9102,4.9102,4.9102,4.8915,4.8666,5.2389,5.4107,5.502,5.39,5.088,4.6947,4.2184,3.8854,3.5811,3.2292,3.1905,3.2595,3.3874,3.4102,3.5247,3.8737,3.8837,4.0593,4.6658,4.7382,4.939,5.4941,5.6366,5.7914,6.0542,6.1535,6.2197,6.2645,6.2286,6.2073,6.2197,6.0941,6.0278,6.0491,6.0154,5.9988,5.9988,5.9988,5.9988,5.9988,5.9988,5.9988,5.9988,5.9988,5.9988,5.9968,5.9699,5.9202,0.0,5.8286,5.779,5.719,5.7065,5.6842,5.6539,5.5914,5.5562,5.5438,5.5624,5.5248,5.4831,5.5645,5.5269,5.4541,5.4665,5.4624,5.4497,5.4497,5.4707,5.4914,5.4914,5.5017,5.5121,5.5189,5.5314,5.55,5.5831,5.6163,5.6432,5.6556,5.6498,5.6535,5.6945,5.668,5.6432,5.6577,5.6594,5.6449,5.5956,5.5666,5.5479,5.5417,5.4562,5.4083,5.4269,5.3323,5.2746,5.2787,5.1729,5.0879,5.0424,5.0403,5.0052,4.933,4.9309,4.9247,4.9102,4.9102,4.9102,4.9102,4.9102,4.8915,5.0508,5.2451,5.3711,5.3302,5.0447,4.6637,4.2534,3.9119,3.5894,3.2657,3.2367,3.2981,3.3936,3.4102,3.5122,3.8286,3.9954,4.229,4.643,4.8604,5.0635,5.2974,5.4003,5.5431,5.7707,6.0397,6.2197,6.2645,6.2286,6.2197,6.2679,6.1423,6.0464,6.0009,5.9988,5.9988,5.9988,5.9988,5.9988,5.9988,5.9988,5.9988,5.9988,5.9988,5.9988,5.9947,5.9015,5.8622,0.0,5.7583,5.721,5.7169,5.6763,5.6598,5.6498,5.5562,5.55,5.5831,5.5376,5.521,5.5272,5.5749,5.5269,5.4583,5.5041,5.4875,5.4497,5.4497,5.5165,5.5893,5.5893,5.6225,5.6349,5.5417,5.5562,5.5893,5.5893,5.5893,5.6038,5.6494,5.6225,5.6059,5.6539,5.6204,5.6059,5.6515,5.5811,5.5396,5.5831,5.5103,5.4872,5.579,5.5038,5.4311,5.3835,5.3427,5.2808,5.1874,5.1355,5.0879,5.0424,5.0403,5.0218,4.9806,4.9785,4.9557,4.9102,4.9102,4.9102,4.9102,4.9102,4.9102,4.7134,4.8934,4.9845,4.8768,4.643,4.3511,4.0072,3.7736,3.5506,3.2615,3.2374,3.2899,3.3507,3.4143,3.5702,3.9192,4.0675,4.2474,4.5664,4.7962,5.0385,5.3258,5.7438,6.0382,6.1106,6.1955,6.2555,6.2679,6.2555,6.2265,6.1762,6.1328,6.1038,6.0893,6.032,5.9988,5.9988,5.9988,5.9988,5.9988,5.9988,5.9988,5.9988,5.9988,5.9823,5.9512,5.9202,0.0,0.0,5.779,5.7479,5.7169,5.6763,5.6598,5.6539,5.5914,5.5769,5.5914,5.6101,5.5935,5.5749,5.6225,5.5956,5.5414,5.5251,5.4875,5.4583,5.4896,5.5666,5.637,5.637,5.6473,5.6598,5.6573,5.6469,5.637,5.637,5.6594,5.6759,5.6618,5.6473,5.6515,5.6945,5.666,5.6308,5.6142,5.6142,5.5976,5.55,5.5145,5.5207,5.5831,5.5062,5.4583,5.4751,5.3799,5.3199,5.3176,5.2474,5.1853,5.1377,5.1357,5.1005,5.0218,4.9929,4.9723,4.9578,4.9267,4.9102,4.9102,4.9102,4.9102,4.378,4.5788,4.6699,4.5975,4.4216,4.1876,3.8891,3.697,3.5154,3.276,3.2512,3.2836,3.3321,3.4019,3.5448,3.8195,3.9868,4.171,4.4277,4.7071,5.0157,5.3649,5.81,6.1023,6.1375,6.2038,6.2431,6.2431,6.2431,6.2093,6.1322,6.1162,6.1059,6.1059,6.0382,5.9988,5.9988,5.9988,5.9988,5.9988,5.9988,5.9988,5.9988,5.9802,5.9574,5.9285,5.8933,0.0,0.0,5.7546,5.7235,5.6925,5.6494,5.6353,5.6287,5.5997,5.6018,5.6204,5.6494,5.639,5.6246,5.6676,5.6535,5.608,5.5604,5.5145,5.4914,5.5724,5.6366,5.6929,5.726,5.7364,5.7359,5.7438,5.7152,5.6821,5.6821,5.6904,5.6945,5.6867,5.6821,5.6904,5.7148,5.6863,5.6494,5.6204,5.6101,5.5914,5.5521,5.5314,5.5376,5.5852,5.5227,5.4896,5.5189,5.411,5.3382,5.332,5.2806,5.2288,5.1812,5.1791,5.1439,5.0672,5.0426,5.0199,5.0033,4.9599,4.9267,4.9101,4.9288,4.9371,0.0,4.2619,4.3863,4.4215,4.3054,4.1125,3.8498,3.6556,0.0,3.305,3.2698,3.2878,3.3445,3.3874,3.4646,3.6246,3.8278,4.0454,4.2768,4.6409,5.0322,5.4314,5.6838,5.856,5.9326,6.0997,6.2052,6.2011,6.2011,6.1777,6.126,6.0899,6.0671,6.0657,6.0216,5.9988,5.9988,5.9988,5.9988,5.9988,5.9988,5.9988,5.9968,5.9512,5.9285,0.0,0.0,0.0,0.0,5.6929,5.6598,5.6535,5.608,5.5935,5.5997,5.5956,5.6246,5.6639,5.6639,5.6639,5.6701,5.7049,5.6883,5.6498,5.6059,5.5624,5.5521,5.6796,5.721,5.7459,5.8348,5.8601,5.8498,5.8038,5.7583,5.7231,5.721,5.6925,5.6805,5.7128,5.721,5.719,5.7169,5.6867,5.6602,5.6581,5.5769,5.5355,5.579,5.5438,5.5334,5.579,5.5438,5.5145,5.521,5.4334,5.3445,5.2599,5.2516,5.2288,5.1812,5.1791,5.1605,5.117,5.1129,5.0838,5.0341,5.0012,4.9599,4.9164,4.964,4.9847,0.0,0.0,3.8419,3.7802,3.7343,3.668,0.0,3.4723,3.4087,3.294,3.2698,3.3153,3.4657,3.477,3.5884,3.9678,4.0755,4.2039,4.467,4.9658,5.4189,5.7272,5.9968,6.1251,6.047,6.1665,6.239,6.2031,6.2011,6.1659,6.0878,6.076,6.0553,6.0175,6.005,5.9988,5.9988,5.9988,5.9988,5.9988,5.9988,5.9988,5.9968,5.9512,5.9098,0.0,0.0,0.0,5.6888,5.668,5.6598,5.6535,5.608,5.6304,5.6863,5.6556,5.6722,5.707,5.707,5.707,5.7003,5.6801,5.6432,5.6101,5.6349,5.6101,5.5873,5.6556,5.7215,5.7852,5.8457,5.8601,5.8581,5.8477,5.8079,5.7645,5.7272,5.7397,5.7525,5.7252,5.721,5.7086,5.678,5.666,5.6473,5.6121,5.5562,5.5251,5.5355,5.4958,5.4831,5.5289,5.4938,5.4813,5.5189,5.4334,5.3589,5.3077,5.2704,5.2288,5.1812,5.1791,5.175,5.1646,5.1294,5.0715,4.9929,5.0156,5.0032,4.964,5.0052,5.0259,0.0,3.3114,3.5454,3.4921,3.4977,3.4941,3.4268,3.3756,3.3306,3.2801,3.2698,3.3085,3.4258,3.4812,3.6034,3.8933,4.0649,4.3137,4.7548,5.1831,5.5679,5.8871,6.076,6.1754,6.163,6.2079,6.2176,6.1694,6.1493,6.1106,6.0429,6.0361,6.0257,5.9988,5.9988,5.9988,5.9988,5.9988,5.9988,5.9988,5.9988,5.9885,5.9657,5.9202,5.8726,0.0,0.0,0.0,5.6556,5.6142,5.608,5.6246,5.5997,5.6204,5.6635,5.6801,5.6883,5.6925,5.6925,5.6925,5.6925,5.6883,5.6842,5.6904,5.7385,5.7173,5.6863,5.7111,5.7546,5.8059,5.8746,5.8933,5.8974,5.9202,5.8891,5.8452,5.8203,5.8017,5.781,5.7562,5.7215,5.6904,5.6883,5.6722,5.6577,5.6511,5.6121,5.5831,5.5831,5.5248,5.4917,5.5189,5.4769,5.4603,5.4875,5.4417,5.3941,5.3486,5.3238,5.2782,5.2143,5.2122,5.2019,5.1812,5.1564,5.1087,5.0406,5.0611,5.0508,5.0095,5.0301,5.0506,3.0243,3.2202,3.4143,3.3853,3.4185,3.4454,3.3983,3.3271,3.2698,3.2698,3.276,3.3085,3.3963,3.5004,3.623,3.7798,4.0693,4.4835,5.088,5.3569,5.6176,5.9595,6.0615,6.1381,6.2313,6.2162,6.1824,6.1322,6.0941,6.0512,6.0009,5.9988,5.9988,5.9988,5.9926,5.9885,5.9885,5.9885,5.9885,5.9885,5.9823,5.9574,5.9181,5.8726,5.825,5.7748,0.0,0.0,5.6308,5.5541,5.5438,5.579,5.5873,5.5893,5.5997,5.6821,5.6842,5.6473,5.6473,5.6535,5.666,5.7008,5.7459,5.7976,5.8348,5.827,5.7997,5.7997,5.7997,5.8229,5.9078,5.9305,5.9409,5.9781,5.9574,5.9264,5.9119,5.8519,5.7955,5.781,5.7194,5.6784,5.707,5.6846,5.6722,5.707,5.6763,5.6515,5.6577,5.5831,5.5314,5.5314,5.4958,5.4707,5.4707,5.4645,5.4438,5.4045,5.3814,5.332,5.2433,5.2392,5.2205,5.1812,5.1791,5.1584,5.1108,5.117,5.0982,5.061,5.0672,5.092,3.1374,3.3161,3.4309,3.2712,3.2975,3.3486,3.3023,3.2801,3.2698,3.2698,3.3016,3.4149,3.6945,3.7318,3.8626,4.3014,4.6098,4.9494,5.3947,5.5869,5.7583,5.974,6.1423,6.2044,6.1112,6.1597,6.1824,6.1322,6.0941,6.0512,6.0009,5.9988,5.9988,5.9988,5.9616,5.9409,5.9409,5.9409,5.9409,5.9409,5.9015,5.8788,5.8705,5.8203,5.7748,5.7272,0.0,5.6142,5.5396,5.5272,5.5251,5.5355,5.5749,5.5893,5.5956,5.6494,5.639,5.5997,5.5997,5.6266,5.6598,5.666,5.7235,5.7914,5.8001,5.8224,5.8498,5.8498,5.8498,5.8622,5.916,5.9305,5.9326,5.9388,5.9347,5.9078,5.8312,5.8307,5.827,5.7459,5.719,5.7028,5.6743,5.6639,5.6618,5.668,5.6308,5.6142,5.6535,5.6121,5.579,5.579,5.5728,5.5686,5.5686,5.531,5.5062,5.4979,5.3903,5.2868,5.1957,5.1915,5.1874,5.1791,5.1791,5.1584,5.1108,5.1501,5.1667,5.1605,5.1998,5.2205,3.0436,3.1885,3.3265,0.0,0.0,3.461,3.3679,3.3265,3.3271,3.4001,3.4326,3.5252,3.7752,3.9243,4.1811,4.7072,5.0011,5.2557,5.521,5.6738,5.8266,6.018,6.0905,6.1375,6.1754,6.1479,6.1286,6.1301,6.0692,6.0216,6.0009,5.9761,5.974,5.9988,5.9305,5.9057,5.9305,5.8808,5.8684,5.8933,5.8705,5.8477,5.8203,5.7997,5.7546,5.6842,0.0,5.5831,5.5189,5.4938,5.4979,5.5251,5.5707,5.5749,5.5583,5.6038,5.608,5.5976,5.6428,5.6618,5.6722,5.7447,5.796,5.8348,5.8891,5.9181,5.9367,5.9367,5.9181,5.9036,5.9243,5.9305,5.9305,5.9305,5.9119,5.8808,5.8348,5.8245,5.8079,5.7666,5.7215,5.6883,5.6925,5.6743,5.668,5.6883,5.6738,5.6676,5.6904,5.6556,5.6266,5.6266,5.6038,5.5893,5.5893,5.5707,5.5352,5.4831,5.4027,5.324,5.2578,5.2557,5.2433,5.2185,5.2433,5.2433,5.2226,5.2433,5.2557,5.2557,5.2516,5.2642,3.0346,3.136,3.265,0.0,0.0,3.5459,3.5392,0.0,0.0,0.0,3.6685,3.7223,3.8978,4.1977,4.5663,5.0155,5.3072,5.5286,5.6805,5.8001,5.9259,6.0816,6.0692,6.0961,6.2245,6.1355,6.0816,6.1142,6.0444,5.9947,5.9843,5.9492,5.9409,5.9657,5.8871,5.8622,5.8974,5.8141,5.7955,5.841,5.8307,5.8079,5.7728,5.7728,5.7256,5.6411,5.6059,5.5583,5.5,5.4645,5.4707,5.5082,5.5562,5.5521,5.5231,5.5476,5.5728,5.5976,5.6552,5.6801,5.7074,5.8105,5.8576,5.8933,5.974,5.9988,5.9988,5.9988,5.9657,5.9326,5.9429,5.9388,5.9305,5.9305,5.8953,5.8581,5.8477,5.825,5.7997,5.7769,5.7277,5.6991,5.7169,5.6945,5.6867,5.7148,5.721,5.721,5.721,5.6925,5.6743,5.6743,5.6432,5.6183,5.6059,5.6059,5.5641,5.4727,5.4104,5.3631,5.3222,5.3201,5.2994,5.2495,5.2974,5.316,5.3036,5.316,5.3263,5.3323,5.2971,5.2992,3.3066,3.3542,3.3542,3.451,3.4164,0.0,3.8278,3.7782,0.0,3.9968,0.0,4.0942,4.2313,4.6534,5.0362,5.206,5.531,5.825,6.0118,6.0748,6.1286,6.1845,6.1886,6.1742,6.1425,6.0982,6.0719,6.0734,6.0278,5.9802,5.9367,5.9326,5.9119,5.8726,5.8203,5.7955,5.7997,5.75,5.7479,5.7934,5.75,5.7293,5.7252,5.7252,5.678,5.5956,5.5914,5.5393,5.4562,5.4497,5.4517,5.4603,5.5062,5.5231,5.5169,5.4748,5.5165,5.5852,5.5479,5.6428,5.781,5.7914,5.856,5.9347,5.9843,5.9988,5.9988,5.9988,5.9657,5.9409,5.9823,5.9616,5.9305,5.9305,5.8953,5.8498,5.8038,5.8266,5.8286,5.7417,5.7541,5.7666,5.7272,5.7169,5.7169,5.719,5.721,5.721,5.721,5.7169,5.7148,5.7148,5.7128,5.6966,5.6577,5.6535,5.6142,5.521,5.4293,5.3631,5.3222,5.3201,5.2994,5.2495,5.2974,5.2994,5.2536,5.2994,5.3385,5.3752,5.3711,5.3711,3.1353,3.2672,3.406,3.4941,3.5785,0.0,0.0,3.9019,4.0051,4.2497,4.3489,4.4483,4.6409,4.8748,5.1232,5.3781,5.6511,5.8995,6.0811,6.1452,6.1804,6.199,6.1514,6.123,6.128,6.0692,6.0408,6.0698,5.9988,5.9492,5.9305,5.8746,5.8498,5.8601,5.7852,5.7603,5.7893,5.7438,5.7148,5.7095,5.7173,5.721,5.719,5.6945,5.666,5.6287,5.5707,5.5248,5.4917,5.4624,5.4497,5.4517,5.4686,5.4938,5.521,5.5331,5.5604,5.5997,5.6656,5.7152,5.7603,5.8498,5.8622,5.8643,5.9678,5.9595,5.9243,5.9823,5.9657,5.9347,5.9512,5.8995,5.8436,5.8436,5.8059,5.7686,5.75,5.7603,5.7707,5.7645,5.7541,5.75,5.7603,5.7397,5.721,5.721,5.721,5.721,5.721,5.721,5.721,5.721,5.721,5.7128,5.6987,5.6743,5.6432,5.608,5.5186,5.4334,5.361,5.3838,5.3675,5.2953,5.3364,5.3341,5.2953,5.3118,5.3406,5.3794,5.3548,5.3548,3.0484,3.1719,3.3341,0.0,0.0,0.0,3.9989,4.1314,4.3054,4.6057,4.6823,4.7506,4.9204,5.0363,5.1978,5.4754,5.7359,5.9574,6.11,6.1597,6.1742,6.1597,6.1065,6.0754,6.0873,6.0361,6.005,6.0237,5.9657,5.9181,5.8871,5.81,5.781,5.8141,5.7277,5.7028,5.7484,5.7173,5.6801,5.637,5.6801,5.7008,5.7008,5.6842,5.6639,5.6328,5.5707,5.5248,5.4958,5.4645,5.4497,5.4497,5.4497,5.4769,5.5231,5.5393,5.5749,5.6204,5.6821,5.7049,5.7173,5.8125,5.8105,5.7914,5.9181,5.9119,5.8767,5.9554,5.9429,5.9078,5.9078,5.8601,5.8121,5.8121,5.7645,5.7231,5.7397,5.7541,5.7686,5.7852,5.7748,5.7645,5.7666,5.7417,5.721,5.721,5.721,5.721,5.721,5.721,5.721,5.721,5.721,5.721,5.721,5.6945,5.6743,5.6622,5.5997,5.5207,5.4272,5.4417,5.4148,5.3406,5.3817,5.3817,5.3385,5.353,5.3734,5.4,5.3734,5.3778,3.1284,3.1077,3.1271,3.3542,0.0,0.0,4.3884,4.5022,4.6306,5.088,5.0758,4.9972,5.0341,5.1584,5.3095,5.492,5.7902,6.0299,6.1183,6.128,6.1142,6.076,6.0698,6.0512,6.0056,6.0015,5.9802,5.9326,5.9285,5.8891,5.7934,5.7438,5.719,5.719,5.6345,5.6121,5.6602,5.6577,5.6349,5.5893,5.637,5.6577,5.6622,5.7008,5.6718,5.5893,5.5893,5.5352,5.452,5.4497,5.4497,5.4497,5.4497,5.4769,5.5124,5.4665,5.5393,5.6453,5.5541,5.5811,5.6577,5.6598,5.6863,5.7376,5.8307,5.8601,5.8705,5.9181,5.8974,5.8601,5.8622,5.8622,5.8601,5.8601,5.7872,5.7334,5.779,5.827,5.8431,5.7976,5.8266,5.8286,5.7376,5.721,5.721,5.721,5.721,5.721,5.721,5.721,5.721,5.721,5.721,5.721,5.721,5.721,5.7049,5.6618,5.6598,5.6183,5.5251,5.4748,5.4269,5.3814,5.4249,5.4249,5.3794,5.4249,5.45,5.4476,5.45,5.45,3.1616,3.2465,3.3895,3.5169,3.844,4.2189,4.5623,4.641,0.0,0.0,5.2661,5.2309,5.272,5.3403,5.4293,5.55,5.7546,5.945,6.0713,6.0878,6.0837,6.0692,6.0429,6.0133,6.0009,5.9699,5.945,5.9305,5.8705,5.8038,5.7438,5.7008,5.6639,5.6308,5.6038,5.5976,5.6101,5.6101,5.5873,5.5417,5.5873,5.6101,5.6101,5.589,5.5828,5.5852,5.5207,5.4934,5.4979,5.4645,5.4497,5.4497,5.4497,5.4769,5.5165,5.5041,5.5479,5.6059,5.579,5.5873,5.6204,5.6821,5.7086,5.7438,5.8726,5.8643,5.8328,5.9471,5.9222,5.8767,5.9409,5.9098,5.8519,5.8208,5.7645,5.7231,5.7376,5.7521,5.7666,5.7852,5.7748,5.7624,5.7686,5.7417,5.721,5.721,5.721,5.721,5.721,5.721,5.721,5.721,5.721,5.721,5.721,5.721,5.7148,5.7049,5.6763,5.6183,5.5251,5.5062,5.4627,5.3814,5.3938,5.3796,5.3385,5.353,5.3714,5.4,5.3737,5.3734,3.1981,3.3196,3.5034,3.7177,4.0489,4.4175,4.8044,4.945,5.0857,5.3983,5.4296,5.4172,5.4813,5.4976,5.5434,5.6511,5.7918,5.9243,6.0284,6.0429,6.0429,6.0429,6.0154,5.9926,5.974,5.9471,5.914,5.8788,5.8038,5.7417,5.6987,5.639,5.5914,5.5624,5.5248,5.5165,5.5331,5.5352,5.5207,5.4938,5.5396,5.5521,5.5352,5.5438,5.5541,5.5583,5.4831,5.4665,5.4896,5.4624,5.4497,5.4497,5.4497,5.4769,5.5189,5.4979,5.5207,5.5604,5.5393,5.5352,5.5455,5.618,5.6531,5.6904,5.8079,5.8059,5.7831,5.8871,5.8767,5.8431,5.9015,5.8746,5.8312,5.8183,5.7666,5.7252,5.7438,5.7479,5.7562,5.7831,5.7666,5.75,5.7603,5.7376,5.721,5.721,5.721,5.721,5.721,5.721,5.721,5.721,5.721,5.721,5.721,5.721,5.721,5.721,5.6966,5.649,5.579,5.5396,5.4855,5.4083,5.4083,5.3962,5.3716,5.3882,5.4027,5.4062,5.4027,5.4027,3.2595,3.3658,3.5386,3.9451,4.2352,4.5582,5.0798,5.332,5.481,5.5728,5.5666,5.5707,5.6556,5.6432,5.6618,5.7836,5.8746,5.945,5.9864,5.9926,5.9906,5.9864,5.9906,5.974,5.9285,5.916,5.8767,5.7893,5.7355,5.6904,5.6494,5.5624,5.5148,5.5148,5.4272,5.4021,5.45,5.4497,5.4497,5.452,5.4938,5.4917,5.4541,5.5372,5.5541,5.5103,5.4686,5.4497,5.4497,5.4497,5.4497,5.4497,5.4497,5.4769,5.5124,5.4665,5.4813,5.5124,5.4665,5.4497,5.4583,5.5082,5.5583,5.6142,5.6983,5.7272,5.7355,5.7831,5.7914,5.7914,5.7997,5.7955,5.8017,5.8498,5.7872,5.7314,5.7748,5.7831,5.7831,5.7831,5.7831,5.7707,5.7272,5.721,5.721,5.721,5.721,5.721,5.721,5.721,5.721,5.721,5.721,5.721,5.721,5.721,5.721,5.721,5.721,5.7028,5.6618,5.5769,5.5103,5.4645,5.4603,5.4583,5.4645,5.502,5.4979,5.4559,5.5,5.4958,3.4554,3.5769,3.7653,4.1382,4.5644,4.972,5.2677,5.4231,5.5207,5.579,5.6656,5.738,5.7587,5.8146,5.8664,5.8953,5.916,5.9347,5.9429,5.945,5.9305,5.8953,5.9222,5.9264,5.8808,5.8079,5.7562,5.7376,5.6614,5.5997,5.5521,5.4958,5.4645,5.4645,5.4083,5.4021,5.45,5.4497,5.4497,0.0,5.4603,5.4603,5.452,5.4707,5.4748,5.4645,5.4541,5.4497,5.4497,5.4497,5.4497,5.4497,5.4497,5.4769,5.5124,5.4665,5.4813,5.5124,5.4665,5.4497,5.4645,5.5476,5.6059,5.6618,5.7504,5.7748,5.7852,5.8307,5.8183,5.8059,5.8808,5.8431,5.8017,5.8498,5.7872,5.7231,5.7334,5.7355,5.7355,5.7355,5.7355,5.7314,5.7231,5.721,5.721,5.721,5.721,5.721,5.721,5.721,5.721,5.721,5.721,5.721,5.721,5.721,5.721,5.721,5.721,5.7028,5.6618,5.639,5.608,5.5624,5.5227,5.5227,5.5604,5.5334,5.5169,5.5041,5.5169,5.4958,3.5257,3.7223,4.0016,4.521,4.8976,5.1872,5.3711,5.4689,5.5396,5.608,5.7111,5.7955,5.8183,5.8643,5.8974,5.8974,5.8974,5.8974,5.8974,5.8974,5.8871,5.8643,5.8829,5.8705,5.7997,5.7479,5.6921,5.6304,5.5621,5.502,5.4541,5.413,5.3882,5.3882,5.3424,5.3507,5.4145,5.3755,5.3858,5.4497,5.4269,5.4269,5.4497,5.4497,5.4497,5.4497,5.4497,5.4497,5.4497,5.4497,5.4497,5.4497,5.4497,5.4645,5.4855,5.4603,5.4645,5.4834,5.4583,5.4497,5.4665,5.5579,5.6059,5.6432,5.7293,5.7562,5.7603,5.7852,5.7748,5.7666,5.8162,5.7914,5.7624,5.7872,5.7562,5.721,5.721,5.721,5.721,5.721,5.721,5.721,5.721,5.721,5.721,5.721,5.721,5.721,5.721,5.721,5.721,5.721,5.721,5.721,5.721,5.721,5.721,5.721,5.721,5.7107,5.6883,5.6883,5.6598,5.5914,5.5666,5.5666,5.5893,5.5645,5.5417,5.521,5.521,5.4958,3.5278,3.8464,4.2582,4.9037,5.1646,5.295,5.421,5.4875,5.5479,5.639,5.7277,5.8017,5.8415,5.856,5.8601,5.8601,5.8539,5.8498,5.8498,5.8498,5.841,5.827,5.8394,5.8079,5.7065,5.69,5.6366,5.5165,5.4562,5.4107,5.3734,5.3302,5.3118,5.3201,5.2723,5.2888,5.3693,5.2992,5.3178,5.4272,5.39,5.3983,5.4497,5.4414,5.4414,5.4497,5.4497,5.4497,5.4497,5.4497,5.4497,5.4497,5.4497,5.4497,5.4497,5.4497,5.4497,5.4497,5.4497,5.4538,5.4769,5.5624,5.5956,5.6163,5.6941,5.721,5.721,5.721,5.721,5.7231,5.7293,5.7272,5.7231,5.7293,5.7252,5.721,5.721,5.721,5.721,5.721,5.721,5.721,5.721,5.721,5.721,5.721,5.721,5.721,5.721,5.721,5.721,5.721,5.721,5.721,5.721,5.721,5.721,5.721,5.721,5.721,5.721,5.721,5.6859,5.6142,5.6059,5.6059,5.6121,5.6059,5.5769,5.5334,5.5334,5.5062,3.4968,3.983,4.5519,5.0404,5.2371,5.3344,5.4293,5.4875,5.5479,5.639,5.7277,5.7914,5.7976,5.8332,5.8601,5.8601,5.827,5.7976,5.7976,5.7976,5.7711,5.695,5.7525,5.7504,5.6204,5.5728,5.5227,5.4645,5.384,5.3367,5.3282,5.2826,5.2787,5.3201,5.2723,5.2743,5.3261,5.3157,5.3201,5.3364,5.3302,5.3716,5.45,5.4083,5.4104,5.4497,5.4497,5.4497,5.4497,5.4497,5.4497,5.4497,5.4497,5.4497,5.4497,5.4497,5.4497,5.4497,5.4497,5.4769,5.5186,5.5728,5.6163,5.6598,5.7045,5.721,5.721,5.721,5.721,5.7293,5.7707,5.75,5.7293,5.7707,5.75,5.721,5.721,5.721,5.721,5.721,5.721,5.721,5.721,5.721,5.721,5.721,5.721,5.721,5.721,5.721,5.721,5.721,5.721,5.721,5.721,5.721,5.721,5.721,5.721,5.721,5.721,5.721,5.7148,5.7024,5.6676,5.668,5.7024,5.668,5.6266,5.5811,5.5811,5.5562,3.7819,4.1669,4.5705,5.028,5.1915,5.2723,5.3858,5.4665,5.5314,5.5728,5.6328,5.7008,5.7748,5.7852,5.781,5.781,5.7645,5.7417,5.7194,5.7152,5.6929,5.6287,5.6556,5.6345,5.5227,5.5165,5.4793,5.384,5.3633,5.332,5.2826,5.2599,5.2578,5.2808,5.235,5.2454,5.3201,5.2684,5.2559,5.2806,5.3077,5.3261,5.3385,5.3447,5.3838,5.4497,5.4497,5.4497,5.4497,5.4497,5.4497,5.4497,5.4497,5.4497,5.4497,5.4497,5.4497,5.4497,5.4497,5.4645,5.4938,5.5666,5.6038,5.6328,5.6983,5.721,5.721,5.721,5.721,5.7252,5.7459,5.7355,5.7252,5.7459,5.7355,5.721,5.721,5.721,5.721,5.721,5.721,5.721,5.721,5.721,5.721,5.721,5.721,5.721,5.721,5.721,5.721,5.721,5.721,5.721,5.721,5.721,5.721,5.721,5.721,5.721,5.721,5.721,5.721,5.721,5.7028,5.7003,5.721,5.6511,5.6225,5.6266,5.5476,5.5145,3.9078,4.1874,4.4443,4.8666,5.0694,5.1957,5.3196,5.4169,5.4917,5.5169,5.5479,5.6038,5.7028,5.7107,5.7065,5.719,5.721,5.707,5.666,5.6598,5.637,5.579,5.5728,5.5393,5.4583,5.4731,5.442,5.3427,5.3424,5.3176,5.2536,5.2371,5.2309,5.2309,5.1978,5.2143,5.2849,5.2143,5.204,5.2495,5.2723,5.2808,5.2704,5.2932,5.3447,5.4169,5.4293,5.4373,5.4497,5.4497,5.4497,5.4497,5.4497,5.4497,5.4497,5.4497,5.4497,5.4497,5.4497,5.4583,5.4789,5.5476,5.5873,5.6204,5.6863,5.7107,5.721,5.721,5.721,5.721,5.721,5.721,5.721,5.721,5.721,5.721,5.721,5.721,5.721,5.721,5.721,5.721,5.721,5.721,5.721,5.721,5.721,5.721,5.721,5.721,5.721,5.721,5.721,5.721,5.721,5.721,5.721,5.721,5.721,5.721,5.721,5.721,5.721,5.721,5.721,5.721,5.721,5.6552,5.637,5.6556,5.5517,5.5227,3.625,3.9016,4.1853,4.5166,4.8583,5.1398,5.235,5.3238,5.4127,5.5024,5.5231,5.5272,5.5334,5.6038,5.6763,5.7128,5.721,5.707,5.666,5.6598,5.6246,5.5355,5.5251,5.5041,5.4562,5.4104,5.3835,5.3773,5.301,5.2536,5.2495,5.2081,5.1833,5.1833,5.1812,5.1833,5.1874,5.1833,5.204,5.2495,5.206,5.2329,5.316,5.2746,5.2785,5.3305,5.3672,5.4083,5.4497,5.4497,5.4497,5.4497,5.4497,5.4497,5.4497,5.4497,5.4497,5.4497,5.4497,5.4789,5.5189,5.5231,5.5831,5.6556,5.6618,5.6904,5.721,5.721,5.721,5.721,5.721,5.721,5.721,5.721,5.721,5.721,5.721,5.721,5.721,5.721,5.721,5.721,5.721,5.721,5.721,5.721,5.721,5.721,5.721,5.721,5.721,5.721,5.721,5.721,5.721,5.721,5.721,5.721,5.721,5.721,5.721,5.721,5.721,5.721,5.721,5.721,5.721,5.7148,5.6945,5.6598,5.6515,5.6494,3.5769,3.7715,4.0072,4.3842,4.6637,4.8955,5.0734,5.2079,5.3157,5.3778,5.413,5.4479,5.5107,5.5728,5.6101,5.5931,5.6159,5.62,5.5769,5.5434,5.502,5.4376,5.4068,5.3716,5.3261,5.3344,5.3302,5.2992,5.2681,5.2371,5.206,5.1605,5.1357,5.1357,5.1357,5.1357,5.1357,5.1646,5.1729,5.1605,5.1729,5.1812,5.1853,5.1998,5.2143,5.2329,5.3095,5.3651,5.4062,5.4396,5.4497,5.4497,5.4497,5.4497,5.4497,5.4497,5.4497,5.4497,5.4497,5.4624,5.4789,5.5082,5.5438,5.5811,5.6411,5.6701,5.6863,5.7128,5.721,5.721,5.721,5.721,5.721,5.721,5.721,5.721,5.721,5.721,5.721,5.721,5.721,5.721,5.721,5.721,5.721,5.721,5.721,5.721,5.721,5.721,5.721,5.721,5.721,5.721,5.721,5.721,5.721,5.721,5.721,5.721,5.721,5.721,5.7334,5.7645,5.7355,5.721,5.721,5.6945,5.6863,5.6966,5.6411,5.6142,3.4817,3.6328,3.844,4.2412,4.4422,4.6264,4.9473,5.0696,5.1441,5.2495,5.3075,5.3548,5.4172,5.4692,5.5086,5.5396,5.5707,5.5728,5.5272,5.4813,5.4311,5.3856,5.3323,5.2888,5.2766,5.2868,5.2849,5.2516,5.2495,0.0,5.1605,5.1419,5.1251,5.1086,5.0963,5.088,5.088,5.1336,5.1419,5.1108,5.1584,5.1646,5.1357,5.1667,5.1791,5.1853,5.2642,5.3282,5.3835,5.4311,5.4497,5.4497,5.4497,5.4497,5.4497,5.4497,5.4497,5.4497,5.4497,5.4497,5.4562,5.4875,5.5062,5.5355,5.6121,5.6498,5.668,5.7111,5.721,5.721,5.721,5.721,5.721,5.721,5.721,5.721,5.721,5.721,5.721,5.721,5.721,5.721,5.721,5.721,5.721,5.721,5.721,5.721,5.721,5.721,5.721,5.721,5.721,5.721,5.721,5.721,5.721,5.721,5.721,5.721,5.721,5.721,5.7417,5.7893,5.7438,5.7272,5.7438,5.7008,5.6945,5.719,5.6614,5.6242,0.0,0.0,0.0,4.0527,4.183,4.3487,4.8439,4.8874,4.8873,5.1212,5.206,5.2392,5.2474,5.2891,5.3781,5.5541,5.5811,5.5666,5.521,5.4727,5.4269,5.3814,5.2989,5.264,5.3095,5.2766,5.2474,5.2454,5.2456,5.204,5.1108,5.1501,5.1522,5.1087,5.0631,5.0382,5.0382,5.086,5.1065,5.1065,5.1564,5.1791,5.1791,5.1791,5.1791,5.1833,5.2288,5.2992,5.3794,5.4269,5.45,5.4497,5.4497,5.4497,5.4497,5.4497,5.4497,5.4497,5.4497,5.4497,5.4497,5.4497,5.4813,5.5272,5.5728,5.6204,5.666,5.7065,5.719,5.721,5.721,5.721,5.721,5.721,5.721,5.721,5.721,5.721,5.721,5.721,5.721,5.721,5.721,5.721,5.721,5.721,5.721,5.721,5.721,5.721,5.721,5.721,5.721,5.721,5.721,5.721,5.721,5.7231,5.721,5.721,5.7231,5.7231,5.7438,5.7914,5.7459,5.7459,5.7914,5.7438,5.721,5.721,5.719,5.6987,3.3362,0.0,0.0,0.0,0.0,0.0,4.324,4.3922,4.502,4.8604,4.9453,5.0136,5.2122,5.2891,5.3367,5.3864,5.3947,5.3905,5.3781,5.3344,5.3013,5.2888,5.235,5.204,5.2164,5.206,5.1853,0.0,5.117,5.0736,5.0178,5.0281,5.0281,5.0157,5.0322,5.0259,4.9971,5.0384,5.0589,5.0589,5.1087,5.1481,5.1791,5.1791,5.1791,5.1833,5.2288,5.264,5.293,5.3693,5.4186,5.4497,5.4497,5.4497,5.4497,5.4497,5.4497,5.4497,5.4497,5.4497,5.4497,5.4497,5.4603,5.4769,5.5248,5.5728,5.6183,5.6639,5.6987,5.721,5.721,5.721,5.721,5.721,5.721,5.721,5.721,5.721,5.721,5.721,5.721,5.721,5.721,5.721,5.721,5.721,5.721,5.721,5.721,5.721,5.721,5.721,5.721,5.721,5.721,5.721,5.7355,5.7686,5.7397,5.75,5.8183,5.7872,5.8105,5.8912,5.81,5.7934,5.839,5.7583,5.721,5.719,5.6904,5.6863,0.0,0.0,0.0,0.0,0.0,0.0,4.14,4.177,4.2493,4.6202,4.7258,4.8189,5.0406,5.1338,5.1835,5.1998,5.2185,5.2516,5.3118,5.2808,5.2495,5.2495,5.2081,5.1729,5.1522,5.1522,5.1253,5.0613,5.0466,5.0301,5.0074,4.9723,4.9599,4.9785,4.9846,4.9764,4.9516,4.9929,5.0239,5.0403,5.0879,5.1357,5.1791,5.1791,5.1791,5.1812,5.2081,5.2309,5.2536,5.3051,5.3631,5.4207,5.4207,5.4311,5.4497,5.4497,5.4497,5.4497,5.4497,5.4497,5.4497,5.4497,5.4497,5.4624,5.5289,5.5686,5.6038,5.668,5.7028,5.721,5.721,5.721,5.721,5.721,5.721,5.721,5.721,5.721,5.721,5.721,5.721,5.721,5.721,5.721,5.7272,5.7459,5.7334,5.7272,5.7459,5.7314,5.721,5.721,5.721,5.721,5.721,5.7826,5.8022,5.7629,5.8135,5.8394,5.8312,5.8224,5.8457,5.8995,5.8291,5.7934,5.7997,5.7459,5.721,5.719,5.6966,5.6987,0.0,0.0,0.0,0.0,0.0,0.0,4.1175,4.1027,4.0859,4.3986,4.523,4.6265,4.7858,4.8915,4.9681,5.0052,5.0569,5.1419,5.2787,5.2599,5.2329,5.2267,5.1895,5.1481,5.1044,5.1003,5.0673,4.9868,5.0073,5.0258,5.0258,4.9515,4.9288,4.9702,4.933,4.9102,4.9102,4.9516,4.995,5.0403,5.0817,5.1315,5.1791,5.1791,5.1791,5.1791,5.1791,5.204,5.2412,5.2412,5.2927,5.3731,5.3773,5.4042,5.4414,5.4476,5.4497,5.4497,5.4497,5.4497,5.4497,5.4497,5.4497,5.4665,5.5538,5.5852,5.608,5.6941,5.721,5.721,5.721,5.721,5.721,5.721,5.721,5.721,5.721,5.721,5.721,5.721,5.721,5.721,5.721,5.721,5.7334,5.7748,5.7459,5.7355,5.7769,5.75,5.7252,5.721,5.7393,5.7489,5.7385,5.8894,5.9196,5.7626,5.9212,5.9579,5.8192,5.8472,5.8705,5.8767,5.8224,5.7748,5.7272,5.7231,5.721,5.721,5.721,5.721,0.0,0.0,0.0,0.0,0.0,0.0,3.7616,3.8026,3.9285,4.1767,4.2391,4.3385,4.6203,4.7486,4.8148,4.821,4.9246,5.0385,5.1377,5.1439,5.1232,5.0838,5.0713,5.0631,5.0548,5.0527,5.0342,4.9847,4.9515,4.9349,4.9349,4.9184,4.9122,4.9247,4.9164,4.9102,4.9102,4.9205,4.9639,5.0403,5.0486,5.0962,5.1791,5.1791,5.1791,5.1791,5.1791,5.1853,5.1936,5.1936,5.2474,5.3344,5.3649,5.3856,5.398,5.4352,5.4497,5.4497,5.4497,5.4497,5.4497,5.4497,5.4497,5.4603,5.5165,5.5604,5.608,5.6941,5.721,5.721,5.721,5.721,5.721,5.721,5.721,5.721,5.721,5.721,5.721,5.721,5.721,5.721,5.721,5.721,5.7231,5.7314,5.7252,5.7231,5.7334,5.7583,5.7624,5.7231,5.8658,5.9308,5.8542,6.0315,6.0943,5.968,5.9975,6.0022,5.9606,5.9305,5.9347,5.9719,5.8891,5.8224,5.7748,5.7376,5.721,5.721,5.721,5.721,0.0,0.0,0.0,3.8092,0.0,0.0,0.0,3.7637,3.8208,4.0735,4.0675,4.103,4.3801,4.4857,4.554,4.6223,4.7506,4.879,4.9928,5.0487,5.0651,5.0424,5.0403,5.032,5.0115,5.0116,4.9929,4.9495,4.9247,4.9102,4.9102,4.9102,4.9102,4.9102,4.9102,4.9102,4.9102,4.9102,4.9536,5.0403,5.0403,5.0879,5.1791,5.1791,5.1791,5.1791,5.1791,5.1791,5.1812,5.206,5.2435,5.2888,5.3344,5.3631,5.3856,5.4311,5.4497,5.4497,5.4497,5.4497,5.4497,5.4497,5.4497,5.4645,5.5355,5.6038,5.6635,5.7065,5.721,5.721,5.721,5.721,5.721,5.721,5.721,5.721,5.721,5.721,5.721,5.721,5.721,5.721,5.721,5.721,5.7272,5.75,5.7355,5.7293,5.7521,5.7541,5.7767,5.8343,5.9315,6.0012,6.0325,6.2023,6.2208,6.0309,6.1674,6.191,6.0498,6.0963,6.0988,6.0467,5.9236,5.8348,5.7893,5.7666,5.7438,5.721,5.721,5.7334,0.0,0.0,0.0,0.0,0.0,3.8833,0.0,0.0,0.0,3.9968,3.954,3.944,4.1501,4.2145,4.2787,4.4008,4.5396,4.6741,4.7879,4.879,4.9513,4.9948,4.9782,4.9597,4.9537,4.9454,4.933,4.9122,4.8915,4.8915,4.9102,4.9102,4.9102,4.9102,4.9102,4.9102,4.9102,4.9102,4.9494,5.0301,5.0362,5.0838,5.1667,5.1771,5.1791,5.1791,5.1791,5.1791,5.1833,5.2205,5.2371,5.2433,5.3054,5.3507,5.3856,5.4311,5.4497,5.4497,5.4497,5.4497,5.4497,5.4497,5.4624,5.4914,5.5686,5.6511,5.721,5.721,5.721,5.721,5.721,5.721,5.721,5.721,5.721,5.721,5.721,5.721,5.721,5.721,5.721,5.721,5.721,5.721,5.7334,5.7707,5.7438,5.7376,5.7831,5.7846,5.8239,5.9435,6.0212,6.1006,6.1963,6.3651,6.3604,6.1115,6.3436,6.3821,6.1443,6.2325,6.2192,6.0751,5.9437,5.856,5.8162,5.7976,5.7645,5.721,5.721,5.7397,0.0,0.0,0.0,0.0,4.1568,0.0,0.0,0.0,3.9561,3.8684,0.0,3.9151,4.0244,0.0,0.0,4.1273,4.2828,4.403,4.4215,4.5022,4.6347,4.8397,4.7527,4.7237,4.8438,4.819,4.8252,4.9039,4.8335,4.821,4.906,4.9102,4.9102,4.9102,4.9102,4.9102,4.9102,4.9102,4.9371,4.9868,5.0239,5.0672,5.1189,5.1605,5.1791,5.1791,5.1791,5.1791,5.1812,5.1853,5.1874,5.1998,5.3258,5.3752,5.3856,5.4311,5.4497,5.4497,5.4497,5.4497,5.4497,5.4497,5.5062,5.5769,5.5873,5.6511,5.721,5.721,5.721,5.721,5.721,5.721,5.721,5.721,5.721,5.721,5.721,5.721,5.721,5.721,5.721,5.721,5.721,5.721,5.7231,5.7272,5.7231,5.7376,5.7831,5.9044,5.9759,5.9545,6.238,6.3846,6.2698,6.483,6.552,6.3779,6.4443,6.4306,6.2992,6.221,6.1254,6.0115,5.9502,5.9202,5.914,5.8312,5.7645,5.721,5.721,5.7231,0.0,0.0,0.0,0.0,0.0,0.0,3.972,0.0,3.8692,0.0,0.0,0.0,0.0,0.0,0.0,0.0,4.1234,4.2536,4.2805,4.295,4.3882,4.616,4.5417,4.5168,4.6326,4.672,4.6948,4.7113,4.6989,4.7175,4.7858,4.8397,4.8811,4.908,4.9102,4.9102,4.9102,4.9102,4.935,4.9806,5.0218,5.0651,5.1129,5.1584,5.1791,5.1791,5.1791,5.1791,5.1812,5.2081,5.2205,5.2309,5.3382,5.3672,5.3486,5.3941,5.4249,5.4497,5.4497,5.4497,5.4497,5.4497,5.4958,5.5541,5.5811,5.6349,5.6904,5.7128,5.721,5.721,5.721,5.721,5.721,5.721,5.721,5.721,5.721,5.721,5.721,5.721,5.721,5.721,5.721,5.721,5.721,5.721,5.7438,5.7666,5.7872,5.8464,5.9372,6.0688,6.1945,6.3167,6.438,6.5466,6.5678,6.4622,6.4167,6.3998,6.4176,6.2515,6.14,6.0933,6.012,5.9574,5.9305,5.8912,5.8328,5.7603,5.7334,5.75,4.2308,0.0,0.0,0.0,0.0,0.0,0.0,0.0,0.0,0.0,0.0,0.0,0.0,0.0,0.0,0.0,0.0,4.1477,4.1705,4.1211,4.1687,4.3986,4.3987,4.4174,4.5084,4.5748,4.6017,4.5725,4.5603,4.5934,4.6762,4.7361,4.8045,4.8873,4.8915,4.8956,4.9102,4.9102,4.9267,4.962,5.0156,5.0569,5.092,5.1522,5.1791,5.1791,5.1791,5.1791,5.1833,5.2164,5.2309,5.2371,5.3155,5.332,5.324,5.3796,5.4207,5.4497,5.4497,5.4497,5.4476,5.4331,5.4707,5.5293,5.5769,5.6225,5.668,5.7111,5.721,5.721,5.721,5.721,5.721,5.721,5.721,5.721,5.721,5.721,5.721,5.721,5.721,5.721,5.721,5.721,5.721,5.721,5.75,5.7849,5.8276,5.8603,5.9609,6.1779,6.212,6.3111,6.5407,6.5599,6.5336,6.4712,6.3901,6.3615,6.3973,6.2438,6.1586,6.1586,6.0829,6.0266,5.9911,5.9661,5.9111,5.8266,5.7666,5.7686,0.0,0.0,0.0,4.2412,0.0,0.0,0.0,0.0,4.1353,0.0,0.0,0.0,0.0,0.0,0.0,0.0,0.0,0.0,0.0,3.9478,3.9768,4.212,4.351,4.465,4.5601,4.5705,4.5705,4.5705,4.4443,4.4465,4.6224,4.5995,4.6595,4.8355,4.8418,4.8625,4.9102,4.9102,4.9122,4.9143,4.999,5.0403,5.0444,5.1377,5.1791,5.1791,5.1791,5.1791,5.1791,5.1812,5.1833,5.1874,5.235,5.2806,5.3282,5.4169,5.45,5.4497,5.4497,5.4497,5.4438,5.3959,5.4438,5.5293,5.5769,5.6225,5.668,5.7111,5.721,5.721,5.721,5.721,5.721,5.721,5.721,5.721,5.721,5.721,5.721,5.721,5.721,5.721,5.721,5.721,5.721,5.721,5.721,5.7772,5.9238,6.0378,6.1419,6.2472,6.3949,6.4927,6.5022,6.5047,6.4764,6.4174,6.4096,6.3364,6.1772,6.1638,6.1586,6.1586,6.156,6.1535,6.1513,6.0625,5.9878,5.9222,5.8312,5.7645,0.0,0.0,4.6678,4.4421,0.0,0.0,0.0,0.0,0.0,0.0,0.0,0.0,0.0,0.0,0.0,0.0,0.0,0.0,0.0,3.7798,3.7864,4.0161,4.14,4.206,4.206,4.2619,4.2743,4.2124,4.2186,4.2932,4.4444,4.552,4.6658,4.79,4.8231,4.8646,4.9102,4.9102,4.9102,4.9122,4.999,5.0403,5.0424,5.1377,5.1791,5.1791,5.1791,5.1791,5.1791,5.1791,5.1978,5.2309,5.2787,5.322,5.3631,5.3918,5.4228,5.4479,5.4145,5.4228,5.4414,5.3938,5.4207,5.4872,5.5666,5.5997,5.6287,5.7003,5.721,5.721,5.721,5.721,5.721,5.721,5.721,5.721,5.721,5.721,5.721,5.721,5.721,5.721,5.721,5.721,5.721,5.721,5.7459,5.813,5.9331,5.9827,6.07,6.2425,6.2825,6.338,6.4471,6.416,6.398,6.4101,6.2768,6.1891,6.1591,6.0907,6.0881,6.1586,6.1289,6.1144,6.1144,6.0506,5.9735,5.8829,5.8183,5.781,4.5663,4.6554,0.0,4.5602,4.5249,0.0,4.2971,0.0,0.0,0.0,0.0,0.0,0.0,0.0,0.0,0.0,0.0,0.0,0.0,3.7198,3.7388,3.8857,3.9847,4.0468,4.0672,4.1232,4.1087,3.9792,4.0427,4.1441,4.2807,4.4299,4.583,4.7403,4.7921,4.8459,4.908,4.9102,4.9102,4.9122,4.9846,5.0259,5.0424,5.1212,5.1646,5.1791,5.1791,5.1791,5.1791,5.1791,5.2081,5.2559,5.3015,5.3447,5.3814,5.398,5.4228,5.4414,5.3959,5.4104,5.4414,5.3938,5.4104,5.4645,5.5438,5.5645,5.5873,5.69,5.7086,5.707,5.7376,5.7334,5.721,5.721,5.721,5.721,5.721,5.721,5.721,5.721,5.721,5.721,5.721,5.7334,5.7397,5.7231,5.7784,5.8598,5.967,6.014,6.1028,6.2738,6.2637,6.2736,6.3391,6.3418,6.313,6.2514,6.1481,6.0879,6.0789,6.0131,6.0553,6.2331,6.125,6.1059,6.191,6.0761,5.9735,5.885,5.8183,5.7893]}]]